[[{"header":{"parameterUnit":"m.s-1","parameterCategory":1,"la1":30.6,"la2":29.2853,"lo1":-89.7004,"lo2":-87.6739,"dy":0.0162,"dx":0.0183,"nx":112,"ny":82,"refTime":"2024-08-06T06:00:00:Z","depth":0,"parameterNumber":2,"parameterNumberName":"U-component_of_WINDS"},"data":[0.0,0.0,0.0,0.0,0.0,0.0,0.0,0.0,0.0,0.0,0.0,0.0,0.0,0.0,0.0,0.0,0.0,0.0,0.0,0.0,0.0,0.0,0.0,0.0,0.0,0.0,0.0,0.0,0.0,0.0,0.0,0.0,0.0,0.0,0.0,0.0,0.0,0.0,0.0,0.0,0.0,0.0,0.0,0.0,0.0,0.0,0.0,0.0,0.0,0.0,0.0,0.0,0.0,0.0,0.0,0.0,0.0,0.0,0.0,0.0,0.0,0.0,0.0,0.0,0.0,0.0,0.0,0.0,0.0,0.0,0.0,0.0,0.0,0.0,0.0,0.0,0.0,0.0,0.0,0.0,0.0,0.0,0.0,0.0,0.0,0.0,0.0,0.0,0.0,0.0,-1.3518,-1.6445,-1.924,-2.1266,-2.2463,-2.1213,-1.9569,-1.7744,0.0,0.0,0.0,0.0,0.0,0.0,0.0,0.0,0.0,0.0,0.0,0.0,0.0,0.0,0.0,0.0,0.0,0.0,0.0,0.0,0.0,0.0,0.0,0.0,0.0,0.0,0.0,0.0,0.0,0.0,0.0,0.0,0.0,0.0,0.0,0.0,0.0,0.0,0.0,0.0,0.0,0.0,0.0,0.0,0.0,0.0,0.0,0.0,0.0,0.0,0.0,0.0,0.0,0.0,0.0,0.0,0.0,0.0,0.0,0.0,0.0,0.0,0.0,0.0,0.0,0.0,0.0,0.0,0.0,0.0,0.0,0.0,0.0,0.0,0.0,0.0,0.0,0.0,0.0,0.0,0.0,0.0,0.0,0.0,0.0,0.0,0.0,0.0,0.0,0.0,0.0,0.0,0.0,0.0,0.0,0.0,0.0,0.0,0.0,0.0,0.0,0.0,0.0,0.0,-1.5853,-2.0434,-2.135,-2.2059,-2.3418,-2.2349,-2.0743,-1.8728,0.0,0.0,0.0,0.0,0.0,0.0,0.0,0.0,0.0,0.0,0.0,0.0,0.0,0.0,0.0,0.0,0.0,0.0,0.0,0.0,0.0,0.0,0.0,0.0,0.0,0.0,0.0,0.0,0.0,0.0,0.0,0.0,0.0,0.0,0.0,0.0,0.0,0.0,0.0,0.0,0.0,0.0,0.0,0.0,0.0,0.0,0.0,0.0,0.0,0.0,0.0,0.0,0.0,0.0,0.0,0.0,0.0,0.0,0.0,0.0,0.0,0.0,0.0,0.0,0.0,0.0,0.0,0.0,0.0,0.0,0.0,0.0,0.0,0.0,0.0,0.0,0.0,0.0,0.0,0.0,0.0,0.0,0.0,0.0,0.0,0.0,0.0,0.0,0.0,0.0,0.0,0.0,0.0,0.0,0.0,0.0,0.0,0.0,0.0,0.0,0.0,0.0,0.0,-1.5389,-1.8399,-2.1627,-2.2349,-2.3018,-2.374,-2.2698,-2.1278,-1.9334,-1.8062,0.0,0.0,0.0,0.0,0.0,0.0,0.0,0.0,0.0,0.0,0.0,0.0,0.0,0.0,0.0,0.0,0.0,0.0,0.0,0.0,0.0,0.0,0.0,0.0,0.0,0.0,0.0,0.0,0.0,0.0,0.0,0.0,0.0,0.0,0.0,0.0,0.0,0.0,0.0,0.0,0.0,0.0,0.0,0.0,0.0,0.0,0.0,0.0,0.0,0.0,0.0,0.0,0.0,0.0,0.0,0.0,0.0,0.0,0.0,0.0,0.0,0.0,0.0,0.0,0.0,0.0,0.0,0.0,0.0,0.0,0.0,0.0,0.0,0.0,0.0,0.0,0.0,0.0,0.0,0.0,0.0,0.0,0.0,0.0,0.0,0.0,0.0,0.0,0.0,0.0,0.0,0.0,0.0,0.0,0.0,0.0,0.0,0.0,0.0,0.0,0.0,0.0,-1.8832,-2.0526,-2.2129,-2.3173,-2.3777,-2.3632,-2.2737,-2.1409,-1.955,-1.853,0.0,0.0,0.0,0.0,0.0,0.0,0.0,0.0,0.0,0.0,0.0,0.0,0.0,0.0,0.0,0.0,0.0,0.0,0.0,0.0,0.0,0.0,0.0,0.0,0.0,0.0,0.0,0.0,0.0,0.0,0.0,0.0,0.0,0.0,0.0,0.0,0.0,0.0,0.0,0.0,0.0,0.0,0.0,0.0,0.0,0.0,0.0,0.0,0.0,0.0,0.0,0.0,0.0,0.0,0.0,0.0,0.0,0.0,0.0,0.0,0.0,0.0,0.0,0.0,0.0,0.0,0.0,0.0,0.0,0.0,0.0,0.0,0.0,0.0,0.0,0.0,0.0,0.0,0.0,0.0,0.0,0.0,0.0,0.0,0.0,0.0,0.0,0.0,0.0,0.0,0.0,0.0,0.0,0.0,0.0,0.0,0.0,0.0,0.0,0.0,0.0,0.0,-1.984,-2.1571,-2.2985,-2.4104,-2.4344,-2.3359,-2.2544,-2.1227,-1.9172,-1.78,0.0,0.0,0.0,0.0,0.0,0.0,0.0,0.0,0.0,0.0,0.0,0.0,0.0,0.0,0.0,0.0,0.0,0.0,0.0,0.0,0.0,0.0,0.0,0.0,0.0,0.0,0.0,0.0,0.0,0.0,0.0,0.0,0.0,0.0,0.0,0.0,0.0,0.0,0.0,0.0,0.0,0.0,0.0,0.0,0.0,0.0,0.0,0.0,0.0,0.0,0.0,0.0,0.0,0.0,0.0,0.0,0.0,0.0,0.0,0.0,0.0,0.0,0.0,0.0,0.0,0.0,0.0,0.0,0.0,0.0,0.0,0.0,0.0,0.0,0.0,0.0,0.0,0.0,0.0,0.0,0.0,0.0,0.0,0.0,0.0,0.0,0.0,0.0,0.0,0.0,0.0,0.0,0.0,0.0,0.0,0.0,0.0,0.0,0.0,0.0,0.0,0.0,-2.0596,-2.2635,0.0,-2.5284,-2.5402,-2.5128,-2.3837,-2.2113,-2.0074,0.0,0.0,0.0,0.0,0.0,0.0,0.0,0.0,0.0,0.0,0.0,0.0,0.0,0.0,0.0,0.0,0.0,0.0,0.0,0.0,0.0,0.0,0.0,0.0,0.0,0.0,0.0,0.0,0.0,0.0,0.0,0.0,0.0,0.0,0.0,0.0,0.0,0.0,0.0,0.0,0.0,0.0,0.0,0.0,0.0,0.0,0.0,0.0,0.0,0.0,0.0,0.0,0.0,0.0,0.0,0.0,0.0,0.0,0.0,0.0,0.0,0.0,0.0,0.0,0.0,0.0,0.0,0.0,0.0,0.0,0.0,0.0,0.0,0.0,0.0,0.0,0.0,0.0,0.0,0.0,0.0,0.0,0.0,0.0,0.0,0.0,0.0,0.0,0.0,0.0,0.0,0.0,0.0,0.0,0.0,0.0,0.0,0.0,0.0,0.0,0.0,0.0,-1.937,-2.166,-2.3776,0.0,-2.6185,-2.631,-2.6088,-2.4539,-2.2753,-2.0688,0.0,0.0,0.0,0.0,0.0,0.0,0.0,0.0,0.0,0.0,0.0,0.0,0.0,0.0,0.0,0.0,0.0,0.0,0.0,0.0,0.0,0.0,0.0,0.0,0.0,0.0,0.0,0.0,0.0,0.0,0.0,0.0,0.0,0.0,0.0,0.0,0.0,0.0,0.0,0.0,0.0,0.0,0.0,0.0,0.0,0.0,0.0,0.0,0.0,0.0,0.0,0.0,0.0,0.0,0.0,0.0,0.0,0.0,0.0,0.0,0.0,0.0,0.0,0.0,0.0,0.0,0.0,0.0,0.0,0.0,0.0,0.0,0.0,0.0,0.0,0.0,0.0,0.0,0.0,0.0,0.0,0.0,0.0,0.0,0.0,0.0,0.0,0.0,0.0,0.0,0.0,0.0,0.0,0.0,0.0,0.0,0.0,0.0,0.0,0.0,0.0,0.0,-2.003,-2.2889,-2.5052,-2.5578,-2.6616,-2.6851,-2.5701,-2.4381,-2.2772,0.0,0.0,0.0,0.0,0.0,0.0,0.0,0.0,0.0,0.0,0.0,0.0,0.0,0.0,0.0,0.0,0.0,0.0,0.0,0.0,0.0,0.0,0.0,0.0,0.0,0.0,0.0,0.0,0.0,0.0,0.0,0.0,0.0,0.0,0.0,0.0,0.0,0.0,0.0,0.0,0.0,0.0,0.0,0.0,0.0,0.0,0.0,0.0,0.0,0.0,0.0,0.0,0.0,0.0,0.0,0.0,0.0,0.0,0.0,0.0,0.0,0.0,0.0,0.0,0.0,0.0,0.0,0.0,0.0,0.0,0.0,0.0,0.0,0.0,0.0,0.0,0.0,0.0,0.0,0.0,0.0,0.0,0.0,0.0,0.0,0.0,0.0,0.0,0.0,0.0,0.0,0.0,0.0,0.0,0.0,0.0,0.0,0.0,0.0,0.0,0.0,0.0,0.0,-2.1396,-2.3743,-2.5766,-2.7239,-2.7644,-2.7748,-2.7421,-2.554,-2.3587,-2.1584,0.0,0.0,0.0,0.0,0.0,0.0,0.0,0.0,0.0,0.0,0.0,0.0,0.0,0.0,0.0,0.0,0.0,0.0,0.0,0.0,0.0,0.0,0.0,0.0,0.0,0.0,0.0,0.0,0.0,0.0,0.0,0.0,0.0,0.0,0.0,0.0,0.0,0.0,0.0,0.0,0.0,0.0,0.0,0.0,0.0,0.0,0.0,0.0,0.0,0.0,0.0,0.0,0.0,0.0,0.0,0.0,0.0,0.0,0.0,0.0,0.0,0.0,0.0,0.0,0.0,0.0,0.0,0.0,0.0,0.0,0.0,0.0,0.0,0.0,0.0,0.0,0.0,0.0,0.0,0.0,0.0,0.0,0.0,0.0,0.0,0.0,0.0,0.0,0.0,0.0,0.0,0.0,0.0,0.0,0.0,0.0,0.0,0.0,0.0,0.0,0.0,0.0,-2.2333,-2.4293,-2.6233,-2.824,-2.8213,-2.7984,-2.7798,-2.6394,-2.4482,-2.2046,0.0,0.0,0.0,0.0,0.0,0.0,0.0,0.0,0.0,0.0,0.0,0.0,0.0,0.0,0.0,0.0,0.0,0.0,0.0,0.0,0.0,0.0,0.0,0.0,0.0,0.0,0.0,0.0,0.0,0.0,0.0,0.0,0.0,0.0,0.0,0.0,0.0,0.0,0.0,0.0,0.0,0.0,0.0,0.0,0.0,0.0,0.0,0.0,0.0,0.0,0.0,0.0,0.0,0.0,0.0,0.0,0.0,0.0,0.0,0.0,0.0,0.0,0.0,0.0,0.0,0.0,0.0,0.0,0.0,0.0,0.0,0.0,0.0,0.0,0.0,0.0,0.0,0.0,0.0,0.0,0.0,0.0,0.0,0.0,0.0,0.0,0.0,0.0,0.0,0.0,0.0,0.0,0.0,0.0,0.0,0.0,0.0,0.0,0.0,0.0,0.0,0.0,-2.2947,-2.4594,-2.6426,-2.8568,-2.8378,-2.7804,-2.7315,-2.6729,-2.5214,-2.2496,0.0,0.0,0.0,0.0,0.0,0.0,0.0,0.0,0.0,0.0,0.0,0.0,0.0,0.0,0.0,0.0,0.0,0.0,0.0,0.0,0.0,0.0,0.0,0.0,0.0,0.0,0.0,0.0,0.0,0.0,0.0,0.0,0.0,0.0,0.0,0.0,0.0,0.0,0.0,0.0,0.0,0.0,0.0,0.0,0.0,0.0,0.0,0.0,0.0,0.0,0.0,0.0,0.0,0.0,0.0,0.0,0.0,0.0,0.0,0.0,-1.8542,0.0,0.0,0.0,0.0,0.0,0.0,0.0,0.0,0.0,0.0,0.0,0.0,0.0,0.0,0.0,0.0,0.0,0.0,0.0,0.0,0.0,0.0,0.0,0.0,0.0,0.0,0.0,0.0,0.0,0.0,0.0,0.0,0.0,0.0,0.0,0.0,0.0,0.0,0.0,0.0,0.0,-2.3506,-2.4874,-2.6251,-2.8089,-2.7761,-2.7417,-2.7272,-2.6009,-2.4883,-2.4117,-2.2513,0.0,0.0,0.0,0.0,0.0,0.0,0.0,0.0,0.0,0.0,0.0,0.0,0.0,0.0,0.0,0.0,0.0,0.0,0.0,0.0,0.0,0.0,0.0,0.0,0.0,0.0,0.0,0.0,0.0,0.0,0.0,0.0,0.0,0.0,0.0,0.0,0.0,0.0,0.0,0.0,0.0,0.0,0.0,0.0,0.0,0.0,0.0,0.0,0.0,0.0,0.0,0.0,0.0,0.0,0.0,0.0,0.0,0.0,0.0,0.0,-2.0177,0.0,0.0,0.0,0.0,0.0,0.0,0.0,0.0,0.0,0.0,0.0,0.0,0.0,0.0,0.0,0.0,0.0,0.0,0.0,0.0,0.0,0.0,0.0,0.0,0.0,0.0,0.0,0.0,0.0,0.0,0.0,0.0,0.0,0.0,0.0,0.0,0.0,0.0,0.0,0.0,-2.4115,-2.484,-2.6061,-2.8263,-2.7767,-2.7202,-2.6961,-2.659,-2.577,-2.443,-2.3754,0.0,0.0,0.0,0.0,0.0,0.0,0.0,0.0,0.0,0.0,0.0,0.0,0.0,0.0,0.0,0.0,0.0,0.0,0.0,0.0,0.0,0.0,0.0,0.0,0.0,0.0,0.0,0.0,0.0,0.0,0.0,0.0,0.0,0.0,0.0,0.0,0.0,0.0,0.0,0.0,0.0,0.0,0.0,0.0,0.0,0.0,0.0,0.0,0.0,0.0,0.0,0.0,0.0,-2.5102,-2.5709,-2.6387,-2.6854,-2.7081,-2.6956,-2.4566,-2.3021,-2.2128,-2.1759,0.0,0.0,0.0,0.0,0.0,0.0,0.0,0.0,0.0,0.0,0.0,0.0,0.0,0.0,0.0,0.0,0.0,0.0,0.0,0.0,0.0,0.0,0.0,0.0,-2.3287,-2.3941,-2.2702,0.0,0.0,0.0,0.0,0.0,0.0,0.0,0.0,0.0,0.0,0.0,-2.4518,-2.4895,-2.5912,-2.8386,-2.7821,-2.7105,-2.671,-2.7444,-2.6992,-2.472,-2.5134,-2.4543,0.0,0.0,0.0,0.0,0.0,0.0,0.0,0.0,0.0,0.0,0.0,0.0,0.0,0.0,0.0,0.0,0.0,0.0,0.0,0.0,0.0,0.0,0.0,0.0,0.0,0.0,0.0,0.0,0.0,0.0,0.0,0.0,-1.1,-1.2553,0.0,0.0,0.0,0.0,0.0,0.0,0.0,0.0,0.0,0.0,0.0,0.0,0.0,-2.3404,-2.5419,-2.6451,-2.7793,-2.9249,-2.979,-3.0128,-3.0255,-3.0481,-3.0568,-3.0516,-3.0294,0.0,-2.4875,-2.4819,0.0,0.0,0.0,0.0,0.0,0.0,0.0,0.0,0.0,0.0,0.0,0.0,0.0,0.0,0.0,0.0,0.0,0.0,0.0,0.0,0.0,0.0,-2.5517,-2.5517,-2.6184,-2.6776,0.0,-2.4624,-2.2886,-2.2892,-2.2437,0.0,0.0,0.0,0.0,0.0,0.0,0.0,-2.4657,-2.5222,-2.6,-2.7356,-2.7369,-2.7256,-2.718,-2.7306,-2.7243,-2.6866,-2.5636,-2.4505,-2.3592,-2.3044,0.0,0.0,0.0,0.0,0.0,0.0,0.0,0.0,0.0,0.0,0.0,0.0,0.0,0.0,0.0,0.0,0.0,0.0,0.0,0.0,0.0,0.0,0.0,0.0,0.0,0.0,0.0,0.0,0.0,-1.3462,-1.5835,-1.6058,-1.7508,-1.8115,0.0,0.0,0.0,0.0,0.0,0.0,0.0,0.0,0.0,-2.6148,-2.6746,-2.7634,-2.8931,-2.9749,-3.0522,-3.123,-3.1515,-3.182,-3.2236,-3.2667,-3.2918,-3.2918,-3.338,-3.2148,-2.9745,-2.8651,-2.7099,-2.5499,0.0,0.0,0.0,0.0,-2.5296,-2.5179,-2.5505,-2.5712,-2.5673,-2.4414,0.0,0.0,0.0,0.0,0.0,0.0,0.0,0.0,0.0,0.0,-2.6843,-2.7151,-2.7516,-2.7745,-2.7745,-2.6552,-2.5232,0.0,-2.4079,-2.3505,-2.2852,0.0,0.0,0.0,0.0,-2.3653,-2.5071,-2.546,-2.6151,-2.7595,-2.7469,-2.7406,-2.772,-2.8034,-2.7946,-2.7318,-2.7193,-2.6603,-2.5357,-2.4768,-2.3829,0.0,0.0,0.0,0.0,0.0,0.0,0.0,0.0,0.0,0.0,0.0,0.0,0.0,0.0,0.0,0.0,0.0,0.0,0.0,0.0,0.0,0.0,0.0,0.0,0.0,0.0,0.0,0.0,-1.8358,-2.0069,-1.9545,-2.1257,-2.1857,0.0,0.0,0.0,0.0,0.0,0.0,-2.7106,-2.7588,-2.8501,-3.0106,-3.0801,-3.1483,-3.2114,-3.2651,-3.3108,-3.3427,-3.3427,-3.3733,-3.4301,-3.4765,-3.4993,-3.5074,-3.5555,-3.5104,-3.3926,-3.215,-3.0147,-2.8213,-2.873,-2.8389,-2.7589,-2.7565,-2.7512,-2.7449,-2.8063,-2.83,-2.8226,-2.7051,-2.6564,-2.6111,-2.4587,0.0,0.0,0.0,0.0,-2.5762,-2.7143,-2.7595,-2.7808,-2.8222,-2.831,-2.831,-2.831,-2.7883,-2.7205,0.0,-2.5485,-2.4757,-2.3904,0.0,0.0,0.0,0.0,-2.4268,-2.5636,-2.5937,-2.6565,-2.7959,-2.7871,-2.7871,-2.8285,-2.8825,-2.8737,-2.777,-2.8348,-2.8047,-2.6596,-2.605,-2.531,-2.4167,0.0,0.0,0.0,0.0,0.0,0.0,0.0,0.0,0.0,0.0,0.0,0.0,0.0,0.0,0.0,0.0,0.0,0.0,0.0,0.0,0.0,0.0,0.0,0.0,0.0,0.0,0.0,0.0,0.0,-2.3765,-2.5108,0.0,0.0,0.0,0.0,-2.6422,-2.6974,-2.7839,-2.9088,-3.0233,-3.1194,-3.1767,-3.2947,-3.4082,-3.4994,-3.5569,-3.6265,-3.7136,-3.7136,-3.7151,-3.717,-3.7188,-3.7226,-3.7228,-3.7243,-3.688,-3.6029,-3.4636,-3.2889,-3.096,-3.0989,-3.0144,-2.8875,-2.8886,-2.8612,-2.8226,-2.8963,-2.9139,-2.895,-2.885,-2.7903,-2.6846,-2.6999,-2.6331,0.0,0.0,-2.718,-2.7293,-2.7908,-2.8448,-2.885,-2.8875,-2.8888,-2.8888,-2.8888,-2.8448,-2.7896,0.0,-2.6314,-2.5536,-2.5485,0.0,-2.4695,-2.4695,-2.5146,-2.5699,-2.6339,-2.6879,-2.7431,-2.8047,-2.8549,-2.885,-2.8888,-2.9415,-2.949,-2.8888,-2.8411,-2.7645,-2.6584,-2.6496,-2.5832,-2.4626,-2.4003,0.0,0.0,0.0,0.0,0.0,0.0,0.0,0.0,0.0,0.0,0.0,0.0,0.0,0.0,0.0,0.0,0.0,0.0,0.0,0.0,0.0,0.0,0.0,0.0,0.0,0.0,0.0,0.0,-2.5236,-2.6958,0.0,-2.6229,-2.7226,-2.8272,-2.8997,-3.0415,-3.1815,-3.3237,-3.4083,-3.5054,-3.6058,-3.6503,-3.6705,-3.6634,-3.6835,-3.6619,-3.6149,-3.662,-3.6843,-3.6866,-3.7653,-3.7842,-3.7418,-3.7884,-3.7449,-3.6439,-3.6339,-3.5013,-3.3199,-3.4125,-3.327,-3.1643,-3.2045,-3.1669,-3.1138,-3.1408,-3.1072,-3.0431,-2.9416,-2.8461,-2.769,-2.7798,-2.7528,-2.7358,-2.8136,-2.8348,-2.8473,-2.9038,-2.934,-2.9478,-2.9478,-2.9478,-2.9478,-2.9478,-2.9038,-2.8574,-2.8386,-2.7444,-2.6565,-2.6214,-2.5686,-2.5322,-2.5322,-2.5473,-2.5937,-2.6866,-2.7155,-2.7632,-2.8536,-2.8812,-2.9076,-2.9453,-2.934,-2.9001,-2.8436,-2.821,-2.777,-2.7017,-2.6979,-2.664,-2.5832,-2.5244,-2.4166,0.0,0.0,0.0,0.0,0.0,0.0,0.0,0.0,0.0,0.0,0.0,0.0,0.0,0.0,0.0,0.0,0.0,0.0,0.0,0.0,0.0,0.0,0.0,0.0,0.0,0.0,-2.7438,-2.6886,-2.8666,-2.9433,-2.8234,-2.9477,-3.0809,-3.2051,-3.3281,-3.4682,-3.6032,-3.6777,-3.7445,-3.805,-3.827,-3.8112,-3.7419,-3.7361,-3.7113,-3.6473,-3.6969,-3.7284,-3.7535,-3.8381,-3.8455,-3.8074,-3.8564,-3.8271,-3.7491,-3.7933,-3.7067,-3.5624,-3.5863,-3.493,-3.3395,-3.3317,-3.296,-3.2445,-3.2032,-3.1655,-3.1074,-2.9771,-2.9113,-2.8749,-2.8674,-2.8674,-2.875,-2.9114,-2.9214,-2.9315,-2.9691,-2.9792,-2.9792,-2.9792,-2.9792,-2.9792,-2.9792,-2.949,-2.9214,-2.9214,-2.8323,-2.7444,-2.708,-2.6703,-2.6508,-2.6837,-2.6645,-2.6918,-2.8066,-2.7978,-2.8197,-2.9126,-2.9214,-2.9377,-2.9767,-2.9264,-2.8863,-2.8687,-2.8147,-2.7745,-2.757,-2.7017,-2.654,-2.6176,-2.5624,-2.4883,-2.3842,0.0,0.0,0.0,0.0,0.0,0.0,0.0,0.0,0.0,0.0,0.0,0.0,0.0,0.0,0.0,0.0,0.0,0.0,0.0,0.0,0.0,0.0,0.0,-2.692,-2.7882,-2.8742,-2.9204,-3.0526,-3.1367,-3.1404,-3.2147,-3.3402,-3.5351,-3.5571,-3.6073,-3.7287,-3.803,-3.8109,-3.7434,-3.8054,-3.8069,-3.7419,-3.7379,-3.7709,-3.8402,-3.8417,-3.8777,-3.9394,-3.9409,-3.9409,-3.9379,-3.9388,-3.9352,-3.9306,-3.9322,-3.8926,-3.8107,-3.6214,-3.4986,-3.4182,-3.2804,-3.2203,-3.2006,-3.0797,-3.0559,-3.0648,-3.0023,-2.9934,-3.0088,-2.9869,-2.9792,-2.9792,-2.9792,-2.9792,-2.9792,-2.9792,-2.9792,-2.9792,-2.9792,-2.9792,-2.9792,-2.9792,-2.9792,-2.9792,-2.9792,-2.8913,-2.816,-2.8134,-2.8109,-2.8388,-2.9164,-2.8592,0.0,-2.9861,-2.9361,-2.9151,-2.9729,-2.9792,-2.9792,-2.9792,-2.9264,-2.9164,-2.9704,-2.8197,-2.7519,-2.8059,-2.6515,-2.5649,-2.5674,-2.5197,-2.5131,-2.5485,0.0,0.0,0.0,0.0,0.0,0.0,0.0,0.0,0.0,0.0,0.0,0.0,0.0,0.0,0.0,0.0,0.0,0.0,0.0,0.0,0.0,-2.7149,-2.8764,-2.883,-3.0088,-3.1282,-3.1983,-3.2903,-3.3465,-3.349,-3.4135,-3.4831,-3.5407,-3.6328,-3.6867,-3.6782,-3.7804,-3.8098,-3.7434,-3.7578,-3.7593,-3.7404,-3.7406,-3.7519,-3.7706,-3.8187,-3.8532,-3.8687,-3.917,-3.9116,-3.8689,-3.8683,-3.8153,-3.7346,-3.7803,-3.7323,-3.6394,-3.7764,-3.7237,-3.5712,-3.5787,-3.4732,-3.3082,-3.1551,-3.1061,-3.0919,-3.0072,-2.9869,-2.9869,-2.9792,-2.9792,-2.9792,-2.9792,-2.9792,-2.9792,-2.9792,-2.9792,-2.9792,-2.9792,-2.9792,-2.9792,-2.9792,-2.9792,-2.9792,-2.9792,-2.9541,-2.9202,-2.8775,-2.8373,-2.8182,-2.8388,-2.8243,0.0,-2.9149,-2.9076,-2.9151,-2.9729,-2.9792,-2.9792,-2.9792,-2.9264,-2.8825,-2.8586,-2.7758,-2.7356,-2.7507,-2.7067,-2.7005,-2.7406,-2.767,-2.761,0.0,0.0,0.0,0.0,0.0,0.0,0.0,0.0,0.0,0.0,0.0,0.0,0.0,0.0,0.0,0.0,0.0,0.0,0.0,0.0,0.0,0.0,-2.8967,-3.0603,-3.1148,-3.1817,-3.2483,-3.3119,-3.3871,-3.4392,-3.4675,-3.5378,-3.603,-3.663,-3.7121,-3.7518,-3.7728,-3.8112,-3.8212,-3.7823,-3.7823,-3.7689,-3.7404,-3.7404,-3.7539,-3.7823,-3.8197,-3.8527,-3.8852,-3.9215,-3.9218,-3.8778,-3.8481,-3.7957,-3.7306,-3.7386,-3.6939,0.0,0.0,0.0,0.0,0.0,-3.4735,-3.2941,-3.1853,-3.1215,-3.0727,-3.0112,-2.9869,-2.9792,-2.9792,-2.9792,-2.9792,-2.9792,-2.9792,-2.9792,-2.9792,-2.9792,-2.9792,-2.9792,-2.9792,-2.9792,-2.9792,-2.9792,-2.9792,-2.9792,-2.9792,0.0,-2.9352,-2.9026,-2.8949,-2.9208,-2.9011,-2.9063,-2.9655,-2.9492,-2.9415,-2.9754,-2.9792,-2.9792,-2.9792,-2.9264,0.0,0.0,0.0,-2.7632,-2.7632,-2.7632,0.0,0.0,0.0,0.0,0.0,0.0,0.0,0.0,-2.9427,-2.944,0.0,0.0,0.0,0.0,0.0,0.0,0.0,0.0,0.0,0.0,0.0,0.0,0.0,0.0,0.0,0.0,-3.0624,-3.2398,-3.3479,-3.3178,-3.2976,-3.3328,-3.4107,-3.4822,-3.5443,-3.6165,-3.7091,-3.8283,-3.7841,-3.7981,-3.9103,0.0,0.0,0.0,0.0,-3.8033,-3.7524,-3.7524,-3.7853,-3.8497,-3.8497,-3.8826,-3.9424,-3.9424,-3.9424,-3.9379,-3.8691,-3.8347,-3.8227,-3.7659,-3.736,-3.7255,-3.6701,-3.6133,-3.5529,-3.4624,-3.3408,-3.2146,-3.1869,0.0,0.0,-3.0152,-3.0011,-2.9869,-2.9792,-2.9792,-2.9792,-2.9792,-2.9792,-2.9792,-2.9792,-2.9792,-2.9792,-2.9792,-2.9792,-2.9792,-2.9792,-2.9792,-2.9792,-2.9792,-2.9792,-2.9792,-2.9792,-2.9792,-2.9998,-3.0683,-3.0203,-3.0075,-3.0683,-3.0203,-2.9792,-2.9792,0.0,0.0,-2.9792,-2.9315,-2.9214,-2.9666,-2.8812,-2.8298,-2.8298,-2.8473,-2.8775,-2.9202,-2.934,-3.008,-3.1486,-3.1612,-3.2441,-3.3847,-3.1034,-3.0629,0.0,0.0,0.0,0.0,0.0,0.0,0.0,0.0,0.0,0.0,0.0,0.0,0.0,0.0,0.0,-2.9596,-3.185,-3.3683,-3.4521,-3.4541,-3.4478,-3.4561,-3.5744,-3.6615,-3.6746,-3.7465,-3.8028,-3.8302,-3.8232,-3.8058,-3.7781,-3.8205,-3.8138,-3.7614,-3.7599,-3.7793,-3.8197,-3.8197,-3.8542,-3.923,0.0,0.0,-3.9424,-3.9424,-3.9424,-3.9379,-3.8691,-3.8078,-3.7584,-3.7464,-3.712,-3.6656,-3.6537,-3.6417,-3.6156,-3.48,-3.3754,-3.2861,-3.2074,-3.1307,-3.0622,-3.0228,-3.0075,-3.0011,-2.9869,-2.9792,0.0,-2.9792,-2.9792,-2.9792,-2.9792,-2.9792,-2.9792,-2.9792,-2.9792,-2.9792,-2.9792,-2.9792,-2.9792,-2.9792,-2.9792,-2.9792,-2.9792,-2.9792,-2.9869,-2.9998,-2.9856,-2.9856,-2.9998,-2.9856,-2.9792,-2.9792,-2.9792,-2.9792,-2.9792,-2.9691,-2.9478,-2.9114,-2.9327,-2.9465,-2.9465,-3.0721,-3.126,-3.0922,-3.1813,-3.2202,-3.2051,-3.2968,-3.3583,-3.3884,-3.3258,-3.3421,0.0,0.0,0.0,0.0,0.0,0.0,0.0,0.0,0.0,0.0,0.0,-2.2542,-2.387,0.0,-2.9407,-3.0907,-3.2609,-3.4054,-3.48,-3.4899,-3.4899,-3.4899,-3.5876,-3.6688,-3.7069,-3.7801,-3.8395,-3.8756,-3.8536,-3.8355,-3.834,-3.8685,-3.8772,-3.8407,-3.8741,-3.8962,-3.8901,-3.8901,-3.908,-3.9424,-3.9065,-3.8901,-3.8901,-3.8556,-3.8586,-3.8871,-3.8197,-3.7719,-3.736,-3.6716,-3.6267,-3.5998,-3.5998,-3.5998,-3.5887,-3.517,-3.4409,-3.3616,-3.2791,-3.1882,-3.1035,-3.0444,-3.0075,-2.9934,-2.9869,-2.9792,-2.9792,-2.9792,-2.9792,-2.9792,-2.9792,-2.9792,-2.9792,-2.9792,-2.9792,-2.9792,-2.9792,-2.9792,-2.9792,-2.9792,-2.9792,-2.9792,-2.9792,-2.9792,-2.9792,-2.9792,-2.9792,-2.9792,-2.9792,-2.9792,-2.9792,-2.9792,-2.9792,-2.9792,-2.9792,-2.9792,-2.9792,-2.9767,-3.0043,-3.0444,-3.0984,-3.1775,-3.2215,-3.2227,-3.2503,-3.2503,-3.2215,-3.3068,-3.3633,-3.3909,-3.4462,-3.4864,0.0,0.0,0.0,0.0,0.0,0.0,0.0,0.0,-1.8472,-1.8904,-2.1456,-2.41,-2.564,-2.7816,-3.0006,-3.1905,-3.3242,-3.422,-3.4816,-3.4899,-3.4899,-3.4899,-3.5545,-3.629,-3.7036,-3.7781,-3.851,-3.9222,-3.8792,-3.8824,-3.9485,-3.9566,-3.9648,-3.9778,-4.0285,-4.0216,-3.961,-3.9346,-3.923,-3.9215,-3.8527,-3.8197,-3.8182,-3.7778,-3.7883,-3.8347,-3.7689,-3.727,-3.6956,-3.5923,-3.5504,-3.5504,-3.5504,-3.5504,-3.5504,-3.5504,-3.4986,-3.4177,-3.3492,-3.2506,-3.1516,-3.0646,-3.0152,-2.9856,-2.9792,-2.9792,-2.9792,-2.9792,-2.9792,-2.9792,-2.9792,-2.9792,-2.9792,-2.9792,-2.9792,-2.9792,-2.9792,-2.9792,-2.9792,-2.9792,-2.9792,-2.9792,-2.9792,-2.9792,-2.9792,-2.9792,-2.9792,-2.9792,-2.9792,-2.9792,-2.9792,-2.9792,-2.9792,-2.9792,-2.9792,-2.9892,-3.0143,-3.0583,-3.0809,-3.1311,-3.2177,-3.2328,-3.2604,-3.3068,-3.2503,-3.2265,-3.239,-3.2955,-3.352,-3.4085,-3.519,-3.5705,-0.6227,-0.7865,-0.9425,-1.0288,-1.2035,-1.3844,0.0,0.0,-1.9392,-2.0394,-2.2692,-2.4878,-2.6154,-2.8824,-3.1094,-3.2064,-3.3665,-3.48,-3.4883,-3.4899,-3.4899,-3.4899,-3.5545,-3.629,-3.7036,-3.7781,-3.851,-3.9222,-3.921,-3.9505,-4.0236,-4.0276,-4.059,-4.1229,-4.0737,-4.0478,-4.0355,-3.9134,-3.8497,-3.8497,-3.7838,-3.7524,-3.7539,-3.8048,-3.8317,-3.8347,-3.7689,-3.6761,-3.5714,-3.5564,-3.5504,-3.5504,-3.5504,-3.5504,-3.5504,-3.5504,-3.4986,-3.4177,-3.3492,-3.272,-3.1869,-3.0722,-3.0368,-3.0292,-2.9934,-2.9792,-2.9792,-2.9792,-2.9792,-2.9792,-2.9792,-2.9792,-2.9792,-2.9792,-2.9792,-2.9792,-2.9792,-2.9792,-2.9792,-2.9792,-2.9792,-2.9792,-2.9792,-2.9792,-2.9792,-2.9792,-2.9792,-2.9792,-2.9792,-2.9792,-2.9792,-2.9792,-2.9792,-2.9792,-2.9792,-3.0244,-3.0557,-3.062,-3.1512,-3.2089,-3.2202,-3.2704,-3.3006,-3.3081,-3.2503,-3.2466,-3.298,-3.3533,-3.4085,-3.4663,-3.5755,-3.627,-0.7307,-0.8731,-0.9833,0.0,-1.2674,-1.4653,-1.5247,-1.7839,-2.0264,-2.0935,-2.328,-2.559,-2.7016,-2.9357,-3.146,0.0,-3.3957,-3.4899,-3.4899,-3.4899,-3.4899,-3.4899,-3.5545,-3.629,-3.7036,-3.7384,-3.8046,-3.9189,-3.932,-3.9446,-3.9742,-4.0183,-4.0337,-4.0213,-4.0768,-4.0664,-3.9878,-3.9726,-3.9385,-3.8975,-3.7913,-3.7599,-3.7943,-3.7105,-3.6926,-3.727,-3.6985,-3.6567,-3.6043,-3.5669,-3.5504,-3.5504,-3.5504,-3.5504,-3.5504,-3.5504,-3.4986,-3.4177,-3.3492,-3.2648,-3.1796,-3.0722,-3.0368,-3.0292,-2.9934,-2.9869,-2.9934,-2.9869,-2.9792,-2.9792,-2.9792,-2.9792,-2.9792,-2.9792,-2.9792,-2.9792,-2.9792,-2.9792,-2.9792,-2.9792,-2.9792,-2.9792,-2.9792,-2.9792,-2.9792,-2.9792,-2.9792,-2.9792,-2.9792,-2.9792,-2.9792,-2.9792,-2.9792,-2.993,-3.0244,-3.0482,-3.0884,-3.1512,-3.1964,-3.2365,-3.2704,-3.2955,-3.3081,-3.3081,-3.283,-3.283,-3.3081,-3.3947,-3.45,-3.4751,-3.5855,-3.6358,-0.8291,-0.9383,-1.0179,-1.0857,-1.3021,-1.5106,-1.5523,-1.823,-2.0783,-2.1368,-2.3694,-2.605,-2.7285,-2.9546,-3.1557,-3.276,-3.4022,-3.4899,-3.4899,-3.4899,-3.4982,-3.5181,-3.5678,-3.6373,-3.7317,-3.7235,-3.7715,-3.9156,-3.909,-3.9155,-3.9593,-4.0127,-4.027,-3.9902,-4.0736,-4.0735,-3.9714,-3.9822,-3.9688,-3.9125,-3.7793,-3.7404,-3.7823,-3.6417,-3.6028,-3.6492,-3.6492,-3.6387,-3.6178,-3.5699,-3.5504,-3.5504,-3.5504,-3.5504,-3.5504,-3.5504,-3.4986,-3.4177,-3.3492,-3.2648,-3.1723,-3.081,-3.0444,-3.0381,-3.0011,-3.0011,-3.0088,-2.9869,-2.9792,-2.9792,-2.9792,-2.9792,-2.9792,-2.9792,-2.9792,-2.9792,-2.9792,-2.9792,-2.9792,-2.9792,-2.9792,-2.9792,-2.9792,-2.9792,-2.9792,-2.9792,-2.9792,-2.9792,-2.9792,-2.9792,-2.9792,-2.9792,-2.993,-3.0181,-3.0583,-3.0884,-3.1386,-3.2164,-3.2365,-3.2641,-3.3056,-3.2918,-3.283,-3.283,-3.2692,-3.2767,-3.3081,-3.4035,-3.465,-3.4964,-3.5918,-3.6282,-0.8788,-0.9813,-1.0648,-1.094,-1.2867,-1.4972,-1.6053,-1.8445,-2.078,-2.1873,-2.4084,-2.6034,-2.6722,-2.9229,-3.1399,-3.2127,-3.3746,-3.4899,-3.4899,-3.4899,-3.5164,-3.5876,-3.5992,-3.6572,-3.8046,-3.7533,-3.7715,-3.9156,-3.8642,-3.8874,-4.0299,-4.0382,-4.0696,-4.1335,-4.0759,-4.0408,-4.0402,-3.9063,-3.8446,-3.8407,-3.7135,-3.6522,-3.6552,-3.6492,-3.6462,-3.6492,-3.6492,-3.6118,-3.5534,-3.5519,-3.5504,-3.5504,-3.5504,-3.5504,-3.5504,-3.5504,-3.4986,-3.4177,-3.3492,-3.272,-3.1942,-3.0973,-3.0698,-3.0622,-3.0228,-3.0075,-3.0088,-2.9869,-2.9792,-2.9792,-2.9792,-2.9792,-2.9792,-2.9792,-2.9792,-2.9792,-2.9792,-2.9792,-2.9792,-2.9792,-2.9792,-2.9792,-2.9792,-2.9792,-2.9792,-2.9792,-2.9792,-2.9792,-2.9792,-2.9792,-2.9792,-2.9792,-3.0269,-3.0595,-3.062,-3.1562,-3.2177,-3.2215,-3.2742,-3.3056,-3.3081,-3.2541,-3.224,-3.224,-3.1712,-3.1976,-3.3081,-3.3646,-3.4474,-3.5529,-3.6094,-3.6081,-0.8843,-0.959,-1.0309,-1.1164,-1.2989,-1.4976,-1.6356,-1.858,-2.0574,-2.138,-2.3223,-2.4789,-2.5486,-2.7931,-3.0244,-3.1336,-3.3014,-3.4336,-3.4833,-3.5313,-3.5727,-3.5976,-3.7103,0.0,-3.8162,-3.7549,0.0,-3.9156,-3.8626,-3.8626,-3.9603,-3.9653,-3.9752,-3.9984,-4.0282,-3.9982,-3.9061,-3.9533,-3.9051,-3.7734,-3.73,-3.6656,-3.5848,-3.6297,-3.6252,-3.5833,-3.5833,-3.5714,-3.5504,-3.5504,-3.5504,-3.5504,-3.5504,-3.5198,-3.4677,-3.4677,-3.3905,-3.2847,-3.3143,-3.2376,-3.1334,-3.0849,-3.0773,-3.0761,-3.0228,-3.0228,-3.0228,-2.9869,-2.9792,-2.9792,-2.9792,-2.9792,-2.9792,-2.9792,-2.9792,-2.9792,-2.9792,-2.9792,-2.9792,-2.9792,-2.9792,-2.9792,-2.9792,-2.9792,-2.9792,-2.9792,-2.9792,-2.9792,-2.9792,-2.9792,-2.993,-3.0306,-3.0507,-3.0909,-3.1612,-3.2001,-3.2378,-3.2767,-3.2604,-3.2503,-3.2503,-3.1964,-3.1838,-3.2202,-3.2416,-3.3056,-3.4173,-3.4726,-3.4984,-3.5003,-3.56,-3.5518,-0.8865,-0.9503,-1.0104,-1.1087,-1.2803,-1.4611,-1.6024,-1.8044,-1.9865,-2.0806,-2.2275,-2.3702,-2.4497,-2.6784,-2.9039,-3.0609,-3.2297,-3.3885,-3.5335,-3.5919,-3.6451,-3.7114,-3.8248,-3.8989,-3.8992,-3.8204,0.0,-3.9242,-3.8626,-3.8526,-3.9239,-3.9272,-3.9272,-3.9272,-3.9736,-3.9568,-3.8746,-3.9561,-3.9124,-3.7382,-3.7211,-3.6522,-3.5519,-3.5953,-3.5908,-3.5504,-3.5504,-3.5504,-3.5504,-3.5504,-3.5504,-3.5504,-3.5504,-3.5198,-3.4677,-3.438,-3.3547,-3.2506,-3.272,-3.2028,-3.0986,-3.0849,-3.0911,-3.0911,-3.0457,-3.0368,-3.0292,-3.0011,-2.9869,-2.9792,-2.9792,-2.9792,-2.9792,-2.9792,-2.9792,-2.9792,-2.9792,-2.9792,-2.9792,-2.9792,-2.9792,-2.9792,-2.9792,-2.9955,-3.0093,-3.0093,-3.0244,-3.0294,-3.0118,-3.0093,-3.0294,-3.0834,-3.1072,-3.1461,-3.2152,-3.2215,-3.2365,-3.2742,-3.2227,-3.1913,-3.1913,-3.1399,-3.1461,-3.2202,-3.2579,-3.3407,-3.4726,-3.5278,-3.5145,-3.4583,-3.4826,-3.4661,-0.8799,-0.9484,-1.0053,-1.0843,-1.2259,-1.3856,-1.5276,-1.699,-1.8643,-2.0087,-2.143,-2.2644,-2.3677,-2.5723,-2.7929,-2.995,-3.17,-3.3673,-3.6215,-3.6679,-3.7377,0.0,0.0,0.0,0.0,0.0,0.0,-3.9329,0.0,-3.8526,-3.9239,-3.9272,-3.9272,-3.9272,-3.9272,-3.9298,-3.9273,-3.9156,-3.8562,-3.7318,-3.6748,-3.6118,-3.5504,-3.5504,-3.5504,-3.5504,-3.5504,-3.5504,-3.5504,-3.5504,-3.5504,-3.5504,-3.5504,-3.5439,-3.5279,-3.4543,-3.3754,-3.3017,-3.2304,-3.1603,-3.0986,-3.0986,-3.0986,-3.0986,-3.0773,-3.0533,-3.0368,-3.0152,-2.9934,-2.9792,-2.9792,-2.9792,-2.9792,-2.9792,-2.9792,-2.9792,-2.9792,-2.9792,-2.9792,-2.9792,-2.9792,-2.9804,-2.9829,-3.0244,-3.0583,-3.0608,-3.1009,-3.1135,-3.067,-3.062,-3.0809,-3.1298,-3.1813,-3.2139,-3.2177,-3.2177,-3.2177,-3.2177,-3.165,-3.1348,-3.1348,-3.0791,-3.1029,-3.2106,-3.2084,-3.2934,-3.4582,-3.5132,-3.4891,-3.3982,-3.3982,-3.3397,-0.9058,-0.9554,-1.0053,-1.0992,-1.2172,-1.3554,-1.5223,-1.6638,-1.7921,-1.9031,-2.0486,-2.1661,-2.1951,-2.48,0.0,-2.9288,-3.2048,0.0,-3.6375,-3.7746,0.0,-3.9251,0.0,-4.0521,-4.0383,-4.0158,0.0,0.0,-3.8766,-3.8526,-3.9239,-3.9272,-3.9272,-3.9272,-3.9272,-3.9051,-3.857,-3.7638,-3.7001,-3.6727,-3.6049,-3.5669,-3.5504,-3.5504,-3.5504,-3.5504,-3.5504,-3.5504,-3.5504,-3.5504,-3.5504,-3.5504,-3.5504,-3.4787,-3.3782,-3.3561,-3.2662,-3.1542,-3.1334,-3.1123,-3.0986,-3.0986,-3.0986,-3.0911,-3.0596,-3.0444,-3.0292,-3.0011,-2.9869,-2.9792,-2.9792,-2.9792,-2.9792,-2.9792,-2.9792,-2.9792,-2.9792,-2.9792,-2.9792,-2.9792,-2.9792,-2.993,-3.0331,-3.0181,-3.0143,-3.0557,-3.0382,-3.0294,-3.0583,-3.062,-3.067,-3.0796,-3.0934,-3.1185,-3.1574,-3.1599,-3.1599,-3.1599,-3.1097,-3.0809,-3.0809,-2.9991,-2.9985,-3.0967,-3.1134,-3.1738,-3.3029,-3.3546,-3.3094,-3.1724,-3.2529,-3.2334,-0.8918,-0.9524,-1.0136,-1.122,-1.2115,-1.3137,-1.4842,-1.6019,-1.7024,-1.8003,-1.9282,-2.0495,-2.1197,-2.3866,-2.6709,0.0,0.0,0.0,-3.7029,-3.8608,-3.9727,0.0,-4.0891,0.0,-4.1076,-4.0839,-4.0543,0.0,-3.9292,-3.8858,-3.9255,-3.9272,-3.9272,-3.9272,-3.9272,-3.9148,-3.8717,-3.7488,-3.6863,-3.6873,-3.5978,-3.5504,-3.5504,-3.5504,-3.5504,-3.5504,0.0,-3.5504,-3.5504,-3.5504,-3.5504,-3.5504,-3.5504,-3.4787,-3.363,-3.3283,-3.2448,-3.1468,-3.1123,-3.0986,-3.0986,-3.0986,-3.0986,-3.0911,-3.0609,-3.0444,-3.0292,-3.0011,-2.9869,-2.9792,-2.9792,-2.9792,-2.9792,-2.9792,-2.9792,-2.9792,-2.9792,-2.9792,-2.9792,-2.9792,-2.9792,-2.9892,-3.0206,-3.0193,-3.0256,-3.057,-3.0545,-3.052,-3.0608,-3.062,-3.0708,-3.0934,-3.0947,-3.1072,-3.1361,-3.1185,-3.1047,-3.1047,-3.0344,-2.993,-2.993,-2.9427,-2.964,-3.0672,-3.0928,-3.1533,-3.2443,-3.273,-3.2101,-3.0625,-3.1127,-3.0954,-0.8703,-0.9482,-1.0199,-1.1347,-1.1966,-1.2703,-1.4174,-1.5164,-1.61,-1.7202,0.0,-1.9572,-2.1037,-2.3171,-2.5718,-2.8851,0.0,-3.4532,-3.7866,-3.9307,-4.0405,-4.1472,-4.1639,-4.1771,-4.1881,-4.1384,-4.1024,-4.0908,-3.9952,-3.9379,-3.9272,-3.9272,-3.9272,-3.9272,-3.9272,-3.9218,-3.904,-3.7953,-3.731,-3.7131,-3.6037,-3.5504,-3.5504,-3.5504,-3.5504,-3.5504,-3.5504,-3.5504,-3.5504,-3.5504,-3.5504,-3.5504,-3.5359,-3.4839,-3.4041,-3.3353,-3.2577,-3.1882,-3.1185,-3.0986,-3.0986,-3.0986,-3.0986,-3.0986,-3.0698,-3.0533,-3.0368,-3.0152,-2.9934,-2.9792,-2.9792,-2.9792,-2.9792,-2.9792,-2.9792,-2.9792,-2.9792,-2.9792,-2.9792,-2.9792,-2.9792,-2.9817,-2.9892,-3.0231,-3.0532,-3.0608,-3.0934,-3.1022,-3.0557,-3.057,-3.0758,-3.1135,-3.1185,-3.1185,-3.1185,-3.0678,-3.0336,-3.0336,-2.9452,-2.8892,-2.8892,-2.8948,-2.9511,-3.0603,-3.0868,-3.1377,-3.2052,-3.1984,-3.1289,-2.9937,-3.0068,-2.9746,-0.8734,-0.9364,-0.9636,-1.0561,-1.1643,-1.2622,-1.3331,-1.4409,0.0,0.0,-1.8568,-1.9932,-2.1104,-2.3712,-2.6596,-2.927,-3.1957,-3.4864,-3.8229,-3.9842,-4.0884,0.0,-4.193,-4.2124,-4.193,-4.1556,0.0,0.0,-4.0368,-3.9642,-3.9325,-3.9272,-3.9272,-3.9272,-3.9272,-3.8788,-3.7722,-3.7488,-3.6845,-3.5797,-3.5619,-3.5504,-3.5504,-3.5504,-3.5504,-3.5504,-3.5504,0.0,-3.5504,-3.5504,-3.5504,-3.5424,-3.4758,-3.4041,-3.3283,-3.2577,-3.1809,-3.1198,-3.1048,-3.0986,-3.0986,-3.0986,-3.0986,-3.0911,-3.0596,-3.0444,-3.0292,-2.9934,-2.9869,-2.9792,-2.9792,-2.9792,-2.9792,-2.9792,-2.9792,-2.9792,-2.9792,-2.9792,-2.9792,-2.9792,-2.9792,-2.9942,-3.0394,-3.0168,-3.0093,-3.0545,-3.0306,-3.003,-2.9942,-3.0331,-3.0482,-3.0105,-3.0068,-3.0068,-3.0068,-2.9315,-2.8846,-2.8846,-2.8351,-2.7992,-2.7992,-2.8098,-2.8543,-2.9496,-2.885,-2.8936,-2.9891,-2.95,-2.8968,-2.8342,-2.9115,-2.9213,-0.8107,-0.8896,-0.956,-1.0624,-1.1692,-1.2618,-1.2947,0.0,0.0,0.0,-1.8104,-1.98,-2.143,-2.3867,-2.6398,-2.8721,-3.1141,-3.3905,-3.7391,-3.8912,-4.0289,-4.1795,-4.2164,-4.2273,-4.2269,-4.1907,-4.1618,-4.1558,-4.0685,-4.002,-3.9642,-3.9432,-3.9272,-3.9272,-3.8952,-3.8479,-3.7879,-3.7191,-3.6538,-3.5958,-3.5683,-3.5504,-3.5504,-3.5504,-3.5504,-3.5504,-3.5504,0.0,-3.5504,-3.5504,-3.5279,-3.4839,-3.4461,-3.3616,-3.2577,-3.2218,-3.1603,-3.0986,-3.0986,-3.0986,-3.0986,-3.0986,-3.0986,-3.0898,-3.052,-3.0368,-3.0292,-2.9934,-2.9792,-2.9792,-2.9792,-2.9792,-2.9792,-2.9792,-2.9792,-2.9792,-2.9792,-2.9792,-2.9792,-2.9792,-2.9792,-2.988,-3.0143,-2.9967,-2.988,-3.0143,-2.9539,-2.9131,-2.9131,-2.893,-2.8831,-2.9077,-2.9131,-2.8961,-2.8474,-2.8231,-2.8128,-2.8128,-2.7935,-2.7832,-2.7832,-2.7877,-2.8137,-2.8475,-2.8348,-2.838,-2.8587,-2.8359,-2.8266,-2.8297,-2.8742,-2.9083,-0.7399,-0.8392,-0.942,-1.0557,-1.1573,-1.2476,-1.2844,-1.4053,0.0,-1.629,-1.7945,-1.9872,-2.1916,-2.3918,-2.6007,0.0,-3.0242,-3.2805,-3.6558,-3.8086,-3.9676,-4.2006,-4.2405,0.0,-4.2607,-4.2228,0.0,-4.1828,-4.0938,-4.0237,-3.9781,-3.9484,-3.9272,-3.9272,-3.8772,-3.8407,-3.8108,-3.7131,-3.6492,-3.6196,-3.5733,-3.5504,-3.5504,-3.5504,-3.5504,-3.5504,-3.5504,0.0,0.0,-3.5279,-3.4839,-3.4245,-3.3959,-3.3129,-3.2074,-3.1942,-3.1468,-3.0986,-3.0986,-3.0986,-3.0986,-3.0986,-3.0986,-3.0911,-3.0596,-3.0444,-3.0292,-2.9934,-2.9869,-2.9792,-2.9792,-2.9792,-2.9792,-2.9792,-2.9792,-2.9792,-2.9792,-2.9624,-2.9534,-2.9534,-2.9378,-2.9209,-2.9209,-2.9209,-2.9209,-2.9209,-2.8633,-2.8211,-2.8211,-2.7557,-2.7313,-2.7879,-2.8131,-2.7891,-2.7151,-2.736,-2.7488,-2.7488,-2.7557,-2.7651,-2.7651,-2.7715,-2.7821,-2.7924,-2.8183,-2.8193,-2.7924,-2.7821,-2.8017,-2.8473,-2.8566,-2.9063,-0.6819,-0.7874,-0.8916,-0.9661,-1.0841,-1.2039,-1.2844,0.0,-1.5213,-1.7237,-1.8999,-2.074,-2.2498,-2.409,-2.5979,-2.8556,0.0,-3.2354,-3.6811,-3.8368,-3.9866,-4.2045,0.0,0.0,-4.2609,-4.2408,-4.2279,-4.2264,-4.1086,-4.007,-3.9379,-3.9325,-3.9272,-3.9272,-3.9218,-3.8662,-3.7488,-3.737,-3.6723,-3.5554,-3.5504,-3.5504,-3.5504,-3.5504,-3.5504,-3.5504,-3.5504,0.0,0.0,-3.4677,-3.438,-3.4177,-3.2847,-3.2218,-3.2015,-3.1334,-3.1061,-3.0986,-3.0986,-3.0986,-3.0986,-3.0986,-3.0986,-3.0986,-3.0773,-3.0533,-3.0368,-3.0152,-2.9934,-2.9792,-2.9792,-2.9792,-2.9792,-2.9792,-2.9792,-2.9792,-2.9792,-2.9209,-2.8633,-2.8633,-2.7971,-2.7313,-2.7313,-2.7313,-2.7313,-2.7313,-2.7313,-2.7232,-2.7232,-2.7151,-2.6823,-2.6152,-2.6741,-2.7232,-2.7151,-2.6774,-2.6636,-2.6636,-2.6674,-2.6754,-2.6754,-2.7149,-2.751,-2.7914,-2.7572,-2.7562,-2.7924,-2.7521,-2.7552,-2.7997,-2.8421,-2.8887,-0.6343,-0.7546,-0.8663,-0.9328,-1.0975,-1.2547,-1.2639,0.0,-1.5752,-1.7236,-1.9033,-2.0952,-2.3124,-2.4409,-2.5848,-2.7889,-2.8529,-3.0246,-3.444,-3.5818,-3.7585,-4.0811,-4.1791,0.0,0.0,0.0,-4.202,-4.1356,-4.0714,-4.0104,-3.9448,-3.9325,-3.9272,-3.9272,-3.8898,-3.8311,-3.7429,-3.7011,-3.6383,-3.5504,-3.5504,-3.5504,-3.5504,-3.5504,-3.5504,-3.5504,-3.5504,0.0,0.0,-3.461,-3.4041,-3.3561,-3.2506,-3.1809,-3.1394,-3.1123,-3.0986,-3.0986,-3.0986,-3.0986,-3.0986,-3.0986,-3.0986,-3.0986,-3.0773,-3.0533,-3.0368,-3.0152,-2.9934,-2.9792,-2.9792,-2.9792,-2.9792,-2.9792,-2.9792,-2.9792,-2.9792,-2.9131,-2.8462,-2.8462,-2.7718,-2.7069,-2.7069,-2.7069,-2.7069,-2.7069,-2.6648,-2.6318,-2.6318,-2.5841,-2.5443,-2.502,-2.5841,-2.608,-2.56,-2.587,-2.6119,-2.6119,-2.6649,-2.6982,-2.6982,-2.7158,-2.7345,-2.7521,-2.7345,-2.7345,-2.7521,-2.7614,-2.7893,-2.8349,-2.8814,-2.928,-0.6063,-0.7405,-0.8745,-0.9163,-1.1051,-1.2859,-1.2927,-1.4459,-1.6239,-1.7645,-1.9407,-2.137,-2.3513,-2.4654,-2.5782,0.0,-2.7994,-2.95,-3.3213,-3.486,-3.6952,-4.0456,0.0,-4.2282,0.0,-4.2444,-4.1764,-4.0782,-4.0468,-4.0003,-3.9237,-3.9063,-3.8957,-3.8957,-3.8728,-3.8084,-3.7069,-3.6796,-3.6321,-3.5504,-3.5504,-3.5504,-3.5504,-3.5504,-3.5504,-3.5504,-3.5504,0.0,0.0,-3.4327,-3.3561,-3.2791,-3.2087,-3.1468,-3.0986,-3.0986,-3.0986,-3.0986,-3.0986,-3.0986,-3.0986,-3.0986,-3.0986,-3.0986,-3.0849,-3.0609,-3.0368,-3.0228,-3.0011,-2.9792,-2.9792,-2.9792,-2.9792,-2.9792,-2.9624,-2.9378,-2.9378,-2.8542,-2.7718,-2.7718,-2.6987,-2.6329,-2.6329,-2.6329,-2.6329,-2.6329,-2.5841,-2.5421,-2.5421,-2.4861,-2.454,-2.454,-2.502,-2.5189,-2.454,-2.5357,-2.5875,-2.5875,-2.6744,-2.7262,-2.7262,-2.7262,-2.7262,-2.7262,-2.7262,-2.7324,-2.7458,-2.7769,-2.8235,-2.8825,-2.9156,-2.9559,-0.6063,-0.7646,-0.9187,-0.9169,-1.0767,-1.2661,-1.406,-1.5196,-1.6561,-1.8649,-2.0487,-2.2133,-2.3628,-2.4703,-2.59,-2.747,-2.8923,-3.0991,-3.4141,-3.6648,-3.9044,0.0,0.0,-4.2882,-4.2882,-4.229,-4.1648,-4.1039,-4.0453,0.0,-3.8487,-3.8264,-3.8228,-3.8228,-3.8907,-3.8335,-3.6316,-3.7038,-3.6723,-3.5504,-3.5504,-3.5504,-3.5504,-3.5504,-3.5504,-3.5504,0.0,0.0,0.0,-3.3492,-3.2791,-3.2015,-3.1334,-3.0986,-3.0986,-3.0986,-3.0986,-3.0986,-3.0986,-3.0986,-3.0986,-3.0986,-3.0986,-3.0986,-3.0986,-3.0761,-3.0368,-3.0368,-3.0075,-2.9792,-2.9792,-2.9792,-2.9792,-2.9792,-2.9131,-2.8542,-2.8542,-2.7058,-2.5819,-2.5819,-2.5094,-2.454,-2.454,-2.454,-2.454,-2.454,-2.454,-2.454,-2.454,-2.454,-2.454,-2.454,-2.454,-2.454,-2.454,-2.5357,-2.5875,-2.5875,-2.6744,-2.7262,-2.7262,-2.7262,-2.7262,-2.7262,-2.7262,-2.7479,-2.7914,-2.7924,-2.839,-2.9301,-2.9301,-2.9559,-0.5835,-0.7269,-0.8815,-0.9488,-1.126,-1.3182,-1.4728,-1.5992,-1.7289,-1.8905,-2.0526,-2.2194,-2.3746,-2.4804,-2.6303,-2.8937,-3.0177,0.0,-3.4972,0.0,0.0,-4.0673,-4.2103,-4.2846,0.0,0.0,-4.1461,-4.0446,-3.9756,-3.8908,-3.7836,-3.7552,-3.7466,-3.7466,-3.7744,-3.7132,-3.5631,-3.6313,-3.6075,-3.4801,-3.528,-3.5504,-3.5504,-3.5504,-3.5504,0.0,0.0,0.0,0.0,-3.2989,-3.229,-3.2015,-3.1259,-3.0986,-3.0986,-3.0986,-3.0986,-3.0986,-3.0986,-3.0986,-3.0986,-3.0986,-3.0986,-3.0986,-3.0986,-3.0748,-3.0203,-2.9328,-2.9028,-2.8791,-2.8131,-2.7971,-2.7971,-2.7971,-2.7718,-2.7557,-2.7557,-2.6648,-2.5819,-2.5819,-2.5105,-2.454,-2.454,-2.454,-2.454,-2.454,-2.454,-2.454,-2.454,-2.454,-2.454,-2.454,-2.483,-2.5016,-2.5016,-2.5544,-2.602,-2.633,-2.692,-2.7262,-2.7262,-2.7262,-2.7262,-2.7262,-2.7262,-2.7479,-2.7924,-2.8245,-2.8866,-2.9777,-2.9777,-2.986,-0.6464,-0.7644,-0.898,-1.003,-1.175,-1.3649,-1.5361,-1.652,-1.7656,-1.932,-2.0768,-2.2194,-2.3819,-2.4874,-2.6404,-2.9211,-3.0318,0.0,0.0,0.0,0.0,-4.1139,0.0,0.0,0.0,-4.2013,-4.1237,-4.0038,-3.9255,-3.8321,-3.723,-3.6887,-3.6506,-3.5992,-3.6548,-3.621,-3.4905,-3.5388,-3.5156,-3.4113,-3.4786,-3.5115,-3.513,-3.5385,-3.5344,0.0,0.0,0.0,0.0,-3.2492,-3.1942,-3.1676,-3.1198,-3.0986,-3.0986,-3.0986,-3.0986,-3.0986,-3.0986,-3.0986,-3.0986,-3.0986,-3.0911,-3.0836,-3.0836,-3.0596,-3.0126,-2.8858,-2.8462,-2.8291,-2.7313,-2.7069,-2.7069,-2.7069,-2.6812,-2.6565,-2.6565,-2.5913,-2.5348,-2.5348,-2.4861,-2.454,-2.454,-2.454,-2.454,-2.454,-2.454,-2.454,-2.454,-2.454,-2.4612,-2.4788,-2.5068,-2.5368,-2.5709,-2.5978,-2.6258,-2.6548,-2.7003,-2.7262,-2.7262,-2.7262,-2.7262,-2.7262,-2.7262,-2.7562,-2.8183,-2.8825,-2.9435,-2.9994,-2.9994,-2.9994,0.0,-0.8578,-0.9519,-1.0804,-1.2334,-1.405,-1.5956,-1.6849,0.0,-1.9781,-2.1038,-2.2283,-2.3952,-2.4991,-2.6387,-2.8817,-2.9916,0.0,0.0,-3.7496,0.0,0.0,-4.2882,0.0,-4.2281,-4.1751,-4.0926,-3.9751,-3.8923,-3.7869,-3.6569,-3.6169,-3.5383,-3.4251,-3.5351,-3.5369,-3.4101,-3.4244,-3.4013,-3.344,-3.4098,-3.4427,-3.4502,-3.51,-3.4963,0.0,0.0,0.0,0.0,-3.2015,-3.1603,-3.0986,-3.0986,-3.0986,-3.0986,-3.0986,-3.0986,-3.0986,-3.0986,-3.0986,-3.0986,-3.0986,-3.0836,-3.0533,-3.0368,-3.0292,-3.005,-2.8779,-2.8383,-2.8131,-2.7151,-2.6905,-2.6905,-2.6905,-2.6318,-2.5746,-2.5746,-2.5105,-2.454,-2.454,-2.454,-2.454,-2.454,-2.454,-2.454,-2.454,-2.454,-2.454,-2.454,-2.454,-2.4716,-2.5181,-2.5166,-2.5537,-2.6403,-2.6568,-2.6579,-2.661,-2.7024,-2.7262,-2.7262,-2.7262,-2.7262,-2.7262,-2.7324,-2.7769,-2.8618,-2.9539,-2.9994,-2.9994,-2.9994,-2.9994,-0.9382,0.0,-1.0073,-1.169,-1.3059,-1.4569,0.0,-1.7668,-1.872,-1.9936,-2.1244,-2.2904,-2.5361,-2.6089,-2.7674,-3.1755,-3.3144,-3.4839,-3.8112,-4.045,0.0,-4.281,-4.2882,-4.2842,-4.276,-4.1478,-4.0323,-3.9477,-3.7882,-3.6609,-3.5795,-3.5355,-3.4856,-3.4235,-3.4037,-3.3556,-3.285,-3.3406,-3.3412,-3.2751,-3.341,-3.3978,-3.4472,-3.4128,-3.409,0.0,0.0,0.0,-3.2087,-3.1455,-3.1123,-3.0986,-3.0986,-3.0986,-3.0986,-3.0986,-3.0986,-3.0986,-3.0986,-3.0986,-3.0986,-3.0849,-3.0279,-2.9626,-2.9263,-2.9184,-2.8937,-2.7718,-2.6976,-2.6246,-2.5359,-2.5105,-2.5105,-2.5105,-2.4946,-2.4775,-2.4775,-2.4615,-2.454,-2.454,-2.454,-2.454,-2.454,-2.454,-2.454,-2.454,-2.454,-2.454,-2.454,-2.454,-2.4716,-2.5181,-2.4796,-2.475,-2.5283,-2.6093,-2.6724,-2.7076,-2.72,-2.7262,-2.7262,-2.7262,-2.7262,-2.7262,-2.7945,-2.84,-2.8618,-2.9539,-2.9994,-2.9994,-2.9994,-2.9994,-1.0482,-1.0778,-1.1015,-1.3401,-1.4449,-1.5458,-1.7722,-1.8515,-1.9109,-2.0566,-2.1641,-2.3083,-2.5633,-2.6671,-2.8439,-3.2347,-3.381,0.0,0.0,0.0,-4.2882,-4.2882,-4.2882,-4.2711,0.0,-4.1117,-3.9922,-3.8762,-3.733,-3.6202,-3.5599,-3.5182,-3.4658,-3.3969,-3.3443,-3.2949,-3.2398,-3.2506,-3.2422,-3.2078,-3.2736,-3.3093,-3.3096,-3.3051,-3.2867,0.0,0.0,0.0,-3.0802,-3.0408,-3.0359,-3.0594,-3.0594,-3.0764,-3.0986,-3.0986,-3.0986,-3.0898,-3.0508,-3.0101,-2.9793,-2.9716,-2.9225,-2.8597,-2.8383,-2.7891,-2.7302,-2.6648,-2.6152,-2.5579,-2.47,-2.454,-2.454,-2.454,-2.454,-2.454,-2.454,-2.454,-2.454,-2.454,-2.454,-2.454,-2.454,-2.454,-2.454,-2.454,-2.454,-2.454,-2.454,-2.4726,-2.5037,-2.5482,-2.5462,-2.5341,-2.5303,-2.5829,-2.632,-2.6562,-2.6572,-2.6572,-2.6572,-2.6071,-2.6071,-2.6572,-2.6933,-2.7369,-2.7784,-2.8242,-2.8349,-2.8349,-2.8349,-2.8349,-1.1404,-1.2025,-1.2621,-1.5257,-1.5964,-1.6628,-1.8875,0.0,0.0,0.0,0.0,0.0,0.0,-2.7321,0.0,0.0,0.0,0.0,-3.9487,-4.1605,-4.2806,-4.2882,-4.2774,0.0,-4.1523,-4.0602,-3.9443,-3.7942,-3.6979,-3.6177,-3.5628,-3.5165,-3.4545,-3.3598,-3.3235,-3.2841,-3.2287,-3.1754,-3.1482,-3.1482,-3.2093,-3.2034,-3.1544,-3.1995,-3.1517,-3.0378,0.0,0.0,-2.9274,-2.9274,-2.9562,-3.0019,-3.0098,-3.0424,-3.0869,-3.096,-3.0986,-3.0911,-3.0024,-2.9147,-2.8426,-2.8347,-2.8028,-2.7637,-2.7557,-2.6648,-2.5579,-2.5579,-2.5579,-2.5421,-2.47,-2.454,-2.454,-2.454,-2.4506,-2.4654,-2.4654,-2.4695,-2.4726,-2.4664,-2.4654,-2.4654,-2.4654,-2.4471,-2.4405,-2.4467,-2.4303,-2.4206,-2.4206,-2.454,-2.5035,-2.5462,-2.5756,-2.569,-2.5256,-2.5197,-2.5197,-2.5197,-2.5392,-2.5489,-2.5489,-2.459,-2.4492,-2.5392,-2.5302,-2.5722,-2.6637,-2.6523,-2.6481,-2.6481,-2.6481,-2.6481,-1.2479,-1.4468,-1.5666,-1.5767,-1.6877,-1.8072,-1.867,-1.9699,0.0,0.0,0.0,0.0,0.0,-2.9022,-3.1134,0.0,0.0,-3.9381,0.0,0.0,-4.2458,-4.2844,0.0,-4.1681,-4.1194,-3.9517,-3.8209,-3.7629,-3.6384,-3.5609,-3.5537,-3.4754,-3.407,-3.3443,-3.2841,-3.2231,-3.164,-3.1539,-3.1482,-3.1482,-3.1571,-3.159,-3.1453,-3.1018,-3.0644,-3.0351,0.0,-2.9468,-2.9274,-2.9274,-2.9327,-2.9457,-2.9941,-3.0189,-3.032,-3.0803,-3.0986,-3.0911,-3.0024,-2.9147,-2.8347,-2.8211,-2.7476,-2.6648,-2.6505,-2.5611,-2.47,-2.47,-2.47,-2.47,-2.454,-2.454,-2.454,-2.454,-2.484,-2.513,-2.513,-2.5409,-2.5564,-2.5192,-2.513,-2.513,-2.513,-2.4295,-2.3859,-2.4242,-2.3537,-2.2973,-2.2973,-2.3029,-2.3214,-2.3727,-2.3069,-2.2689,-2.2994,-2.302,-2.302,-2.302,-2.38,-2.4393,-2.4393,-2.4196,-2.4187,-2.4393,-2.4997,-2.5411,-2.5515,-2.6203,-2.6481,-2.6481,-2.6481,-2.6481,-1.3379,-1.5847,-1.7471,-1.8265,-1.8963,-1.9696,-2.0553,-2.1305,0.0,0.0,0.0,0.0,0.0,0.0,-3.24,-3.6033,0.0,-4.0333,-4.1147,-4.1416,-4.1733,0.0,0.0,-4.0548,-4.0116,-3.8684,-3.7594,-3.7148,-3.6152,-3.5396,-3.5038,-3.4577,-3.3919,-3.3002,-3.2586,-3.212,-3.1539,-3.1482,-3.1482,-3.1482,-3.1146,-3.0804,-3.0425,-2.9721,-2.9206,-2.8825,0.0,-2.833,-2.8333,-2.8333,-2.8516,-2.8856,-2.9444,-2.9862,-3.0129,-3.0213,-3.0024,-2.9471,-2.8597,-2.781,-2.701,-2.6846,-2.6351,-2.5757,-2.5527,-2.5031,-2.454,-2.454,-2.454,-2.454,-2.454,-2.454,-2.454,-2.454,-2.4892,-2.5233,-2.5233,-2.5575,-2.5823,-2.5616,-2.5585,-2.5396,-2.4847,-2.4283,-2.3876,-2.3513,-2.3065,-2.268,-2.268,-2.2871,-2.3176,-2.3359,-2.3197,-2.2918,-2.2509,-2.2526,-2.2526,-2.2526,-2.292,-2.3011,-2.2409,-2.2409,-2.261,-2.3211,-2.3462,-2.3851,-2.4377,-2.4493,-2.4642,-2.4642,-2.4642,-2.4642,-1.4182,-1.6938,-1.9146,-2.0961,0.0,-2.1366,-2.2776,-2.3206,0.0,0.0,0.0,0.0,0.0,-3.1716,0.0,-3.7739,-3.9333,-4.0366,-4.1006,-4.0764,-4.0753,-4.123,-4.0285,-3.9437,-3.8977,-3.7895,-3.7006,-3.6547,-3.5807,-3.5178,-3.4657,-3.4219,-3.3614,-3.2641,-3.2327,-3.1966,-3.1524,-3.1351,-3.1278,-3.1278,-3.0777,-3.0086,-2.9268,-2.8712,-2.8091,-2.7523,-2.7523,-2.7523,-2.7523,-2.7523,-2.7785,-2.8242,-2.883,-2.9353,-2.9709,-2.9352,-2.8802,-2.8039,-2.7418,-2.6622,-2.5895,-2.5654,-2.538,-2.52,-2.4946,-2.47,-2.454,-2.454,-2.454,-2.454,-2.454,-2.454,-2.454,-2.454,-2.4892,-2.5254,-2.5357,-2.554,-2.5666,-2.5666,-2.5473,-2.5095,-2.4253,-2.3879,-2.3439,-2.2772,-2.2398,-2.2302,-2.2302,-2.2567,-2.285,-2.285,-2.3116,-2.3011,-2.2224,-2.2131,-2.2131,-2.2131,-2.2131,-2.1725,-2.0917,-2.0925,-2.1326,-2.2131,-2.1941,-2.2298,-2.3224,-2.3019,-2.2934,-2.3014,-2.3014,-2.3014,-1.4765,-1.8215,-2.1282,-2.3044,-2.2942,0.0,-2.4549,-2.522,0.0,-2.8967,0.0,0.0,0.0,-3.4729,-3.756,-3.9227,-3.9635,-3.9733,-3.9813,0.0,-3.9476,-3.995,-3.9292,-3.862,-3.8227,-3.7095,-3.6217,-3.5707,-3.5148,-3.4785,-3.4691,-3.3578,-3.2788,-3.2602,-3.191,-3.1524,-3.1482,-3.0896,-3.0584,-3.0584,-3.0524,-2.9842,-2.8597,-2.8546,-2.8091,-2.7523,-2.7523,-2.7523,-2.7523,-2.7523,-2.7562,-2.7641,-2.8216,-2.8666,-2.885,-2.813,-2.7613,-2.7255,-2.7185,-2.6622,-2.5895,-2.5654,-2.538,-2.52,-2.4946,-2.47,-2.454,-2.454,-2.454,-2.454,-2.454,-2.454,-2.454,-2.454,-2.4892,-2.5347,-2.574,-2.544,-2.5094,-2.5094,-2.4212,-2.3533,-2.3437,-2.2682,-2.2128,-2.249,-2.1643,-2.1041,-2.1041,-2.1065,-2.1081,-2.1081,-2.1105,-2.1121,-2.1019,-2.1019,-2.1019,-2.1019,-2.1019,-2.1019,-2.0925,-2.0925,-2.0917,-2.1019,-2.129,-2.164,-2.2172,-2.2448,-2.2696,-2.3014,-2.3014,-2.3014,-1.6593,-1.9529,-2.1953,-2.4372,-2.5314,0.0,0.0,-2.6825,-2.7879,-3.0435,-3.1314,0.0,0.0,0.0,-3.6703,-3.8033,-3.8425,-3.8704,-3.8974,-3.8495,-3.8231,-3.874,-3.7853,-3.7155,-3.7009,-3.5899,-3.5129,-3.4912,-3.4286,-3.3553,-3.274,-3.2187,-3.1509,-3.0776,-3.0463,-3.0507,-3.0881,-3.0236,-2.988,-2.9889,-2.947,-2.8967,-2.8481,-2.8105,-2.7723,-2.7523,-2.7523,-2.7523,-2.7523,-2.7523,-2.7255,-2.682,-2.6934,-2.7434,-2.8005,-2.7155,-2.7034,-2.7103,-2.6539,-2.6052,-2.5644,-2.5464,-2.5211,-2.4946,-2.47,-2.4625,-2.4368,-2.381,-2.3637,-2.3734,-2.4368,-2.409,-2.3637,-2.3637,-2.3536,-2.3606,-2.3909,-2.4051,-2.4143,-2.4406,-2.4161,-2.3663,-2.2991,-2.2503,-2.2063,-2.1607,-2.1121,-2.0925,-2.0925,-2.0925,-2.0925,-2.0925,-2.0925,-2.0925,-2.0925,-2.0925,-2.0925,-2.0925,-2.0925,-2.0925,-2.0925,-2.0925,-2.0925,-2.0925,-2.1266,-2.1513,-2.1648,-2.2212,-2.2561,-2.2696,-2.2911,-2.3014,-1.7721,-2.0524,-2.2793,-2.5516,0.0,0.0,-2.8763,-2.9264,-3.0178,-3.2386,-3.3507,-3.4338,-3.5363,0.0,0.0,0.0,-3.7502,-3.7674,-3.7991,-3.7455,-3.717,-3.7504,-3.6596,-3.5939,-3.5939,-3.4874,-3.415,-3.4124,-3.3349,-3.2438,-3.1534,-3.1097,-3.049,-2.9672,-2.9633,-2.9719,-2.9915,-2.9261,-2.8919,-2.8914,-2.8248,-2.8048,-2.8157,-2.7723,-2.7523,-2.7523,-2.7523,-2.7523,-2.7456,-2.7255,-2.6701,-2.6037,-2.5589,-2.6071,-2.6931,-2.6085,-2.621,-2.6704,-2.6146,-2.5738,-2.5559,-2.5295,-2.5031,-2.4775,-2.4262,-2.409,-2.382,-2.2921,-2.2658,-2.2843,-2.3474,-2.3105,-2.2658,-2.2658,-2.2447,-2.241,-2.2795,-2.3008,-2.3125,-2.352,-2.3302,-2.2911,-2.2123,-2.2021,-2.1725,-2.1019,-2.0925,-2.0925,-2.0925,-2.0925,-2.0925,-2.0925,-2.0925,-2.0925,-2.0925,-2.0925,-2.0925,-2.0925,-2.0925,-2.0925,-2.0925,-2.0925,-2.0925,-2.0925,-2.1163,-2.1338,-2.1449,-2.1926,-2.2267,-2.249,-2.2736,-2.2911,-1.7869,-2.1057,-2.4074,-2.6455,0.0,0.0,-3.1885,-3.2664,-3.3421,-3.522,-3.6291,-3.6781,-3.6367,-3.7206,0.0,-3.7431,-3.7041,-3.6772,-3.6772,-3.6481,-3.6284,-3.6284,-3.5652,-3.5186,-3.5186,-3.4106,-3.3364,-3.3287,-3.2422,-3.1756,-3.1502,-3.0541,-2.9925,-2.9803,-2.9657,-2.9262,-2.8679,-2.8025,-2.769,-2.7713,-2.7033,-2.6974,-2.7523,-2.7523,-2.7523,-2.7523,-2.7523,-2.7523,-2.7456,-2.6701,-2.5931,-2.5229,-2.4409,-2.4677,-2.5515,-2.478,-2.5087,-2.5895,-2.5884,-2.5728,-2.5559,-2.5285,-2.502,-2.468,-2.3444,-2.3096,-2.2921,-2.1961,-2.1695,-2.1695,-2.1695,-2.1695,-2.1695,-2.1695,-2.1916,-2.2309,-2.2786,-2.2346,-2.1875,-2.2349,-2.1623,-2.0925,-2.0925,-2.0925,-2.0925,-2.0925,-2.0925,-2.0925,-2.0925,-2.0925,-2.0925,-2.0917,-2.0917,-2.0925,-2.0925,-2.0925,-2.0925,-2.0925,-2.0925,-2.0925,-2.0925,-2.0925,-2.0925,-2.0925,-2.0925,-2.1091,-2.1449,-2.1449,-2.1806,-2.2474,-2.2482,-2.2672,-1.9511,-2.2164,-2.4574,-2.7981,0.0,0.0,0.0,-3.3567,0.0,0.0,-3.6284,-3.6451,-3.6343,-3.6303,0.0,-3.6586,-3.6256,-3.596,-3.596,-3.5433,-3.5027,-3.5027,-3.438,-3.3921,-3.3921,-3.3051,-3.2345,-3.1971,-3.1101,-3.0229,-2.9422,-2.9018,-2.8636,-2.8261,-2.7779,-2.7681,-2.801,-2.6917,-2.6581,-2.706,-2.636,-2.6582,-2.7523,-2.7523,-2.7523,-2.7523,-2.7523,-2.7188,-2.662,-2.5334,-2.4624,-2.442,-2.3632,-2.3674,-2.4249,-2.4029,-2.4563,-2.5338,-2.5022,-2.5081,-2.5147,-2.4031,-2.371,-2.3444,-2.2394,-2.2129,-2.1952,-2.097,-2.0701,-2.0529,-1.9812,-1.9637,-1.9812,-2.0529,-2.0252,-1.9961,-2.0679,-2.0613,-2.0687,-2.1306,-2.1121,-2.0925,-2.0925,-2.0925,-2.0925,-2.0925,-2.0925,-2.0925,-2.0925,-2.0925,-2.0712,-2.0094,-2.0094,-1.9783,-1.9153,-1.9153,-1.9153,-1.9153,-1.9153,-1.9672,-2.0814,-2.0925,-2.0925,-2.0925,-2.0925,-2.0972,-2.1084,-2.133,-2.156,-2.1767,-2.2259,-2.2545,-2.0826,-2.3222,0.0,-2.8676,-3.0387,-3.1857,-3.4108,0.0,0.0,0.0,-3.563,-3.555,-3.5197,-3.5053,0.0,-3.5112,-3.4899,-3.4742,-3.4742,-3.4353,-3.4066,-3.4066,-3.3406,-3.2949,-3.2949,-3.2191,-3.1433,-3.0935,-3.0196,-2.9377,-2.8448,-2.8222,-2.7845,-2.7255,-2.6893,-2.6697,-2.6635,-2.585,-2.5702,-2.6103,-2.5656,-2.5955,-2.6857,-2.7079,-2.7115,-2.704,-2.6769,-2.6195,-2.5405,-2.4469,-2.3902,-2.3621,-2.3139,-2.3296,-2.3733,-2.3733,-2.4146,-2.4756,-2.4483,-2.4296,-2.4093,-2.3217,-2.2744,-2.2394,-2.1418,-2.115,-2.097,-1.9994,-1.972,-1.9538,-1.892,-1.8827,-1.8912,-1.9538,-1.9385,-1.9193,-1.9749,-1.9971,-2.0241,-2.0813,-2.0925,-2.0925,-2.0925,-2.0925,-2.0925,-2.0925,-2.0925,-2.0925,-2.0925,-2.0925,-2.0609,-1.9783,-1.968,-1.9368,-1.8422,-1.8422,-1.8422,-1.8422,-1.8422,-1.884,-1.9879,-2.0197,-2.0403,-2.0403,-2.0719,-2.0925,-2.0925,-2.1139,-2.1314,-2.1457,-2.1878,-2.2148,-2.1764,-2.4197,-2.5984,-2.8804,-3.0979,0.0,-3.5042,-3.5201,-3.4886,-3.4666,0.0,-3.4279,-3.3515,-3.3686,-3.3831,-3.3473,-3.3406,-3.3406,-3.3406,-3.3339,-3.3305,-3.3305,-3.2645,-3.2171,-3.2131,-3.1402,-3.0658,-3.0038,-2.954,-2.8996,-2.824,-2.791,-2.7408,-2.6736,-2.663,-2.6028,-2.5005,-2.4948,-2.4945,-2.4896,-2.4896,-2.5197,-2.5772,-2.6386,-2.658,-2.6346,-2.5511,-2.4791,-2.4108,-2.4047,-2.3632,-2.3001,-2.3001,-2.3274,-2.3656,-2.3591,-2.3807,-2.405,-2.3928,-2.3339,-2.2646,-2.2477,-2.2083,-2.1373,-2.0421,-2.0158,-1.9985,-1.9096,-1.8827,-1.8827,-1.8827,-1.8827,-1.8827,-1.8827,-1.9082,-1.9415,-1.9749,-2.0098,-2.0448,-2.0805,-2.0901,-2.0925,-2.0925,-2.0822,-2.0719,-2.0712,-2.0712,-2.0712,-2.0712,-2.0712,-2.0403,-1.9569,-1.9465,-1.9153,-1.8213,-1.8213,-1.8213,-1.8213,-1.8213,-1.8213,-1.8213,-1.9049,-1.9576,-1.9576,-2.03,-2.0712,-2.0712,-2.0712,-2.0877,-2.1296,-2.1328,-2.151,-2.2186,-2.4694,0.0,-2.9609,-3.1979,-3.3675,-3.3857,-3.3824,-3.3927,-3.4475,-3.4086,-3.3598,-3.3448,-3.3473,-3.3515,-3.3406,-3.3406,-3.3406,-3.3406,-3.2899,-3.2527,-3.2527,-3.1884,-3.1291,-3.0916,-3.0518,-2.9935,-2.9058,-2.8717,-2.8304,-2.776,-2.724,-2.6893,-2.6736,-2.5811,-2.5216,-2.5005,-2.4505,-2.4294,0.0,-2.4295,-2.4596,-2.5184,-2.6203,-2.658,-2.6346,-2.4981,-2.4264,-2.4047,-2.3486,-2.3139,-2.3001,-2.3001,-2.3067,-2.3154,-2.3004,-2.2762,-2.2553,-2.1947,-2.162,-2.1277,-2.0434,-2.0112,-1.9961,-1.9364,-1.9096,-1.9096,-1.8827,-1.8827,-1.8827,-1.8827,-1.8827,-1.8827,-1.8827,-1.8891,-1.9042,-1.9399,-1.9741,-2.0083,-2.044,-2.0734,-2.0925,-2.0925,-2.0403,-1.9783,-1.9049,-1.8945,-1.8945,-1.8945,-1.8945,-1.8624,-1.7779,-1.7779,-1.7358,-1.6524,-1.6418,-1.6418,-1.6418,-1.6418,-1.6418,-1.6418,-1.7891,-1.8632,-1.8632,-1.884,-1.8945,-1.8945,-1.8945,-1.9294,-2.0104,-2.037,-2.0855,-2.2137,0.0,0.0,-3.0551,0.0,-3.2959,-3.3112,-3.2873,-3.2717,-3.3117,-3.2882,-3.2548,-3.2381,-3.2357,-3.2357,-3.2357,-3.2357,-3.2357,-3.2357,-3.1823,-3.139,-3.1349,-3.0792,-3.0293,-2.9978,-2.9789,-2.939,-2.8638,-2.84,-2.7963,-2.7203,-2.6893,-2.6457,-2.592,-2.5328,-2.4835,-2.4563,-2.4287,-2.3923,-2.3603,-2.3603,-2.3777,-2.4041,-2.4872,-2.514,-2.4903,-2.3715,-2.3346,-2.3559,-2.3139,-2.3001,-2.3001,-2.2927,-2.2777,-2.2553,-2.208,-2.1604,-2.1144,-2.0605,-2.0151,-1.9719,-1.9417,-1.9141,-1.8978,-1.8808,-1.8827,-1.8827,-1.8827,-1.8827,-1.8827,-1.8827,-1.8827,-1.8827,-1.8827,-1.8827,-1.883,-1.8799,-1.9008,-1.9077,-1.9275,-1.9408,-1.958,-1.9642,-1.9361,-1.8945,-1.8422,-1.8422,-1.8422,-1.8422,-1.8422,-1.8101,-1.7252,-1.7252,-1.6836,-1.5992,-1.5891,-1.5891,-1.5891,-1.5891,-1.5891,-1.5891,-1.6736,-1.7364,-1.7786,-1.8213,-1.8422,-1.8422,-1.8422,-1.8632,-1.9056,-1.9223,-1.9513,-2.1716,0.0,-2.7312,-3.0916,-3.1674,0.0,-3.2504,-3.2196,-3.1677,-3.1677,-3.164,-3.1524,-3.1269,-3.119,-3.119,-3.119,-3.1112,-3.1055,-3.1055,-3.0601,-3.0251,-3.0166,-2.9805,-2.9496,-2.9316,-2.9164,-2.8888,-2.8415,-2.8158,-2.7665,-2.6721,-2.651,-2.5974,-2.5005,-2.4892,-2.462,-2.4112,-2.3995,-2.3662,-2.3088,-2.2955,-2.2837,-2.2683,-2.309,-2.3293,-2.327,-2.2528,-2.2455,-2.2881,-2.2881,-2.2936,-2.3001,-2.2617,-2.2241,-2.1863,-2.1145,-2.043,-1.9806,-1.9432,-1.886,-1.8304,-1.8752,-1.8584,-1.8287,-1.87,-1.8827,-1.8827,-1.8827,-1.8827,-1.8735,-1.8643,-1.8635,-1.8542,-1.845,-1.8458,-1.8342,-1.8138,-1.8052,-1.7955,-1.7881,-1.7964,-1.8037,-1.815,-1.8213,-1.8108,-1.8003,-1.8003,-1.8003,-1.8003,-1.8003,-1.7681,-1.7041,-1.6942,-1.673,-1.5998,-1.5891,-1.5891,-1.5891,-1.5891,-1.5891,-1.5891,-1.5891,-1.6205,-1.6935,-1.7681,-1.8003,-1.8003,-1.8003,-1.8003,-1.8213,-1.8213,-1.8318,-2.1075,0.0,-2.7604,0.0,-3.0488,-3.121,0.0,0.0,-3.1677,0.0,-3.1449,-3.1252,-3.119,-3.119,-3.119,-3.119,-3.074,-3.0435,-3.0435,-2.9935,-2.954,-2.954,-2.9451,-2.9271,-2.8826,-2.8685,-2.8415,-2.7925,-2.7291,-2.6878,-2.6736,-2.5756,-2.5174,-2.5005,-2.4505,-2.4171,-2.4112,-2.3531,-2.3207,-2.3088,-2.2531,-2.1901,-2.1354,-2.1423,-2.1978,-2.2731,-2.2007,-2.1964,-2.2411,-2.2411,-2.2641,-2.2916,-2.1983,-2.1517,-2.1364,-2.0216,-1.9265,-1.8541,-1.831,-1.7635,-1.707,-1.7728,-1.789,-1.7962,-1.8629,-1.8827,-1.8827,-1.8827,-1.8827,-1.8635,-1.7978,-1.7878,-1.7692,-1.7052,-1.6864,-1.7059,-1.765,-1.7501,-1.7237,-1.7218,-1.7668,-1.7832,-1.741,-1.7358,-1.7153,-1.6311,-1.6205,-1.6205,-1.6205,-1.6205,-1.6205,-1.6099,-1.6099,-1.5992,-1.5891,-1.5891,-1.5891,-1.5891,-1.5891,-1.5891,-1.5891,-1.5891,-1.5998,-1.6099,-1.6205,-1.6205,-1.6205,-1.6205,-1.6624,-1.7358,-1.7358,-1.7779,-2.2628,-2.5042,-2.7112,0.0,-2.9903,-3.0352,-3.0794,-3.0851,-3.0794,-3.0794,-3.0666,-3.0699,-3.1015,-3.0797,-3.0576,-3.0576,-3.0123,-2.9805,-2.9805,-2.9361,-2.8841,-2.8418,-2.8146,-2.7769,-2.7166,-2.7348,-2.7276,-2.6707,-2.6669,-2.6404,-2.5756,-2.5272,-2.4835,-2.4505,-2.3897,-2.3531,-2.3531,-2.328,-2.2895,-2.2531,-2.1502,-2.0816,-2.0518,-2.0518,-2.0962,-2.17,-2.1382,-2.1161,-2.1163,-2.1344,-2.1355,-2.1264,-2.0661,-2.0362,-2.0285,-1.9116,-1.8327,-1.7772,-1.7367,-1.7049,-1.6818,-1.7334,-1.7493,-1.7628,-1.8319,-1.8533,-1.8474,-1.8295,-1.8164,-1.7978,-1.7326,-1.7044,-1.6951,-1.6676,-1.6298,-1.6008,-1.6379,-1.6286,-1.6099,-1.6045,-1.6341,-1.6607,-1.6474,-1.6518,-1.6311,-1.5998,-1.5891,-1.5891,-1.5891,-1.5891,-1.5891,-1.5891,-1.5891,-1.5891,-1.5891,-1.5891,-1.5891,-1.5891,-1.5891,-1.5891,-1.5891,-1.5891,-1.5891,-1.5891,-1.5891,-1.5891,-1.5891,-1.5891,-1.6099,-1.6518,-1.6518,-1.6624,0.0,0.0,-2.5773,-2.7901,-2.869,-2.9106,0.0,0.0,-2.9892,0.0,-2.9685,-2.9772,-3.0058,-3.0005,-2.9935,-2.9935,-2.9496,-2.9134,-2.8965,-2.8512,-2.7932,-2.7238,-2.6805,-2.6414,-2.5837,-2.6229,-2.6283,-2.5837,-2.6082,-2.592,-2.5061,-2.4835,-2.4492,-2.3865,-2.3339,-2.3027,-2.2847,-2.2665,-2.2237,-2.1553,-2.0571,-2.0085,-2.0085,-2.0074,-2.0204,-2.0396,-2.0608,-2.0439,-2.0012,-2.0277,-2.0196,-1.9771,-1.9319,-1.9191,-1.9116,-1.8078,-1.7448,-1.7147,-1.682,-1.673,-1.6794,-1.7159,-1.7278,-1.7405,-1.8089,-1.8295,-1.8186,-1.7787,-1.7692,-1.7505,-1.6574,-1.6298,-1.6204,-1.6015,-1.5481,-1.5044,-1.5044,-1.5044,-1.5025,-1.5002,-1.5167,-1.5427,-1.5819,-1.5891,-1.5891,-1.5891,-1.5891,-1.5891,-1.5891,-1.5891,-1.5891,-1.5891,-1.5891,-1.5891,-1.5891,-1.5891,-1.5891,-1.5891,-1.5891,-1.5891,-1.5891,-1.5891,-1.5891,-1.5891,-1.5891,-1.5891,-1.5891,-1.5891,-1.5891,-1.5891,-1.5891,-1.5891,0.0,-2.2027,0.0,-2.4938,-2.6255,0.0,0.0,0.0,-2.9284,-2.8716,-2.8513,-2.8324,-2.7765,-2.8654,-2.9451,-2.9451,-2.8919,-2.8336,-2.7773,-2.7181,-2.6549,-2.5946,-2.5892,-2.5837,-2.5783,-2.5837,-2.5837,-2.5783,-2.537,-2.5061,-2.5005,-2.4447,-2.3852,-2.3148,-2.3148,-2.2774,-2.2163,-2.1491,-2.088,-2.0205,-2.014,-2.0085,-2.0085,-1.9944,-1.9539,-1.8942,-1.9768,-1.9903,-1.9551,-1.9581,-1.9511,-1.9355,-1.8312,-1.8075,-1.8221,-1.7123,-1.673,-1.6738,-1.6738,-1.673,-1.6794,-1.7159,-1.7278,-1.7405,-1.8089,-1.8295,-1.8186,-1.7787,-1.7692,-1.7311,-1.5812,-1.5439,-1.5248,-1.4586,-1.42,-1.4017,-1.4017,-1.4017,-1.4087,-1.463,-1.4751,-1.4998,-1.5759,-1.5891,-1.5891,-1.5891,-1.5891,-1.5891,-1.5891,-1.5891,-1.5891,-1.5891,-1.5891,-1.5891,-1.5891,-1.5891,-1.5891,-1.5891,-1.5891,-1.5891,-1.5891,-1.5891,-1.5891,-1.5891,-1.5891,-1.5891,-1.5891,-1.5891,-1.5891,-1.5891,-1.5891,-1.5891,0.0,0.0,0.0,-2.373,-2.4998,-2.6,-2.6677,-2.7214,-2.753,-2.7315,-2.7265,-2.7092,-2.65,-2.7041,-2.7579,-2.7579,-2.7136,-2.6715,-2.6491,-2.6254,-2.5906,-2.537,-2.5272,-2.5147,-2.4765,-2.5048,-2.516,-2.4708,-2.4892,-2.4835,-2.4447,-2.3839,-2.3339,-2.3088,-2.2298,-2.1678,-2.1428,-2.0764,-2.0302,-1.9922,-1.9497,-1.8977,-1.8365,-1.8297,-1.8152,-1.7949,-1.823,-1.7959,-1.7283,-1.7472,-1.7478,-1.7395,-1.6966,-1.7125,-1.7619,-1.6976,-1.673,-1.673,-1.673,-1.673,-1.6754,-1.6889,-1.6929,-1.6972,-1.7231,-1.7255,-1.7101,-1.642,-1.6183,-1.6001,-1.4962,-1.4545,-1.4378,-1.3926,-1.3851,-1.3857,-1.3688,-1.3791,-1.4014,-1.4377,-1.4727,-1.5113,-1.5559,-1.5777,-1.5891,-1.5891,-1.5891,-1.5891,-1.5891,-1.5891,-1.5891,-1.5891,-1.5891,-1.5891,-1.5891,-1.5891,-1.5891,-1.5891,-1.5891,-1.5891,-1.5891,-1.5891,-1.5891,-1.5891,-1.5891,-1.5891,-1.5891,-1.5891,-1.5891,-1.5891,-1.5891,-1.5678,-1.9393,0.0,0.0,0.0,0.0,-2.4207,-2.5089,0.0,-2.5735,-2.5763,-2.5745,-2.563,-2.5287,-2.5149,-2.5356,-2.6183,-2.6026,-2.5673,-2.5259,-2.5204,-2.4924,-2.415,-2.4047,-2.3872,-2.3484,-2.3813,-2.3872,-2.3484,-2.3813,0.0,-2.3424,-2.304,-2.2652,-2.2408,-2.1376,-2.0752,-2.0752,-2.0118,-1.9704,-1.9444,-1.8813,-1.8152,-1.7404,-1.7326,-1.7189,-1.6913,-1.6853,-1.6498,-1.6026,-1.6208,-1.619,-1.5918,-1.6044,-1.6405,-1.6976,-1.6772,-1.673,-1.6648,-1.6402,-1.6402,-1.6319,-1.6064,-1.6058,-1.6171,-1.6294,-1.6351,-1.6278,-1.5584,-1.5432,-1.5242,-1.4484,-1.4165,-1.3972,-1.3707,-1.3779,-1.3833,-1.3568,-1.3719,-1.3984,-1.4244,-1.4666,-1.5089,-1.5439,-1.5716,-1.5891,-1.5891,-1.5891,-1.5891,-1.5891,-1.5891,-1.5891,-1.5891,-1.5891,-1.5891,-1.5891,-1.5891,-1.5785,-1.5571,-1.5571,-1.5571,-1.5351,-1.5351,-1.5351,-1.5351,-1.5351,-1.5351,-1.5351,-1.5672,-1.5891,-1.5891,-1.5891,-1.5571,0.0,0.0,0.0,0.0,0.0,0.0,-2.3582,0.0,-2.4014,-2.4028,-2.3973,-2.3981,-2.4015,-2.298,-2.287,-2.5315,-2.5673,-2.5259,-2.4084,-2.391,-2.3513,-2.2224,-2.2101,-2.2101,-2.2101,-2.2101,-2.2101,-2.2101,-2.2101,-2.2101,-2.2101,-2.2113,-2.1741,-2.106,-2.0388,-2.0074,-2.0009,-1.9518,-1.91,-1.87,-1.8162,-1.7755,-1.7335,-1.7111,-1.6618,-1.5939,-1.5824,-1.5816,-1.593,-1.593,-1.569,-1.5213,-1.5547,-1.5888,-1.6246,-1.6603,-1.6656,-1.6566,-1.5899,-1.565,-1.5567,-1.4908,-1.4859,-1.5165,-1.5478,-1.5784,-1.5892,-1.5448,-1.5337,-1.5242,-1.4465,-1.4274,-1.4208,-1.3948,-1.3894,-1.3839,-1.358,-1.3731,-1.399,-1.4238,-1.4521,-1.4877,-1.5396,-1.5704,-1.5879,-1.5891,-1.5891,-1.5891,-1.5891,-1.5891,-1.5891,-1.5891,-1.5891,-1.5891,-1.5891,-1.5891,-1.5678,-1.5041,-1.5041,-1.4713,-1.4164,-1.4169,-1.4169,-1.4169,-1.4169,-1.4169,-1.4169,-1.5351,-1.5885,-1.5885,-1.5785,-1.5464,-1.7501,0.0,0.0,0.0,0.0,0.0,0.0,0.0,-2.1868,-2.2679,-2.2483,-2.2225,-2.2627,-2.2406,-2.2335,-2.2977,-2.3097,-2.2977,-2.2688,-2.264,-2.2518,-2.2163,-2.2101,-2.2101,-2.2101,-2.2101,-2.2101,0.0,-2.2101,-2.2101,-2.2101,-2.1616,-2.0782,-1.9486,-1.9243,-1.8834,-1.8152,-1.8017,-1.7531,-1.6766,-1.6627,-1.6158,-1.5401,-1.533,-1.5188,-1.4982,-1.4545,-1.4617,-1.4982,-1.4982,-1.5065,-1.5213,-1.5547,-1.5888,-1.6246,-1.6603,-1.6402,-1.5982,-1.5733,-1.5401,-1.4936,-1.4993,-1.5033,-1.5113,-1.5097,-1.512,-1.5153,-1.4696,-1.458,-1.4493,-1.3926,-1.3731,-1.3664,-1.3405,-1.3628,-1.3888,-1.3815,-1.4002,-1.4153,-1.4039,-1.4395,-1.4823,-1.5155,-1.5433,-1.5674,-1.5861,-1.5891,-1.5891,-1.5891,-1.5891,-1.5891,-1.5891,-1.5891,-1.5891,-1.5891,-1.5891,-1.5678,-1.5041,-1.5041,-1.4713,-1.4164,-1.4169,-1.4169,-1.4169,-1.4169,-1.4169,-1.4169,-1.4493,-1.4708,-1.4708,-1.4169,-1.3959,-1.7278,-1.7689,0.0,0.0,0.0,0.0,-2.0146,-2.0176,0.0,0.0,-2.0954,-2.0866,-2.1473,-2.1248,-2.0981,-2.1065,-2.0754,-2.0774,-2.1581,-2.1479,-2.1215,-2.076,-2.0557,-2.0429,-2.0557,-2.0632,-2.0632,-2.0632,-2.0632,-2.0493,-2.0149,-1.9781,-1.9135,-1.822,-1.822,-1.7949,-1.7404,-1.7207,-1.6715,-1.6,-1.5807,-1.5259,-1.4569,-1.4569,-1.4569,-1.4569,-1.4049,-1.3977,-1.4274,-1.3985,-1.4417,-1.5213,-1.5547,-1.5732,-1.5839,-1.6188,-1.5816,-1.5235,-1.4985,-1.4566,-1.4284,-1.4236,-1.432,-1.4415,-1.4504,-1.4534,-1.454,-1.4212,-1.4057,-1.39,-1.3592,-1.3513,-1.3507,-1.3459,-1.3682,-1.3936,-1.4045,-1.4189,-1.425,-1.4099,-1.4419,-1.4805,-1.5065,-1.5324,-1.559,-1.5849,-1.5891,-1.5785,-1.5571,-1.5571,-1.5464,-1.5244,-1.5137,-1.5137,-1.5137,-1.5137,-1.4922,-1.4288,-1.4283,-1.3851,-1.2975,-1.33,-1.33,-1.2866,-1.33,-1.3413,-1.3413,-1.3954,-1.4169,-1.4169,-1.3527,-1.3315,-1.7233,-1.7579,0.0,-1.8622,-1.8382,0.0,-1.9321,-1.9174,-1.895,0.0,-1.9561,-1.9633,-2.0213,-1.9712,-1.9179,-1.9298,-1.8591,-1.8659,-2.0508,-2.0245,-1.9608,-1.8757,-1.823,-1.8027,-1.8365,-1.8365,-1.8365,-1.8365,-1.8365,-1.8094,-1.7472,-1.7404,-1.7335,-1.7267,-1.7267,-1.7198,-1.706,-1.6585,-1.6097,-1.5728,-1.518,-1.4776,-1.4425,-1.4425,-1.4425,-1.4353,-1.3833,-1.3615,-1.3688,-1.3039,-1.3675,-1.4989,-1.5394,-1.5341,-1.5116,-1.5449,-1.5151,-1.4482,-1.3906,-1.3646,-1.3534,-1.3242,-1.3326,-1.3568,-1.3857,-1.4093,-1.4201,-1.3936,-1.3676,-1.3471,-1.3471,-1.3471,-1.3532,-1.3761,-1.3863,-1.3972,-1.4201,-1.428,-1.4304,-1.434,-1.4545,-1.4805,-1.5065,-1.5324,-1.559,-1.5743,-1.5785,-1.5571,-1.5035,-1.4928,-1.4713,-1.4277,-1.4169,-1.4169,-1.4169,-1.4169,-1.3954,-1.3315,-1.3315,-1.2659,-1.1126,-1.1891,-1.1891,-1.1131,-1.2001,-1.2441,-1.2441,-1.3521,-1.3954,-1.3954,-1.3418,-1.3207,-1.697,-1.6976,-1.7099,-1.7344,-1.7199,0.0,-1.8066,-1.7712,-1.7545,0.0,-1.8295,-1.7947,-1.8021,-1.7835,-1.7522,-1.7016,-1.6825,-1.7096,-1.8446,-1.7991,-1.7615,-1.7629,-1.7609,-1.7541,-1.7609,-1.7609,-1.7609,-1.7609,-1.7609,-1.7541,-1.7404,-1.7404,-1.7051,-1.628,-1.628,-1.5948,-1.5125,-1.4617,-1.433,-1.425,-1.3615,-1.3331,-1.3258,-1.3258,-1.3258,-1.3185,-1.2592,-1.2592,-1.3039,-1.2445,-1.2777,-1.3686,-1.4001,-1.4237,-1.4469,-1.4788,-1.4482,-1.3899,-1.3737,-1.3307,-1.2961,-1.3278,-1.3471,-1.3604,-1.4081,-1.4111,-1.393,-1.3664,-1.3399,-1.32,-1.32,-1.32,-1.3212,-1.3266,-1.3598,-1.3918,-1.3972,-1.4147,-1.4364,-1.4594,-1.4678,-1.4805,-1.5065,-1.5324,-1.538,-1.5215,-1.5143,-1.4928,-1.4385,-1.4385,-1.4277,-1.4169,-1.4169,-1.4169,-1.4169,-1.4169,-1.3954,-1.3315,-1.3315,-1.2659,-1.1126,-1.1236,-1.1236,-1.1126,-1.2001,-1.2441,-1.2441,-1.2654,-1.2762,-1.2762,-1.2654,-1.255,-1.7009,-1.6818,-1.6871,-1.7152,0.0,0.0,0.0,-1.7262,-1.6976,-1.7512,-1.7137,-1.6722,-1.6632,-1.6527,-1.6269,-1.568,-1.5514,-1.5458,-1.5697,-1.5993,-1.6216,-1.623,-1.5999,-1.5865,-1.6066,-1.6229,-1.636,-1.6567,-1.6228,-1.6026,-1.6026,-1.5728,-1.5376,-1.495,-1.4593,-1.425,-1.3768,-1.3477,-1.3331,-1.3331,-1.3039,-1.29,-1.29,-1.29,-1.29,-1.29,-1.2224,-1.215,-1.2392,-1.1941,-1.2088,-1.2668,-1.3519,-1.3856,-1.3944,-1.4183,-1.3815,-1.3222,-1.3222,-1.296,-1.2795,-1.3338,-1.3513,-1.361,-1.4135,-1.402,-1.3652,-1.3393,-1.3127,-1.2916,-1.2916,-1.2916,-1.2952,-1.3091,-1.3423,-1.3749,-1.3876,-1.422,-1.435,-1.3981,-1.3896,-1.4122,-1.4981,-1.5118,-1.5025,-1.4836,-1.4742,-1.439,-1.3851,-1.3743,-1.3635,-1.3305,-1.3305,-1.3305,-1.3305,-1.3305,-1.298,-1.2223,-1.2223,-1.1455,-0.9919,-1.0241,-1.046,-1.046,-1.1345,-1.1782,-1.1782,-1.2219,-1.2441,-1.2441,-1.2441,-1.2441,0.0,0.0,-1.7148,0.0,0.0,-1.7022,0.0,0.0,0.0,-1.6705,-1.6228,0.0,0.0,0.0,0.0,0.0,0.0,0.0,0.0,-1.4124,0.0,-1.4467,-1.4247,-1.4131,-1.4313,-1.4488,-1.4805,-1.5415,-1.4514,-1.4124,-1.4418,-1.3912,-1.3615,-1.3615,-1.3185,-1.29,-1.29,-1.2746,-1.2753,-1.2753,-1.2599,-1.2526,-1.2526,-1.2526,-1.2526,-1.2526,-1.2003,-1.1855,-1.1806,-1.1566,-1.1685,-1.2006,-1.3088,-1.3519,-1.3476,-1.3476,-1.313,-1.2705,-1.2705,-1.2705,-1.2795,-1.3338,-1.3586,-1.3725,-1.4051,-1.3851,-1.3447,-1.3133,-1.288,-1.2705,-1.2705,-1.2705,-1.2759,-1.2988,-1.3248,-1.3435,-1.3455,-1.3896,-1.387,-1.2798,-1.272,-1.3017,-1.4168,-1.4138,-1.3953,-1.3744,-1.362,-1.3234,-1.2704,-1.263,-1.2436,-1.1996,-1.1891,-1.1891,-1.1891,-1.1891,-1.1559,-1.0907,-1.0798,-1.0135,-0.8595,-0.914,-0.9578,-0.9578,-1.0574,-1.1126,-1.1126,-1.2001,-1.2441,-1.2441,-1.2441,-1.2441,0.0,0.0,0.0,0.0,-1.7436,0.0,0.0,0.0,-1.6441,-1.6441,0.0,0.0,0.0,0.0,0.0,0.0,0.0,0.0,-1.2041,-1.2134,-1.2251,-1.2431,-1.3176,-1.3518,-1.3035,-1.2504,-1.2794,-1.421,-1.2727,-1.2421,-1.3818,-1.3331,-1.2966,-1.2966,-1.2973,-1.29,-1.29,-1.2378,-1.2077,-1.2077,-1.1558,-1.1335,-1.1335,-1.1335,-1.1335,-1.1335,-1.126,-1.1186,-1.121,-1.1413,-1.1685,-1.1944,-1.2343,-1.2612,-1.279,-1.279,-1.279,-1.2705,-1.2705,-1.2705,-1.2795,-1.3338,-1.3827,-1.4135,-1.3725,-1.3562,-1.3405,-1.2898,-1.2729,-1.2705,-1.2705,-1.2705,-1.2711,-1.2741,-1.2964,-1.2939,-1.2088,-1.2188,-1.2152,-1.149,-1.1259,-1.1362,-1.1789,-1.1704,-1.1408,-1.0884,-1.0839,-1.0646,-1.0126,-1.0147,-1.0127,-1.0127,-1.0127,-1.0127,-1.0127,-1.0127,-1.0017,-0.9908,-0.9908,-0.9471,-0.8595,-0.8595,-0.8595,-0.8595,-1.0245,-1.1126,-1.1126,-1.2001,-1.2441,-1.2441,-1.2441,-1.2441,0.0,0.0,0.0,0.0,0.0,0.0,-1.696,0.0,-1.6316,0.0,0.0,0.0,0.0,0.0,0.0,0.0,-1.2313,0.0,0.0,0.0,-1.1396,0.0,0.0,0.0,-1.2087,-1.1741,-1.1999,-1.3083,-1.2107,-1.1951,-1.3237,-1.2746,-1.2378,-1.2378,-1.2003,-1.1855,-1.1855,-1.1111,-1.1037,-1.1484,-1.0282,-0.9986,-1.0363,-1.0363,-1.0363,-1.0438,-1.0887,-1.1111,-1.1141,-1.1576,-1.1823,-1.1962,-1.2379,-1.2608,-1.2705,-1.2705,-1.2705,-1.2705,-1.2705,-1.2705,-1.2795,-1.3338,-1.3767,-1.4002,-1.3628,-1.3405,-1.3206,-1.2813,-1.2705,-1.2705,-1.2705,-1.2705,-1.2534,-1.2015,-1.2048,-1.1925,-1.1008,-1.1113,-1.1148,-1.0059,-0.9896,-0.968,-0.8976,-0.986,-1.0505,-1.0092,-0.9924,-0.9765,-0.9659,-0.9622,-0.9697,-0.9786,-0.9798,-0.9798,-0.9798,-0.9798,-0.9578,-0.9034,-0.8589,-0.8146,-0.7709,-0.7709,-0.7709,-0.7709,-0.8923,-0.9805,-1.0351,-1.1232,-1.1891,-1.2441,-1.2441,-1.2441,-1.8537,0.0,0.0,0.0,0.0,0.0,0.0,0.0,0.0,0.0,0.0,0.0,0.0,0.0,0.0,0.0,0.0,-1.1802,0.0,0.0,0.0,0.0,0.0,0.0,0.0,-1.0835,-1.0963,-1.213,0.0,-1.1043,-1.2456,-1.1959,-1.1556,-1.1403,-1.1037,-1.0663,-1.0432,-0.9836,-0.9836,-1.0432,-0.9231,-0.9003,-0.9614,-0.9771,-0.9922,-0.9922,-1.0738,-1.1111,-1.1154,-1.1697,-1.192,-1.1974,-1.2499,-1.2705,-1.2705,-1.2705,-1.2705,-1.2705,-1.2705,-1.2801,-1.2994,-1.3387,-1.3688,-1.3845,-1.3507,-1.3272,-1.3067,-1.2783,-1.2705,-1.2619,-1.2351,-1.2272,-1.2032,-1.105,-1.0865,-1.0794,-0.9901,-0.9941,-0.9875,-0.8674,-0.8387,-0.8066,-0.7153,-0.82,-0.9119,-0.9004,-0.8724,-0.8678,-0.8838,-0.8894,-0.8977,-0.912,-0.9102,-0.9095,-0.9133,-0.9099,-0.8766,-0.8149,-0.7598,-0.7154,-0.7154,-0.7154,-0.7154,-0.7154,-0.8042,-0.8923,-0.9798,-1.0684,-1.1564,-1.2441,-1.2441,-1.2441,0.0,0.0,0.0,-1.8175,0.0,0.0,0.0,0.0,-1.6655,0.0,0.0,0.0,0.0,0.0,-1.2621,-1.2621,0.0,0.0,0.0,0.0,0.0,0.0,0.0,0.0,0.0,-0.9378,-0.9232,0.0,-0.9327,-0.8992,-1.1488,-1.1091,-1.0481,-0.9986,-0.9916,-0.9539,-0.878,-0.878,-0.878,-0.878,-0.8699,-0.8703,-0.8775,-0.9539,-0.9922,-0.9922,-1.0738,-1.1111,-1.1154,-1.1697,-1.192,-1.1974,-1.2499,-1.2705,-1.2705,-1.2705,-1.2705,-1.2705,-1.2705,-1.3049,-1.3495,-1.3507,-1.3688,-1.3809,-1.3296,-1.3133,-1.3067,-1.2783,-1.2705,-1.2443,-1.1305,-1.123,-1.1029,-0.9723,-0.9696,-0.9552,-0.8692,-0.8417,-0.8056,-0.7223,-0.689,-0.6624,-0.6619,-0.6524,-0.6545,-0.6542,-0.6647,-0.6771,-0.6895,-0.7017,-0.7136,-0.7252,-0.7166,-0.7144,-0.7254,-0.7163,-0.7147,-0.7257,-0.7265,-0.7154,-0.7154,-0.7154,-0.7154,-0.7154,-0.8042,-0.8923,-0.9798,-1.0684,-1.1564,-1.2441,-1.2441,-1.2441,0.0,0.0,-1.9474,-1.8777,0.0,0.0,0.0,0.0,0.0,0.0,0.0,0.0,0.0,0.0,-1.2621,-1.2621,-1.2305,0.0,0.0,0.0,0.0,0.0,0.0,0.0,0.0,0.0,0.0,0.0,-0.9406,0.0,0.0,-1.0448,-1.006,-0.9916,-0.9387,-0.9008,-0.8703,-0.8169,-0.8169,-0.8699,-0.7633,-0.7407,-0.794,-0.8169,-0.8623,-0.916,-0.9986,-1.0691,-1.1419,-1.1775,-1.2023,-1.2134,-1.1883,-1.2186,-1.2705,-1.2705,-1.2705,-1.2729,-1.2916,-1.3218,-1.3513,-1.3513,-1.3574,-1.358,-1.323,-1.2994,-1.2653,-1.1768,-1.1563,-1.1305,-1.0086,-0.9822,-0.9703,-0.8661,-0.8432,-0.8236,-0.74,-0.7172,-0.7074,-0.6716,-0.6622,-0.6594,-0.6513,-0.6464,-0.6437,-0.6437,-0.6472,-0.6543,-0.6665,-0.6787,-0.691,-0.7029,-0.7076,-0.7111,-0.7152,-0.7119,-0.7114,-0.7152,-0.7154,-0.7154,-0.7154,-0.7154,-0.7154,-0.7154,-0.7487,-0.8367,-0.9798,-1.0127,-1.1008,-1.2441,-1.2441,-1.2441,-2.0514,-1.9837,0.0,-1.8607,-1.7662,0.0,-1.6373,0.0,-1.551,0.0,0.0,0.0,0.0,0.0,0.0,-1.2621,-1.2313,-1.1802,0.0,-1.011,0.0,0.0,0.0,0.0,0.0,0.0,-0.8907,-0.985,-0.9201,0.0,0.0,0.0,-0.9712,-0.9571,-0.8655,-0.8119,-0.788,-0.7277,-0.7249,-0.7863,-0.6799,-0.6567,-0.7099,-0.7407,-0.794,-0.878,-0.9621,-1.0599,-1.148,-1.1508,-1.1665,-1.1755,-1.1406,-1.1494,-1.166,-1.166,-1.166,-1.1705,-1.2048,-1.2366,-1.2495,-1.2495,-1.2495,-1.2433,-1.2098,-1.1793,-1.1402,-1.0702,-1.0438,-1.0086,-0.8869,-0.8656,-0.8488,-0.758,-0.7363,-0.7235,-0.6747,-0.6575,-0.6543,-0.6507,-0.6529,-0.6529,-0.645,-0.6437,-0.6437,-0.6437,-0.6437,-0.648,-0.6603,-0.6687,-0.6801,-0.6967,-0.7013,-0.7048,-0.7092,-0.7133,-0.7154,-0.7154,-0.7154,-0.7154,-0.7154,-0.7154,-0.7154,-0.7154,-0.7154,-0.8036,-0.9798,-0.9798,-1.0676,-1.2441,-1.2441,-1.2441]},{"header":{"parameterUnit":"m.s-1","parameterCategory":1,"la1":30.6,"la2":29.2853,"lo1":-89.7004,"lo2":-87.6739,"dy":0.0162,"dx":0.0183,"nx":112,"ny":82,"refTime":"2024-08-06T06:00:00:Z","depth":0,"parameterNumber":3,"parameterNumberName":"V-component_of_WINDS"},"data":[0.0,0.0,0.0,0.0,0.0,0.0,0.0,0.0,0.0,0.0,0.0,0.0,0.0,0.0,0.0,0.0,0.0,0.0,0.0,0.0,0.0,0.0,0.0,0.0,0.0,0.0,0.0,0.0,0.0,0.0,0.0,0.0,0.0,0.0,0.0,0.0,0.0,0.0,0.0,0.0,0.0,0.0,0.0,0.0,0.0,0.0,0.0,0.0,0.0,0.0,0.0,0.0,0.0,0.0,0.0,0.0,0.0,0.0,0.0,0.0,0.0,0.0,0.0,0.0,0.0,0.0,0.0,0.0,0.0,0.0,0.0,0.0,0.0,0.0,0.0,0.0,0.0,0.0,0.0,0.0,0.0,0.0,0.0,0.0,0.0,0.0,0.0,0.0,0.0,0.0,-3.6399,-3.8277,-4.1735,-4.2888,-4.0317,-4.0107,-3.8824,-3.5784,0.0,0.0,0.0,0.0,0.0,0.0,0.0,0.0,0.0,0.0,0.0,0.0,0.0,0.0,0.0,0.0,0.0,0.0,0.0,0.0,0.0,0.0,0.0,0.0,0.0,0.0,0.0,0.0,0.0,0.0,0.0,0.0,0.0,0.0,0.0,0.0,0.0,0.0,0.0,0.0,0.0,0.0,0.0,0.0,0.0,0.0,0.0,0.0,0.0,0.0,0.0,0.0,0.0,0.0,0.0,0.0,0.0,0.0,0.0,0.0,0.0,0.0,0.0,0.0,0.0,0.0,0.0,0.0,0.0,0.0,0.0,0.0,0.0,0.0,0.0,0.0,0.0,0.0,0.0,0.0,0.0,0.0,0.0,0.0,0.0,0.0,0.0,0.0,0.0,0.0,0.0,0.0,0.0,0.0,0.0,0.0,0.0,0.0,0.0,0.0,0.0,0.0,0.0,0.0,-3.8272,-3.9676,-4.0366,-4.0628,-4.0155,-4.0112,-3.8808,-3.5786,0.0,0.0,0.0,0.0,0.0,0.0,0.0,0.0,0.0,0.0,0.0,0.0,0.0,0.0,0.0,0.0,0.0,0.0,0.0,0.0,0.0,0.0,0.0,0.0,0.0,0.0,0.0,0.0,0.0,0.0,0.0,0.0,0.0,0.0,0.0,0.0,0.0,0.0,0.0,0.0,0.0,0.0,0.0,0.0,0.0,0.0,0.0,0.0,0.0,0.0,0.0,0.0,0.0,0.0,0.0,0.0,0.0,0.0,0.0,0.0,0.0,0.0,0.0,0.0,0.0,0.0,0.0,0.0,0.0,0.0,0.0,0.0,0.0,0.0,0.0,0.0,0.0,0.0,0.0,0.0,0.0,0.0,0.0,0.0,0.0,0.0,0.0,0.0,0.0,0.0,0.0,0.0,0.0,0.0,0.0,0.0,0.0,0.0,0.0,0.0,0.0,0.0,0.0,-3.8819,-3.9456,-4.004,-4.0112,-4.007,-4.0101,-4.0118,-3.8785,-3.5796,-3.1924,0.0,0.0,0.0,0.0,0.0,0.0,0.0,0.0,0.0,0.0,0.0,0.0,0.0,0.0,0.0,0.0,0.0,0.0,0.0,0.0,0.0,0.0,0.0,0.0,0.0,0.0,0.0,0.0,0.0,0.0,0.0,0.0,0.0,0.0,0.0,0.0,0.0,0.0,0.0,0.0,0.0,0.0,0.0,0.0,0.0,0.0,0.0,0.0,0.0,0.0,0.0,0.0,0.0,0.0,0.0,0.0,0.0,0.0,0.0,0.0,0.0,0.0,0.0,0.0,0.0,0.0,0.0,0.0,0.0,0.0,0.0,0.0,0.0,0.0,0.0,0.0,0.0,0.0,0.0,0.0,0.0,0.0,0.0,0.0,0.0,0.0,0.0,0.0,0.0,0.0,0.0,0.0,0.0,0.0,0.0,0.0,0.0,0.0,0.0,0.0,0.0,0.0,-3.8187,-4.0068,-3.9922,-3.9935,-3.9966,-4.012,-3.9983,-3.8623,-3.5634,-2.9945,0.0,0.0,0.0,0.0,0.0,0.0,0.0,0.0,0.0,0.0,0.0,0.0,0.0,0.0,0.0,0.0,0.0,0.0,0.0,0.0,0.0,0.0,0.0,0.0,0.0,0.0,0.0,0.0,0.0,0.0,0.0,0.0,0.0,0.0,0.0,0.0,0.0,0.0,0.0,0.0,0.0,0.0,0.0,0.0,0.0,0.0,0.0,0.0,0.0,0.0,0.0,0.0,0.0,0.0,0.0,0.0,0.0,0.0,0.0,0.0,0.0,0.0,0.0,0.0,0.0,0.0,0.0,0.0,0.0,0.0,0.0,0.0,0.0,0.0,0.0,0.0,0.0,0.0,0.0,0.0,0.0,0.0,0.0,0.0,0.0,0.0,0.0,0.0,0.0,0.0,0.0,0.0,0.0,0.0,0.0,0.0,0.0,0.0,0.0,0.0,0.0,0.0,-3.489,-3.9937,-3.9412,-3.9335,-3.9531,-4.0054,-3.9644,-3.8099,-3.5128,-2.9772,0.0,0.0,0.0,0.0,0.0,0.0,0.0,0.0,0.0,0.0,0.0,0.0,0.0,0.0,0.0,0.0,0.0,0.0,0.0,0.0,0.0,0.0,0.0,0.0,0.0,0.0,0.0,0.0,0.0,0.0,0.0,0.0,0.0,0.0,0.0,0.0,0.0,0.0,0.0,0.0,0.0,0.0,0.0,0.0,0.0,0.0,0.0,0.0,0.0,0.0,0.0,0.0,0.0,0.0,0.0,0.0,0.0,0.0,0.0,0.0,0.0,0.0,0.0,0.0,0.0,0.0,0.0,0.0,0.0,0.0,0.0,0.0,0.0,0.0,0.0,0.0,0.0,0.0,0.0,0.0,0.0,0.0,0.0,0.0,0.0,0.0,0.0,0.0,0.0,0.0,0.0,0.0,0.0,0.0,0.0,0.0,0.0,0.0,0.0,0.0,0.0,0.0,-3.479,-3.7485,0.0,-3.9309,-3.893,-3.7965,-3.7058,-3.4544,-2.9761,0.0,0.0,0.0,0.0,0.0,0.0,0.0,0.0,0.0,0.0,0.0,0.0,0.0,0.0,0.0,0.0,0.0,0.0,0.0,0.0,0.0,0.0,0.0,0.0,0.0,0.0,0.0,0.0,0.0,0.0,0.0,0.0,0.0,0.0,0.0,0.0,0.0,0.0,0.0,0.0,0.0,0.0,0.0,0.0,0.0,0.0,0.0,0.0,0.0,0.0,0.0,0.0,0.0,0.0,0.0,0.0,0.0,0.0,0.0,0.0,0.0,0.0,0.0,0.0,0.0,0.0,0.0,0.0,0.0,0.0,0.0,0.0,0.0,0.0,0.0,0.0,0.0,0.0,0.0,0.0,0.0,0.0,0.0,0.0,0.0,0.0,0.0,0.0,0.0,0.0,0.0,0.0,0.0,0.0,0.0,0.0,0.0,0.0,0.0,0.0,0.0,0.0,-3.2883,-3.3674,-3.492,0.0,-3.81,-3.7227,-3.5096,-3.4244,-3.1752,-2.6962,0.0,0.0,0.0,0.0,0.0,0.0,0.0,0.0,0.0,0.0,0.0,0.0,0.0,0.0,0.0,0.0,0.0,0.0,0.0,0.0,0.0,0.0,0.0,0.0,0.0,0.0,0.0,0.0,0.0,0.0,0.0,0.0,0.0,0.0,0.0,0.0,0.0,0.0,0.0,0.0,0.0,0.0,0.0,0.0,0.0,0.0,0.0,0.0,0.0,0.0,0.0,0.0,0.0,0.0,0.0,0.0,0.0,0.0,0.0,0.0,0.0,0.0,0.0,0.0,0.0,0.0,0.0,0.0,0.0,0.0,0.0,0.0,0.0,0.0,0.0,0.0,0.0,0.0,0.0,0.0,0.0,0.0,0.0,0.0,0.0,0.0,0.0,0.0,0.0,0.0,0.0,0.0,0.0,0.0,0.0,0.0,0.0,0.0,0.0,0.0,0.0,0.0,-3.012,-3.1074,-3.2501,-3.5205,-3.5482,-3.4368,-3.1738,-3.1489,-3.0357,0.0,0.0,0.0,0.0,0.0,0.0,0.0,0.0,0.0,0.0,0.0,0.0,0.0,0.0,0.0,0.0,0.0,0.0,0.0,0.0,0.0,0.0,0.0,0.0,0.0,0.0,0.0,0.0,0.0,0.0,0.0,0.0,0.0,0.0,0.0,0.0,0.0,0.0,0.0,0.0,0.0,0.0,0.0,0.0,0.0,0.0,0.0,0.0,0.0,0.0,0.0,0.0,0.0,0.0,0.0,0.0,0.0,0.0,0.0,0.0,0.0,0.0,0.0,0.0,0.0,0.0,0.0,0.0,0.0,0.0,0.0,0.0,0.0,0.0,0.0,0.0,0.0,0.0,0.0,0.0,0.0,0.0,0.0,0.0,0.0,0.0,0.0,0.0,0.0,0.0,0.0,0.0,0.0,0.0,0.0,0.0,0.0,0.0,0.0,0.0,0.0,0.0,0.0,-2.8264,-3.0253,-3.2538,-3.5179,-3.3834,-3.2346,-3.1544,-3.0709,-2.9128,-2.6654,0.0,0.0,0.0,0.0,0.0,0.0,0.0,0.0,0.0,0.0,0.0,0.0,0.0,0.0,0.0,0.0,0.0,0.0,0.0,0.0,0.0,0.0,0.0,0.0,0.0,0.0,0.0,0.0,0.0,0.0,0.0,0.0,0.0,0.0,0.0,0.0,0.0,0.0,0.0,0.0,0.0,0.0,0.0,0.0,0.0,0.0,0.0,0.0,0.0,0.0,0.0,0.0,0.0,0.0,0.0,0.0,0.0,0.0,0.0,0.0,0.0,0.0,0.0,0.0,0.0,0.0,0.0,0.0,0.0,0.0,0.0,0.0,0.0,0.0,0.0,0.0,0.0,0.0,0.0,0.0,0.0,0.0,0.0,0.0,0.0,0.0,0.0,0.0,0.0,0.0,0.0,0.0,0.0,0.0,0.0,0.0,0.0,0.0,0.0,0.0,0.0,0.0,-2.8974,-3.054,-3.254,-3.5186,-3.4074,-3.2478,-3.0872,-3.0497,-2.9047,-2.6042,0.0,0.0,0.0,0.0,0.0,0.0,0.0,0.0,0.0,0.0,0.0,0.0,0.0,0.0,0.0,0.0,0.0,0.0,0.0,0.0,0.0,0.0,0.0,0.0,0.0,0.0,0.0,0.0,0.0,0.0,0.0,0.0,0.0,0.0,0.0,0.0,0.0,0.0,0.0,0.0,0.0,0.0,0.0,0.0,0.0,0.0,0.0,0.0,0.0,0.0,0.0,0.0,0.0,0.0,0.0,0.0,0.0,0.0,0.0,0.0,0.0,0.0,0.0,0.0,0.0,0.0,0.0,0.0,0.0,0.0,0.0,0.0,0.0,0.0,0.0,0.0,0.0,0.0,0.0,0.0,0.0,0.0,0.0,0.0,0.0,0.0,0.0,0.0,0.0,0.0,0.0,0.0,0.0,0.0,0.0,0.0,0.0,0.0,0.0,0.0,0.0,0.0,-3.1152,-3.162,-3.2634,-3.5122,-3.52,-3.3728,-3.0203,-3.0748,-2.9784,-2.6224,0.0,0.0,0.0,0.0,0.0,0.0,0.0,0.0,0.0,0.0,0.0,0.0,0.0,0.0,0.0,0.0,0.0,0.0,0.0,0.0,0.0,0.0,0.0,0.0,0.0,0.0,0.0,0.0,0.0,0.0,0.0,0.0,0.0,0.0,0.0,0.0,0.0,0.0,0.0,0.0,0.0,0.0,0.0,0.0,0.0,0.0,0.0,0.0,0.0,0.0,0.0,0.0,0.0,0.0,0.0,0.0,0.0,0.0,0.0,0.0,-2.8013,0.0,0.0,0.0,0.0,0.0,0.0,0.0,0.0,0.0,0.0,0.0,0.0,0.0,0.0,0.0,0.0,0.0,0.0,0.0,0.0,0.0,0.0,0.0,0.0,0.0,0.0,0.0,0.0,0.0,0.0,0.0,0.0,0.0,0.0,0.0,0.0,0.0,0.0,0.0,0.0,0.0,-3.1052,-3.2416,-3.3449,-3.4379,-3.3231,-3.2243,-3.1931,-3.0723,-2.9654,-2.8869,-2.6594,0.0,0.0,0.0,0.0,0.0,0.0,0.0,0.0,0.0,0.0,0.0,0.0,0.0,0.0,0.0,0.0,0.0,0.0,0.0,0.0,0.0,0.0,0.0,0.0,0.0,0.0,0.0,0.0,0.0,0.0,0.0,0.0,0.0,0.0,0.0,0.0,0.0,0.0,0.0,0.0,0.0,0.0,0.0,0.0,0.0,0.0,0.0,0.0,0.0,0.0,0.0,0.0,0.0,0.0,0.0,0.0,0.0,0.0,0.0,0.0,-2.8287,0.0,0.0,0.0,0.0,0.0,0.0,0.0,0.0,0.0,0.0,0.0,0.0,0.0,0.0,0.0,0.0,0.0,0.0,0.0,0.0,0.0,0.0,0.0,0.0,0.0,0.0,0.0,0.0,0.0,0.0,0.0,0.0,0.0,0.0,0.0,0.0,0.0,0.0,0.0,0.0,-3.0182,-3.1228,-3.2327,-3.4134,-3.2945,-3.199,-3.1989,-3.1689,-3.0848,-2.9244,-2.8434,0.0,0.0,0.0,0.0,0.0,0.0,0.0,0.0,0.0,0.0,0.0,0.0,0.0,0.0,0.0,0.0,0.0,0.0,0.0,0.0,0.0,0.0,0.0,0.0,0.0,0.0,0.0,0.0,0.0,0.0,0.0,0.0,0.0,0.0,0.0,0.0,0.0,0.0,0.0,0.0,0.0,0.0,0.0,0.0,0.0,0.0,0.0,0.0,0.0,0.0,0.0,0.0,0.0,-3.1842,-3.2033,-3.201,-3.2003,-3.1708,-3.1146,-2.9537,-2.8556,-2.7944,-2.5364,0.0,0.0,0.0,0.0,0.0,0.0,0.0,0.0,0.0,0.0,0.0,0.0,0.0,0.0,0.0,0.0,0.0,0.0,0.0,0.0,0.0,0.0,0.0,0.0,-3.0211,-3.0643,-3.0264,0.0,0.0,0.0,0.0,0.0,0.0,0.0,0.0,0.0,0.0,0.0,-2.9349,-2.9669,-3.0881,-3.3829,-3.3155,-3.2302,-3.1691,-3.2706,-3.2168,-2.946,-2.9953,-2.9379,0.0,0.0,0.0,0.0,0.0,0.0,0.0,0.0,0.0,0.0,0.0,0.0,0.0,0.0,0.0,0.0,0.0,0.0,0.0,0.0,0.0,0.0,0.0,0.0,0.0,0.0,0.0,0.0,0.0,0.0,0.0,0.0,-2.6393,-2.7075,0.0,0.0,0.0,0.0,0.0,0.0,0.0,0.0,0.0,0.0,0.0,0.0,0.0,-2.8141,-3.0428,-3.0834,-3.1139,-3.1503,-3.3231,-3.4054,-3.4047,-3.4002,-3.3949,-3.3891,-3.3645,0.0,-3.0042,-2.7929,0.0,0.0,0.0,0.0,0.0,0.0,0.0,0.0,0.0,0.0,0.0,0.0,0.0,0.0,0.0,0.0,0.0,0.0,0.0,0.0,0.0,0.0,-3.2956,-3.2807,-3.2479,-3.2195,0.0,-3.0273,-2.8388,-2.7525,-2.7218,0.0,0.0,0.0,0.0,0.0,0.0,0.0,-2.9385,-3.0058,-3.0986,-3.2602,-3.2617,-3.2482,-3.2392,-3.2542,-3.2467,-3.2018,-3.0552,-2.9334,-2.8493,-2.7831,0.0,0.0,0.0,0.0,0.0,0.0,0.0,0.0,0.0,0.0,0.0,0.0,0.0,0.0,0.0,0.0,0.0,0.0,0.0,0.0,0.0,0.0,0.0,0.0,0.0,0.0,0.0,0.0,0.0,-2.4538,-2.5342,-2.6991,-2.7219,-2.6606,0.0,0.0,0.0,0.0,0.0,0.0,0.0,0.0,0.0,-2.804,-2.9189,-3.1097,-3.3724,-3.1624,-3.0522,-3.0556,-3.1378,-3.182,-3.1817,-3.1823,-3.1789,-3.1789,-3.1815,-3.1181,-3.0137,-2.954,-2.9315,-2.9333,0.0,0.0,0.0,0.0,-2.8341,-2.9481,-3.094,-3.2181,-3.2859,-3.1389,0.0,0.0,0.0,0.0,0.0,0.0,0.0,0.0,0.0,0.0,-3.3001,-3.3379,-3.3231,-3.3066,-3.3066,-3.1925,-3.0609,0.0,-2.8952,-2.8387,-2.7355,0.0,0.0,0.0,0.0,-2.8188,-2.9879,-3.0342,-3.1165,-3.2886,-3.2736,-3.2662,-3.3036,-3.341,-3.3305,-3.2557,-3.2407,-3.1704,-3.0353,-2.9648,-2.8778,0.0,0.0,0.0,0.0,0.0,0.0,0.0,0.0,0.0,0.0,0.0,0.0,0.0,0.0,0.0,0.0,0.0,0.0,0.0,0.0,0.0,0.0,0.0,0.0,0.0,0.0,0.0,0.0,-2.3603,-2.4563,-2.7275,-2.6965,-2.6048,0.0,0.0,0.0,0.0,0.0,0.0,-2.7225,-2.9714,-3.1104,-3.104,-3.1618,-3.2887,-3.4893,-3.1531,-2.981,-2.9835,-2.9835,-3.0108,-3.0615,-3.0087,-3.0152,-3.0624,-3.0636,-3.065,-3.0682,-3.1319,-3.1082,-3.052,-3.1768,-3.2229,-3.2019,-3.0081,-3.0288,-3.1856,-3.3742,-3.4483,-3.4241,-3.2526,-3.194,-3.1959,-3.1897,0.0,0.0,0.0,0.0,-3.0702,-3.2347,-3.2886,-3.314,-3.3634,-3.3739,-3.3739,-3.3739,-3.323,-3.2422,0.0,-3.0372,-2.9505,-2.8487,0.0,0.0,0.0,0.0,-2.8921,-3.0552,-3.0911,-3.1659,-3.332,-3.3215,-3.3215,-3.3709,-3.4352,-3.4247,-3.3095,-3.3784,-3.3425,-3.1556,-3.1046,-3.0163,-2.8929,0.0,0.0,0.0,0.0,0.0,0.0,0.0,0.0,0.0,0.0,0.0,0.0,0.0,0.0,0.0,0.0,0.0,0.0,0.0,0.0,0.0,0.0,0.0,0.0,0.0,0.0,0.0,0.0,0.0,-2.7218,-2.5328,0.0,0.0,0.0,0.0,-2.3895,-2.5486,-2.6418,-2.6538,-2.869,-2.9862,-2.9883,-3.1956,-3.3057,-3.3208,-3.0919,-2.9762,-2.9805,-2.9805,-3.0898,-3.2885,-3.0792,-3.096,-3.2937,-3.295,-3.2917,-3.3014,-3.3888,-3.2461,-3.016,-3.3086,-3.4222,-3.4259,-3.4122,-3.4098,-3.4241,-3.4364,-3.4573,-3.4808,-3.4382,-3.3849,-3.33,-3.2898,-3.2661,0.0,0.0,-3.2392,-3.2527,-3.326,-3.3903,-3.4382,-3.4412,-3.4427,-3.4427,-3.4427,-3.3903,-3.3245,0.0,-3.136,-3.0432,-3.0372,0.0,-2.943,-2.943,-2.9968,-3.0627,-3.139,-3.2033,-3.2691,-3.3425,-3.4023,-3.4382,-3.4427,-3.5055,-3.5145,-3.4427,-3.3858,-3.2946,-3.1541,-3.1437,-3.0923,-2.9741,-2.8989,0.0,0.0,0.0,0.0,0.0,0.0,0.0,0.0,0.0,0.0,0.0,0.0,0.0,0.0,0.0,0.0,0.0,0.0,0.0,0.0,0.0,0.0,0.0,0.0,0.0,0.0,0.0,0.0,-2.7181,-2.536,0.0,-2.6691,-2.5388,-2.5344,-2.7638,-2.9629,-3.0456,-2.9665,-3.042,-3.115,-3.1901,-3.2723,-3.2761,-3.1986,-3.1183,-3.0863,-3.0874,-3.1554,-3.231,-3.3049,-3.2301,-3.232,-3.3105,-3.3078,-3.2268,-3.0985,-3.1312,-3.1664,-3.206,-3.3098,-3.4907,-3.6724,-3.5904,-3.5638,-3.5663,-3.5972,-3.5902,-3.5474,-3.4594,-3.3918,-3.3442,-3.3276,-3.3246,-3.3336,-3.3681,-3.3784,-3.3933,-3.4607,-3.4966,-3.513,-3.513,-3.513,-3.513,-3.513,-3.4607,-3.4053,-3.3829,-3.2706,-3.1659,-3.124,-3.0612,-3.0178,-3.0178,-3.0357,-3.0911,-3.2018,-3.2362,-3.2931,-3.4008,-3.4337,-3.4651,-3.51,-3.4966,-3.4562,-3.3888,-3.3619,-3.3095,-3.2198,-3.2153,-3.1749,-3.0923,-3.0218,-2.9057,0.0,0.0,0.0,0.0,0.0,0.0,0.0,0.0,0.0,0.0,0.0,0.0,0.0,0.0,0.0,0.0,0.0,0.0,0.0,0.0,0.0,0.0,0.0,0.0,0.0,0.0,-2.5475,-2.7003,-2.5811,-2.5473,-2.691,-2.701,-2.7985,-3.0151,-3.1721,-3.2342,-3.2019,-3.197,-3.2123,-3.2498,-3.2541,-3.2122,-3.1399,-3.1073,-3.1004,-3.1427,-3.2137,-3.2697,-3.3062,-3.3071,-3.3135,-3.3098,-3.2647,-3.1689,-3.036,-3.0309,-3.1241,-3.2501,-3.215,-3.3585,-3.5969,-3.6201,-3.5813,-3.5252,-3.6047,-3.5937,-3.5433,-3.4857,-3.439,-3.411,-3.4173,-3.4173,-3.4262,-3.4696,-3.4816,-3.4936,-3.5385,-3.5504,-3.5504,-3.5504,-3.5504,-3.5504,-3.5504,-3.5145,-3.4816,-3.4816,-3.3754,-3.2706,-3.2273,-3.1824,-3.1452,-3.1146,-3.1336,-3.1796,-3.2716,-3.3048,-3.3604,-3.4711,-3.4816,-3.5011,-3.5474,-3.4876,-3.4397,-3.4188,-3.3544,-3.3066,-3.2856,-3.2198,-3.1629,-3.1195,-3.0537,-2.9654,-2.8666,0.0,0.0,0.0,0.0,0.0,0.0,0.0,0.0,0.0,0.0,0.0,0.0,0.0,0.0,0.0,0.0,0.0,0.0,0.0,0.0,0.0,0.0,0.0,-2.4885,-2.5887,-2.6453,-2.6411,-2.6419,-2.6909,-2.7906,-2.8068,-2.9036,-3.1138,-3.1332,-3.1914,-3.2989,-3.3059,-3.2548,-3.1411,-3.1369,-3.1381,-3.1399,-3.0404,-3.04,-3.1376,-3.1388,-3.1965,-3.3056,-3.3068,-3.3068,-3.3043,-3.1896,-3.1443,-3.1406,-3.1418,-3.1381,-3.1274,-3.0253,-3.0547,-3.1875,-3.5025,-3.4837,-3.3143,-3.4505,-3.4846,-3.4794,-3.5309,-3.5359,-3.5228,-3.5439,-3.5504,-3.5504,-3.5504,-3.5504,-3.5504,-3.5504,-3.5504,-3.5504,-3.5504,-3.5504,-3.5504,-3.5504,-3.5504,-3.5504,-3.5504,-3.4457,-3.3559,-3.3529,-3.3499,-3.3238,-3.2533,-3.3037,0.0,-3.3456,-3.4076,-3.4741,-3.5429,-3.5504,-3.5504,-3.5504,-3.4876,-3.4756,-3.54,-3.3604,-3.2796,-3.344,-3.1599,-3.0567,-3.0597,-3.0028,-3.0083,-3.0779,0.0,0.0,0.0,0.0,0.0,0.0,0.0,0.0,0.0,0.0,0.0,0.0,0.0,0.0,0.0,0.0,0.0,0.0,0.0,0.0,0.0,-2.1402,-2.1479,-2.2423,-2.3826,-2.4772,-2.4764,-2.5362,-2.5912,-2.6166,-2.8139,-2.9227,-2.8929,-3.0754,-3.1627,-3.1276,-3.2003,-3.211,-3.1411,-3.1392,-3.1405,-3.1386,-3.111,-3.1066,-3.136,-3.176,-3.2047,-3.2319,-3.2867,-3.3114,-3.3043,-3.2748,-3.2014,-3.106,-3.158,-3.1179,-3.0403,-3.1687,-3.2513,-3.3156,-3.3961,-3.4431,-3.4709,-3.535,-3.5575,-3.5569,-3.5523,-3.5439,-3.5439,-3.5504,-3.5504,-3.5504,-3.5504,-3.5504,-3.5504,-3.5504,-3.5504,-3.5504,-3.5504,-3.5504,-3.5504,-3.5504,-3.5504,-3.5504,-3.5504,-3.5205,-3.4801,-3.4292,-3.3814,-3.3438,-3.3238,-3.3362,0.0,-3.4129,-3.4345,-3.4741,-3.5429,-3.5504,-3.5504,-3.5504,-3.4876,-3.4352,-3.4068,-3.308,-3.2602,-3.2781,-3.2258,-3.2183,-3.2662,-3.2976,-3.3051,0.0,0.0,0.0,0.0,0.0,0.0,0.0,0.0,0.0,0.0,0.0,0.0,0.0,0.0,0.0,0.0,0.0,0.0,0.0,0.0,0.0,0.0,-2.1434,-2.123,-2.1507,-2.2695,-2.3709,-2.4062,-2.4722,-2.5333,-2.5541,-2.7269,-2.8276,-2.798,-2.9792,-3.079,-3.0688,-3.1697,-3.2064,-3.1738,-3.1738,-3.1625,-3.1386,-3.1386,-3.1499,-3.1738,-3.2051,-3.2328,-3.2456,-3.2905,-3.3054,-3.3119,-3.2866,-3.2275,-3.1442,-3.165,-3.1271,0.0,0.0,0.0,0.0,0.0,-3.3252,-3.4411,-3.4761,-3.5127,-3.5503,-3.5413,-3.5439,-3.5504,-3.5504,-3.5504,-3.5504,-3.5504,-3.5504,-3.5504,-3.5504,-3.5504,-3.5504,-3.5504,-3.5504,-3.5504,-3.5504,-3.5504,-3.5504,-3.5504,-3.5504,0.0,-3.4981,-3.4592,-3.4196,-3.3898,-3.4118,-3.433,-3.4416,-3.4684,-3.5055,-3.5459,-3.5504,-3.5504,-3.5504,-3.4876,0.0,0.0,0.0,-3.2931,-3.2931,-3.2931,0.0,0.0,0.0,0.0,0.0,0.0,0.0,0.0,-3.5857,-3.5872,0.0,0.0,0.0,0.0,0.0,0.0,0.0,0.0,0.0,0.0,0.0,0.0,0.0,0.0,0.0,0.0,-2.1643,-2.1648,-2.1638,-2.2273,-2.2983,-2.3772,-2.4328,-2.4839,-2.5281,-2.5916,-2.6702,-2.7687,-2.8775,-2.9808,-3.0688,0.0,0.0,0.0,0.0,-3.1913,-3.1486,-3.1486,-3.1763,-3.2303,-3.2303,-3.2579,-3.3081,-3.3081,-3.3081,-3.3043,-3.2466,-3.2177,-3.2077,-3.1599,-3.1348,-3.126,-3.0796,-3.0319,-2.9945,-3.0633,-3.1842,-3.3143,-3.3437,0.0,0.0,-3.5148,-3.5294,-3.5439,-3.5504,-3.5504,-3.5504,-3.5504,-3.5504,-3.5504,-3.5504,-3.5504,-3.5504,-3.5504,-3.5504,-3.5504,-3.5504,-3.5504,-3.5504,-3.5504,-3.5504,-3.5504,-3.5504,-3.5504,-3.5279,-3.4528,-3.5052,-3.5213,-3.4528,-3.5052,-3.5504,-3.5504,0.0,0.0,-3.5504,-3.4936,-3.4816,-3.5355,-3.4337,-3.3724,-3.3724,-3.3933,-3.4292,-3.4801,-3.4966,-3.5848,-3.7524,-3.7674,-3.8661,-4.0337,-3.7647,-3.7322,0.0,0.0,0.0,0.0,0.0,0.0,0.0,0.0,0.0,0.0,0.0,0.0,0.0,0.0,0.0,-2.18,-2.1483,-2.1356,-2.1676,-2.1899,-2.2071,-2.2231,-2.2991,-2.3551,-2.3636,-2.5033,-2.6014,-2.6201,-2.8549,-2.9868,-2.9651,-3.1215,-3.2001,-3.1562,-3.1549,-3.1712,-3.2051,-3.2051,-3.234,-3.2918,0.0,0.0,-3.3081,-3.3081,-3.3081,-3.3043,-3.2466,-3.1951,-3.1537,-3.1436,-3.1148,-3.0758,-3.0658,-3.0557,-3.0473,-3.0788,-3.1476,-3.2434,-3.3213,-3.4016,-3.4765,-3.5082,-3.5213,-3.5294,-3.5439,-3.5504,0.0,-3.5504,-3.5504,-3.5504,-3.5504,-3.5504,-3.5504,-3.5504,-3.5504,-3.5504,-3.5504,-3.5504,-3.5504,-3.5504,-3.5504,-3.5504,-3.5504,-3.5504,-3.5439,-3.5279,-3.5424,-3.5424,-3.5279,-3.5424,-3.5504,-3.5504,-3.5504,-3.5504,-3.5504,-3.5385,-3.513,-3.4696,-3.4951,-3.5115,-3.5115,-3.6611,-3.7255,-3.6851,-3.7913,-3.8377,-3.8197,-3.929,-4.0023,-4.0382,-3.9811,-4.0006,0.0,0.0,0.0,0.0,0.0,0.0,0.0,0.0,0.0,0.0,0.0,-2.314,-2.3051,0.0,-2.1562,-2.2455,-2.1789,-2.128,-2.1745,-2.1807,-2.1807,-2.1807,-2.2418,-2.2925,-2.3163,-2.4198,-2.4934,-2.5168,-2.6858,-2.8252,-2.9022,-2.9953,-3.0979,-3.2227,-3.1794,-3.1833,-3.2641,-3.2641,-3.2792,-3.3081,-3.278,-3.2641,-3.2641,-3.2353,-3.2378,-3.2616,-3.2051,-3.165,-3.1348,-3.0809,-3.0432,-3.0206,-3.0206,-3.0206,-3.0247,-3.0305,-3.0846,-3.1623,-3.2506,-3.3451,-3.4317,-3.4868,-3.5213,-3.5359,-3.5439,-3.5504,-3.5504,-3.5504,-3.5504,-3.5504,-3.5504,-3.5504,-3.5504,-3.5504,-3.5504,-3.5504,-3.5504,-3.5504,-3.5504,-3.5504,-3.5504,-3.5504,-3.5504,-3.5504,-3.5504,-3.5504,-3.5504,-3.5504,-3.5504,-3.5504,-3.5504,-3.5504,-3.5504,-3.5504,-3.5504,-3.5504,-3.5504,-3.5474,-3.5804,-3.6282,-3.6926,-3.7868,-3.8392,-3.8407,-3.8736,-3.8736,-3.8392,-3.9409,-4.0083,-4.0412,-4.107,-4.1549,0.0,0.0,0.0,0.0,0.0,0.0,0.0,0.0,-2.4963,-2.4859,-2.4359,-2.41,-2.4761,-2.3032,-2.1901,-2.3074,-2.2107,-2.1383,-2.1756,-2.1807,-2.1807,-2.1807,-2.2211,-2.2677,-2.3143,-2.3608,-2.4064,-2.4509,-2.5433,-2.6683,-2.8425,-2.8746,-3.0013,-3.25,-3.1901,-3.1989,-3.2797,-3.287,-3.2918,-3.2905,-3.2328,-3.2051,-3.2039,-3.17,-3.1788,-3.2177,-3.1625,-3.1273,-3.1009,-3.0143,-2.9792,-2.9792,-2.9792,-2.9792,-2.9792,-2.9792,-3.0279,-3.1044,-3.1783,-3.2791,-3.3796,-3.4639,-3.5148,-3.5424,-3.5504,-3.5504,-3.5504,-3.5504,-3.5504,-3.5504,-3.5504,-3.5504,-3.5504,-3.5504,-3.5504,-3.5504,-3.5504,-3.5504,-3.5504,-3.5504,-3.5504,-3.5504,-3.5504,-3.5504,-3.5504,-3.5504,-3.5504,-3.5504,-3.5504,-3.5504,-3.5504,-3.5504,-3.5504,-3.5504,-3.5504,-3.5624,-3.5923,-3.6447,-3.6716,-3.7315,-3.8347,-3.8527,-3.8856,-3.9409,-3.8736,-3.8452,-3.8601,-3.9275,-3.9948,-4.0621,-4.1938,-4.2551,-2.8987,-2.8849,-2.8584,-2.7702,-2.7352,-2.7317,0.0,0.0,-2.5617,-2.5754,-2.4982,-2.4341,-2.4389,-2.3341,-2.2695,-2.3189,-2.2388,-2.1745,-2.1797,-2.1807,-2.1807,-2.1807,-2.2211,-2.2677,-2.3143,-2.3608,-2.4064,-2.4509,-2.583,-2.6898,-2.7525,-2.8729,-2.9762,-3.0508,-3.1258,-3.1625,-3.1813,-3.2116,-3.2303,-3.2303,-3.175,-3.1486,-3.1499,-3.1926,-3.2152,-3.2177,-3.1625,-3.0846,-2.9967,-2.9842,-2.9792,-2.9792,-2.9792,-2.9792,-2.9792,-2.9792,-3.0279,-3.1044,-3.1783,-3.2577,-3.3437,-3.4572,-3.4935,-3.5001,-3.5359,-3.5504,-3.5504,-3.5504,-3.5504,-3.5504,-3.5504,-3.5504,-3.5504,-3.5504,-3.5504,-3.5504,-3.5504,-3.5504,-3.5504,-3.5504,-3.5504,-3.5504,-3.5504,-3.5504,-3.5504,-3.5504,-3.5504,-3.5504,-3.5504,-3.5504,-3.5504,-3.5504,-3.5504,-3.5504,-3.5504,-3.6043,-3.6417,-3.6492,-3.7554,-3.8242,-3.8377,-3.8975,-3.9334,-3.9424,-3.8736,-3.8691,-3.9305,-3.9963,-4.0621,-4.1309,-4.2611,-4.3225,-2.958,-2.8783,-2.8157,0.0,-2.8136,-2.7999,-2.8081,-2.747,-2.6891,-2.6795,-2.5742,-2.5037,-2.5526,-2.3986,-2.2857,0.0,-2.2689,-2.1807,-2.1807,-2.1807,-2.1807,-2.1807,-2.2211,-2.2677,-2.3143,-2.336,-2.3774,-2.4488,-2.5049,-2.5862,-2.6932,-2.6976,-2.7723,-2.9351,-2.9484,-3.009,-3.1156,-3.16,-3.2179,-3.2704,-3.1813,-3.1549,-3.1838,-3.1135,-3.0984,-3.1273,-3.1035,-3.0683,-3.0244,-2.993,-2.9792,-2.9792,-2.9792,-2.9792,-2.9792,-2.9792,-3.0279,-3.1044,-3.1783,-3.2648,-3.3506,-3.4572,-3.4935,-3.5001,-3.5359,-3.5439,-3.5359,-3.5439,-3.5504,-3.5504,-3.5504,-3.5504,-3.5504,-3.5504,-3.5504,-3.5504,-3.5504,-3.5504,-3.5504,-3.5504,-3.5504,-3.5504,-3.5504,-3.5504,-3.5504,-3.5504,-3.5504,-3.5504,-3.5504,-3.5504,-3.5504,-3.5504,-3.5504,-3.5669,-3.6043,-3.6327,-3.6806,-3.7554,-3.8093,-3.8571,-3.8975,-3.9275,-3.9424,-3.9424,-3.9125,-3.9125,-3.9424,-4.0457,-4.1115,-4.1414,-4.2731,-4.3329,-2.8445,-2.8042,-2.8158,-2.8657,-2.8408,-2.8113,-2.8442,-2.7938,-2.7455,-2.7597,-2.6315,-2.5377,-2.6234,-2.4248,-2.2823,-2.3693,-2.2733,-2.1807,-2.1807,-2.1807,-2.1859,-2.1983,-2.2294,-2.2729,-2.3318,-2.3267,-2.3567,-2.4467,-2.4426,-2.4944,-2.6206,-2.5564,-2.6027,-2.7939,-2.7866,-2.8656,-3.0474,-3.0973,-3.1711,-3.283,-3.1712,-3.1386,-3.1738,-3.0557,-3.0231,-3.062,-3.062,-3.0532,-3.0357,-2.9955,-2.9792,-2.9792,-2.9792,-2.9792,-2.9792,-2.9792,-3.0279,-3.1044,-3.1783,-3.2648,-3.3575,-3.452,-3.4868,-3.4949,-3.5294,-3.5294,-3.5228,-3.5439,-3.5504,-3.5504,-3.5504,-3.5504,-3.5504,-3.5504,-3.5504,-3.5504,-3.5504,-3.5504,-3.5504,-3.5504,-3.5504,-3.5504,-3.5504,-3.5504,-3.5504,-3.5504,-3.5504,-3.5504,-3.5504,-3.5504,-3.5504,-3.5504,-3.5669,-3.5968,-3.6447,-3.6806,-3.7404,-3.8332,-3.8571,-3.8901,-3.9394,-3.923,-3.9125,-3.9125,-3.896,-3.905,-3.9424,-4.0561,-4.1294,-4.1669,-4.2806,-4.324,-2.5522,-2.6961,-2.9255,-2.8876,-2.8071,-2.7719,-2.9109,-2.7867,-2.6718,-2.7996,-2.6515,-2.5141,-2.5693,-2.3988,-2.2708,-2.3235,-2.2442,-2.1807,-2.1807,-2.1807,-2.1973,-2.2418,-2.249,-2.2853,-2.3774,-2.3453,-2.3567,-2.4467,-2.4146,-2.4291,-2.5181,-2.5233,-2.543,-2.5955,-2.685,-2.8032,-2.9489,-2.9974,-3.0856,-3.2227,-3.116,-3.0645,-3.067,-3.062,-3.0595,-3.062,-3.062,-3.0306,-2.9817,-2.9804,-2.9792,-2.9792,-2.9792,-2.9792,-2.9792,-2.9792,-3.0279,-3.1044,-3.1783,-3.2577,-3.3367,-3.4399,-3.4698,-3.4765,-3.5082,-3.5213,-3.5228,-3.5439,-3.5504,-3.5504,-3.5504,-3.5504,-3.5504,-3.5504,-3.5504,-3.5504,-3.5504,-3.5504,-3.5504,-3.5504,-3.5504,-3.5504,-3.5504,-3.5504,-3.5504,-3.5504,-3.5504,-3.5504,-3.5504,-3.5504,-3.5504,-3.5504,-3.6073,-3.6462,-3.6492,-3.7614,-3.8347,-3.8392,-3.902,-3.9394,-3.9424,-3.8781,-3.8422,-3.8422,-3.7793,-3.8108,-3.9424,-4.0098,-4.1085,-4.2342,-4.3015,-4.3,-2.4799,-2.6896,-2.9314,-2.8895,-2.8337,-2.7872,-2.7767,-2.8339,-2.8579,-2.7365,-2.5792,-2.4681,-2.4611,-2.2922,-2.1772,-2.2662,-2.1955,-2.1455,-2.1766,-2.2066,-2.2325,-2.248,-2.2625,0.0,-2.3846,-2.3463,0.0,-2.4467,-2.4136,-2.4136,-2.4747,-2.4778,-2.484,-2.4985,-2.5539,-2.6715,-2.851,-2.9253,-3.0373,-3.1662,-3.1298,-3.0758,-3.008,-3.0457,-3.0419,-3.0068,-3.0068,-2.9967,-2.9792,-2.9792,-2.9792,-2.9792,-2.9792,-3.0062,-3.0545,-3.0545,-3.1341,-3.242,-3.2146,-3.2946,-3.4045,-3.4563,-3.4631,-3.4616,-3.5082,-3.5082,-3.5082,-3.5439,-3.5504,-3.5504,-3.5504,-3.5504,-3.5504,-3.5504,-3.5504,-3.5504,-3.5504,-3.5504,-3.5504,-3.5504,-3.5504,-3.5504,-3.5504,-3.5504,-3.5504,-3.5504,-3.5504,-3.5504,-3.5504,-3.5504,-3.5669,-3.6118,-3.6357,-3.6836,-3.7674,-3.8138,-3.8586,-3.905,-3.8856,-3.8736,-3.8736,-3.8093,-3.7943,-3.8377,-3.8631,-3.9394,-4.0726,-4.1384,-4.2439,-4.3808,-4.2995,-4.3087,-2.5929,-2.7795,-2.9344,-2.9071,-2.8421,-2.7624,-2.6669,-2.7919,-2.8769,-2.6871,-2.5511,-2.4437,-2.3864,-2.1981,-2.0905,-2.1934,-2.1377,-2.1071,-2.1547,-2.1903,-2.2119,-2.219,-2.2306,-2.2624,-2.3313,-2.3183,0.0,-2.4402,-2.4136,-2.4074,-2.4519,-2.454,-2.454,-2.454,-2.483,-2.5818,-2.751,-2.8218,-2.9215,-3.0679,-3.0948,-3.0645,-2.9804,-3.0168,-3.0131,-2.9792,-2.9792,-2.9792,-2.9792,-2.9792,-2.9792,-2.9792,-2.9792,-3.0062,-3.0545,-3.082,-3.1696,-3.2791,-3.2577,-3.3311,-3.4414,-3.4563,-3.4481,-3.4481,-3.4883,-3.4935,-3.5001,-3.5294,-3.5439,-3.5504,-3.5504,-3.5504,-3.5504,-3.5504,-3.5504,-3.5504,-3.5504,-3.5504,-3.5504,-3.5504,-3.5504,-3.5504,-3.5504,-3.5699,-3.5863,-3.5863,-3.6043,-3.6103,-3.5893,-3.5863,-3.6103,-3.6746,-3.703,-3.7494,-3.8317,-3.8392,-3.8571,-3.902,-3.8407,-3.8033,-3.8033,-3.7419,-3.7494,-3.8377,-3.8826,-3.9813,-4.1384,-4.2043,-4.3015,-4.4065,-4.3198,-4.3381,-2.8558,-2.9407,-2.9403,-2.9392,-2.8362,-2.7048,-2.5933,-2.6669,-2.7381,-2.6536,-2.554,-2.4496,-2.3472,-2.1394,-2.0106,-2.0971,-2.0685,-2.0635,-2.1332,-2.1391,-2.1471,0.0,0.0,0.0,0.0,0.0,0.0,-2.4337,0.0,-2.4074,-2.4519,-2.454,-2.454,-2.454,-2.454,-2.5156,-2.6615,-2.6786,-2.7633,-2.9419,-3.0158,-3.0306,-2.9792,-2.9792,-2.9792,-2.9792,-2.9792,-2.9792,-2.9792,-2.9792,-2.9792,-2.9792,-2.9792,-2.9869,-2.9998,-3.0696,-3.1476,-3.2304,-3.3017,-3.3742,-3.4414,-3.4414,-3.4414,-3.4414,-3.4631,-3.4817,-3.4935,-3.5148,-3.5359,-3.5504,-3.5504,-3.5504,-3.5504,-3.5504,-3.5504,-3.5504,-3.5504,-3.5504,-3.5504,-3.5504,-3.5504,-3.5519,-3.5549,-3.6043,-3.6447,-3.6477,-3.6956,-3.7105,-3.6552,-3.6492,-3.6716,-3.73,-3.7913,-3.8302,-3.8347,-3.8347,-3.8347,-3.8347,-3.7719,-3.736,-3.736,-3.6858,-3.7143,-3.8432,-3.8577,-3.9598,-4.158,-4.2241,-4.2895,-4.3494,-4.3494,-4.392,-2.9173,-2.9405,-2.9403,-2.9399,-2.8676,-2.7789,-2.7045,-2.6498,-2.6076,-2.5837,-2.4522,-2.3331,-2.3031,-2.1275,0.0,-1.902,-1.9735,0.0,-2.1214,-2.1139,0.0,-2.1646,0.0,-2.1887,-2.2385,-2.2145,0.0,0.0,-2.3873,-2.4074,-2.4519,-2.454,-2.454,-2.454,-2.454,-2.4998,-2.6016,-2.7346,-2.8778,-3.0276,-3.0115,-2.993,-2.9792,-2.9792,-2.9792,-2.9792,-2.9792,-2.9792,-2.9792,-2.9792,-2.9792,-2.9792,-2.9792,-3.0508,-3.1502,-3.1709,-3.2662,-3.3825,-3.4045,-3.4264,-3.4414,-3.4414,-3.4414,-3.4481,-3.4735,-3.4868,-3.5001,-3.5294,-3.5439,-3.5504,-3.5504,-3.5504,-3.5504,-3.5504,-3.5504,-3.5504,-3.5504,-3.5504,-3.5504,-3.5504,-3.5504,-3.5669,-3.6148,-3.5968,-3.5923,-3.6417,-3.6207,-3.6103,-3.6447,-3.6492,-3.6552,-3.6701,-3.6866,-3.7165,-3.7629,-3.7659,-3.7659,-3.7659,-3.706,-3.6716,-3.6716,-3.7036,-3.7866,-3.9281,-4.0758,-4.231,-4.3831,-4.4518,-4.4928,-4.5096,-4.4567,-4.4709,-2.94,-2.9312,-2.923,-2.9229,-2.8891,-2.8333,-2.7478,-2.6399,-2.5598,-2.5591,-2.3288,-2.1316,-2.1477,-2.0564,-1.9494,0.0,0.0,0.0,-2.1057,-2.1072,-2.1012,0.0,-2.106,0.0,-2.1042,-2.1034,-2.1557,0.0,-2.3609,-2.4281,-2.4529,-2.454,-2.454,-2.454,-2.454,-2.47,-2.5263,-2.6987,-2.8286,-2.9068,-2.9526,-2.9792,-2.9792,-2.9792,-2.9792,-2.9792,0.0,-2.9792,-2.9792,-2.9792,-2.9792,-2.9792,-2.9792,-3.0508,-3.1636,-3.2001,-3.2875,-3.3894,-3.4264,-3.4414,-3.4414,-3.4414,-3.4414,-3.4481,-3.475,-3.4868,-3.5001,-3.5294,-3.5439,-3.5504,-3.5504,-3.5504,-3.5504,-3.5504,-3.5504,-3.5504,-3.5504,-3.5504,-3.5504,-3.5504,-3.5504,-3.5624,-3.5998,-3.5983,-3.6058,-3.6432,-3.6402,-3.6372,-3.6477,-3.6492,-3.6596,-3.6866,-3.6881,-3.703,-3.7375,-3.7165,-3.7,-3.7,-3.6975,-3.696,-3.696,-3.8178,-3.9513,-4.0888,-4.2374,-4.3601,-4.4654,-4.5049,-4.5212,-4.519,-4.487,-4.525,-2.9383,-2.9182,-2.9001,-2.8991,-2.8889,-2.853,-2.7521,-2.6134,-2.5151,-2.5503,0.0,-1.9318,-2.0051,-1.9965,-1.9645,-1.9187,0.0,-1.9837,-2.0882,-2.101,-2.081,-2.0339,-2.0309,-2.0036,-1.953,-1.985,-2.0454,-2.1409,-2.3299,-2.4368,-2.454,-2.454,-2.454,-2.454,-2.454,-2.4625,-2.4871,-2.6329,-2.7232,-2.7476,-2.9052,-2.9792,-2.9792,-2.9792,-2.9792,-2.9792,-2.9792,-2.9792,-2.9792,-2.9792,-2.9792,-2.9792,-2.9934,-3.0419,-3.1193,-3.1928,-3.272,-3.3451,-3.4182,-3.4414,-3.4414,-3.4414,-3.4414,-3.4414,-3.4698,-3.4817,-3.4935,-3.5148,-3.5359,-3.5504,-3.5504,-3.5504,-3.5504,-3.5504,-3.5504,-3.5504,-3.5504,-3.5504,-3.5504,-3.5504,-3.5504,-3.5534,-3.5624,-3.6028,-3.6387,-3.6477,-3.6866,-3.6971,-3.6417,-3.6432,-3.6656,-3.7105,-3.7165,-3.7165,-3.7165,-3.6723,-3.6475,-3.6475,-3.7192,-3.7653,-3.7653,-3.9661,-4.1374,-4.2706,-4.3476,-4.4193,-4.4935,-4.484,-4.4685,-4.4594,-4.4788,-4.5587,-2.9251,-2.9035,-2.9008,-2.9017,-2.8283,-2.7538,-2.7332,-2.4585,0.0,0.0,-2.2128,-1.9759,-2.1949,-2.0979,-1.968,-1.919,-2.0359,-2.1156,-2.0541,-2.041,-2.0384,0.0,-2.0337,-2.0205,-2.0112,-1.9488,0.0,0.0,-2.2492,-2.3937,-2.4454,-2.454,-2.454,-2.454,-2.454,-2.5189,-2.6659,-2.6987,-2.7891,-2.9378,-2.9624,-2.9792,-2.9792,-2.9792,-2.9792,-2.9792,-2.9792,0.0,-2.9792,-2.9792,-2.9792,-2.9856,-3.0482,-3.1193,-3.2001,-3.272,-3.352,-3.4196,-3.4332,-3.4414,-3.4414,-3.4414,-3.4414,-3.4481,-3.4735,-3.4868,-3.5001,-3.5359,-3.5439,-3.5504,-3.5504,-3.5504,-3.5504,-3.5504,-3.5504,-3.5504,-3.5504,-3.5504,-3.5504,-3.5504,-3.5504,-3.5684,-3.6222,-3.5953,-3.5863,-3.6402,-3.6118,-3.5789,-3.5684,-3.6148,-3.6327,-3.5878,-3.5833,-3.5833,-3.5833,-3.6201,-3.6427,-3.6427,-3.7623,-3.8351,-3.8351,-4.0315,-4.2118,-4.3525,-4.4213,-4.5203,-4.6471,-4.5863,-4.5253,-4.4702,-4.5923,-4.63,-2.9735,-2.9325,-2.8992,-2.8994,-2.858,-2.8012,-2.7452,0.0,0.0,0.0,-2.2158,-2.114,-2.1244,-2.0474,-1.9356,-1.7947,-1.8897,-1.9674,-1.9154,-1.9827,-1.9868,-1.8827,-1.9662,-1.9937,-1.8819,-1.8768,-1.9076,-1.9711,-2.1747,-2.3222,-2.3937,-2.4282,-2.454,-2.454,-2.4935,-2.5589,-2.64,-2.7395,-2.8291,-2.9118,-2.9546,-2.9792,-2.9792,-2.9792,-2.9792,-2.9792,-2.9792,0.0,-2.9792,-2.9792,-2.9998,-3.0419,-3.0758,-3.1623,-3.272,-3.3073,-3.3742,-3.4414,-3.4414,-3.4414,-3.4414,-3.4414,-3.4414,-3.4467,-3.4802,-3.4935,-3.5001,-3.5359,-3.5504,-3.5504,-3.5504,-3.5504,-3.5504,-3.5504,-3.5504,-3.5504,-3.5504,-3.5504,-3.5504,-3.5504,-3.5504,-3.5609,-3.5923,-3.5714,-3.5609,-3.5923,-3.5993,-3.5973,-3.5973,-3.6534,-3.6737,-3.6067,-3.5973,-3.6085,-3.6445,-3.7126,-3.7497,-3.7497,-3.9163,-4.0119,-4.0119,-4.2118,-4.3535,-4.4269,-4.4929,-4.5417,-4.5748,-4.5384,-4.5235,-4.5284,-4.5997,-4.6543,-2.9134,-2.8558,-2.8153,-2.881,-2.9007,-2.8694,-2.7543,-2.434,0.0,-2.1326,-2.2161,-2.2265,-2.017,-1.9282,-1.8295,0.0,-1.6506,-1.6625,-1.6661,-1.8371,-1.9031,-1.7507,-1.8658,0.0,-1.7431,-1.8034,0.0,-1.9505,-2.1311,-2.2765,-2.3667,-2.4196,-2.454,-2.454,-2.5179,-2.5663,-2.6069,-2.7476,-2.8383,-2.8791,-2.9456,-2.9792,-2.9792,-2.9792,-2.9792,-2.9792,-2.9792,0.0,0.0,-2.9998,-3.0419,-3.097,-3.1254,-3.2132,-3.3213,-3.3367,-3.3894,-3.4414,-3.4414,-3.4414,-3.4414,-3.4414,-3.4414,-3.4481,-3.4735,-3.4868,-3.5001,-3.5359,-3.5439,-3.5504,-3.5504,-3.5504,-3.5504,-3.5504,-3.5504,-3.5504,-3.5504,-3.5619,-3.5668,-3.5668,-3.5797,-3.591,-3.591,-3.591,-3.591,-3.591,-3.6321,-3.66,-3.66,-3.7071,-3.7251,-3.6829,-3.6662,-3.6845,-3.737,-3.8181,-3.8715,-3.8715,-4.0663,-4.1776,-4.1776,-4.3504,-4.4522,-4.4688,-4.5102,-4.5119,-4.4688,-4.4522,-4.4837,-4.5566,-4.5715,-4.651,-2.5672,-2.5164,-2.5353,-2.8257,-2.8997,-2.8711,-2.7543,0.0,-2.2344,-2.1477,-2.2147,-2.2241,-2.0169,-1.7583,-1.592,-1.6321,0.0,-1.2177,-1.2228,-1.5307,-1.7541,-1.7308,0.0,0.0,-1.7323,-1.735,-1.8164,-2.0046,-2.1616,-2.3018,-2.4368,-2.4454,-2.454,-2.454,-2.4625,-2.5348,-2.6987,-2.7151,-2.8051,-2.9702,-2.9792,-2.9792,-2.9792,-2.9792,-2.9792,-2.9792,-2.9792,0.0,0.0,-3.0545,-3.082,-3.1044,-3.242,-3.3073,-3.3297,-3.4045,-3.4346,-3.4414,-3.4414,-3.4414,-3.4414,-3.4414,-3.4414,-3.4414,-3.4631,-3.4817,-3.4935,-3.5148,-3.5359,-3.5504,-3.5504,-3.5504,-3.5504,-3.5504,-3.5504,-3.5504,-3.5504,-3.591,-3.6321,-3.6321,-3.6784,-3.7251,-3.7251,-3.7251,-3.7251,-3.7251,-3.7251,-3.731,-3.731,-3.737,-3.7605,-3.8051,-3.7663,-3.731,-3.737,-3.8595,-3.9305,-3.9305,-4.1271,-4.2402,-4.2402,-4.3238,-4.4026,-4.4671,-4.4125,-4.4108,-4.4688,-4.4042,-4.4092,-4.4804,-4.5483,-4.6228,-2.4525,-2.4877,-2.5337,-2.8081,-2.8779,-2.8684,-2.8388,0.0,-2.4725,-2.34,-2.2987,-2.2175,-1.975,-1.7171,-1.5608,-1.6264,-1.3684,-1.1838,-1.262,-1.5389,-1.7327,-1.7323,-1.731,0.0,0.0,0.0,-1.8271,-2.0619,-2.2106,-2.3271,-2.4292,-2.4454,-2.454,-2.454,-2.502,-2.5841,-2.7069,-2.7637,-2.8554,-2.9792,-2.9792,-2.9792,-2.9792,-2.9792,-2.9792,-2.9792,-2.9792,0.0,0.0,-3.062,-3.1193,-3.1709,-3.2791,-3.352,-3.3962,-3.4264,-3.4414,-3.4414,-3.4414,-3.4414,-3.4414,-3.4414,-3.4414,-3.4414,-3.4631,-3.4817,-3.4935,-3.5148,-3.5359,-3.5504,-3.5504,-3.5504,-3.5504,-3.5504,-3.5504,-3.5504,-3.5504,-3.5973,-3.643,-3.643,-3.6951,-3.7429,-3.7429,-3.7429,-3.7429,-3.7429,-3.7706,-3.7937,-3.7937,-3.8311,-3.8623,-3.8898,-3.8311,-3.8124,-3.8495,-3.9837,-4.0606,-4.0606,-4.2237,-4.3181,-4.3181,-4.3462,-4.3761,-4.4042,-4.3761,-4.3761,-4.4042,-4.4191,-4.4638,-4.5367,-4.6113,-4.6858,-2.4093,-2.5,-2.5578,-2.7992,-2.8603,-2.8546,-2.8365,-2.7483,-2.6241,-2.4623,-2.3438,-2.1937,-1.9469,-1.7024,-1.5568,0.0,-1.3578,-1.1919,-1.2832,-1.4797,-1.6356,-1.6654,0.0,-1.7298,0.0,-1.8126,-1.9364,-2.123,-2.2432,-2.3329,-2.3927,-2.4173,-2.4343,-2.4343,-2.5031,-2.5931,-2.6932,-2.7728,-2.8633,-2.9792,-2.9792,-2.9792,-2.9792,-2.9792,-2.9792,-2.9792,-2.9792,0.0,0.0,-3.0908,-3.1709,-3.2506,-3.3227,-3.3894,-3.4414,-3.4414,-3.4414,-3.4414,-3.4414,-3.4414,-3.4414,-3.4414,-3.4414,-3.4414,-3.4563,-3.475,-3.4935,-3.5082,-3.5294,-3.5504,-3.5504,-3.5504,-3.5504,-3.5504,-3.5619,-3.5797,-3.5797,-3.6368,-3.6951,-3.6951,-3.7488,-3.7953,-3.7953,-3.7953,-3.7953,-3.7953,-3.8311,-3.859,-3.859,-3.9023,-3.9272,-3.9272,-3.8898,-3.8788,-3.9272,-4.058,-4.1409,-4.1409,-4.28,-4.3628,-4.3628,-4.3628,-4.3628,-4.3628,-4.3628,-4.3727,-4.3943,-4.444,-4.5185,-4.6129,-4.6659,-4.7305,-2.4093,-2.501,-2.5588,-2.801,-2.8607,-2.8271,-2.7009,-2.6723,-2.6247,-2.4636,-2.3156,-2.1561,-1.9391,-1.7057,-1.5409,-1.5384,-1.3257,-1.1587,-1.1589,-1.2708,-1.4018,0.0,0.0,-1.7326,-1.7326,-1.9945,-2.168,-2.1706,-2.2539,0.0,-2.3469,-2.3794,-2.3888,-2.3888,-2.4312,-2.5134,-2.6507,-2.6909,-2.8051,-2.9792,-2.9792,-2.9792,-2.9792,-2.9792,-2.9792,-2.9792,0.0,0.0,0.0,-3.1783,-3.2506,-3.3297,-3.4045,-3.4414,-3.4414,-3.4414,-3.4414,-3.4414,-3.4414,-3.4414,-3.4414,-3.4414,-3.4414,-3.4414,-3.4414,-3.4616,-3.4935,-3.4935,-3.5213,-3.5504,-3.5504,-3.5504,-3.5504,-3.5504,-3.5973,-3.6368,-3.6368,-3.7413,-3.8278,-3.8278,-3.8827,-3.9272,-3.9272,-3.9272,-3.9272,-3.9272,-3.9272,-3.9272,-3.9272,-3.9272,-3.9272,-3.9272,-3.9272,-3.9272,-3.9272,-4.058,-4.1409,-4.1409,-4.28,-4.3628,-4.3628,-4.3628,-4.3628,-4.3628,-4.3628,-4.3976,-4.4671,-4.4688,-4.5433,-4.6891,-4.6891,-4.7305,-2.7453,-2.8361,-2.8389,-2.8563,-2.8585,-2.8269,-2.6985,-2.5843,-2.4922,-2.4416,-2.32,-2.1526,-1.9401,-1.7047,-1.5417,-1.5386,-1.3278,0.0,-1.2815,0.0,0.0,-1.6536,-1.7011,-1.7311,0.0,0.0,-2.2161,-2.0943,-2.2265,-2.3033,-2.2847,-2.3238,-2.3412,-2.3412,-2.4395,-2.5282,-2.5888,-2.7364,-2.844,-2.9202,-2.9603,-2.9792,-2.9792,-2.9792,-2.9792,0.0,0.0,0.0,0.0,-3.2277,-3.3003,-3.3297,-3.4113,-3.4414,-3.4414,-3.4414,-3.4414,-3.4414,-3.4414,-3.4414,-3.4414,-3.4414,-3.4414,-3.4414,-3.4414,-3.4601,-3.5052,-3.5737,-3.6006,-3.6196,-3.6662,-3.6784,-3.6784,-3.6784,-3.6951,-3.7071,-3.7071,-3.7706,-3.8278,-3.8278,-3.8843,-3.9272,-3.9272,-3.9272,-3.9272,-3.9272,-3.9272,-3.9272,-3.9272,-3.9272,-3.9272,-3.9272,-3.9736,-4.0034,-4.0034,-4.0878,-4.164,-4.2137,-4.3081,-4.3628,-4.3628,-4.3628,-4.3628,-4.3628,-4.3628,-4.3976,-4.4688,-4.5202,-4.6195,-4.7653,-4.7653,-4.7785,-2.7452,-2.8039,-2.7845,-2.7006,-2.7348,-2.7677,-2.6877,-2.5439,-2.4302,-2.4288,-2.3167,-2.1526,-1.9374,-1.7015,-1.5399,-1.5369,-1.4057,0.0,0.0,0.0,0.0,-1.7251,0.0,0.0,0.0,-2.0833,-2.2041,-2.1176,-2.2436,-2.2912,-2.2149,-2.2604,-2.2922,-2.304,-2.419,-2.5003,-2.536,-2.7032,-2.809,-2.8624,-2.9189,-2.9465,-2.9478,-2.9691,-2.9921,0.0,0.0,0.0,0.0,-3.2777,-3.3367,-3.3673,-3.4196,-3.4414,-3.4414,-3.4414,-3.4414,-3.4414,-3.4414,-3.4414,-3.4414,-3.4414,-3.4481,-3.4549,-3.4549,-3.4735,-3.5118,-3.6117,-3.643,-3.6538,-3.7251,-3.7429,-3.7429,-3.7429,-3.7589,-3.7764,-3.7764,-3.8238,-3.8662,-3.8662,-3.9023,-3.9272,-3.9272,-3.9272,-3.9272,-3.9272,-3.9272,-3.9272,-3.9272,-3.9272,-3.9388,-3.9669,-4.0117,-4.0597,-4.1143,-4.1574,-4.2021,-4.2485,-4.3214,-4.3628,-4.3628,-4.3628,-4.3628,-4.3628,-4.3628,-4.4108,-4.5102,-4.6129,-4.7106,-4.8001,-4.8001,-4.8001,0.0,-2.4912,-2.4798,-2.4266,-2.5428,-2.6705,-2.6687,-2.5456,0.0,-2.4319,-2.3161,-2.1518,-1.9396,-1.7016,-1.5389,-1.5403,-1.5325,0.0,0.0,-1.7286,0.0,0.0,-1.7326,0.0,-1.9828,-2.0702,-2.1418,-2.2034,-2.2699,-2.2641,-2.1541,-2.2056,-2.2541,-2.267,-2.3732,-2.4537,-2.5004,-2.6277,-2.7299,-2.8059,-2.8612,-2.8888,-2.895,-2.9453,-3.0126,0.0,0.0,0.0,0.0,-3.3297,-3.3742,-3.4414,-3.4414,-3.4414,-3.4414,-3.4414,-3.4414,-3.4414,-3.4414,-3.4414,-3.4414,-3.4414,-3.4549,-3.4817,-3.4935,-3.5001,-3.5184,-3.618,-3.6492,-3.6662,-3.737,-3.7546,-3.7546,-3.7546,-3.7937,-3.8351,-3.8351,-3.8843,-3.9272,-3.9272,-3.9272,-3.9272,-3.9272,-3.9272,-3.9272,-3.9272,-3.9272,-3.9272,-3.9272,-3.9272,-3.9553,-4.0299,-4.047,-4.1067,-4.246,-4.2518,-4.2535,-4.2585,-4.3247,-4.3628,-4.3628,-4.3628,-4.3628,-4.3628,-4.3727,-4.444,-4.5798,-4.7272,-4.8001,-4.8001,-4.8001,-4.8001,-2.3971,0.0,-2.4621,-2.6885,-2.7074,-2.6693,0.0,-2.5468,-2.4287,-2.4292,-2.3184,-2.1546,-1.9373,-1.7024,-1.5419,-1.5402,-1.4584,-1.4699,-1.6969,-1.7274,0.0,-1.7296,-1.7326,-1.7527,-1.7931,-1.9562,-2.0325,-1.979,-2.1215,-2.178,-2.1085,-2.1665,-2.2206,-2.266,-2.3613,-2.4492,-2.5206,-2.6931,-2.7665,-2.7482,-2.8034,-2.8511,-2.8925,-2.8637,-2.9374,0.0,0.0,0.0,-3.3227,-3.3879,-3.4264,-3.4414,-3.4414,-3.4414,-3.4414,-3.4414,-3.4414,-3.4414,-3.4414,-3.4414,-3.4414,-3.4563,-3.4986,-3.5464,-3.5816,-3.5879,-3.6054,-3.6951,-3.7472,-3.801,-3.8678,-3.8843,-3.8843,-3.8843,-3.8969,-3.9077,-3.9077,-3.9202,-3.9272,-3.9272,-3.9272,-3.9272,-3.9272,-3.9272,-3.9272,-3.9272,-3.9272,-3.9272,-3.9272,-3.9272,-3.9553,-4.0299,-4.1268,-4.2227,-4.3137,-4.2789,-4.2767,-4.333,-4.3529,-4.3628,-4.3628,-4.3628,-4.3628,-4.3628,-4.4721,-4.545,-4.5798,-4.7272,-4.8001,-4.8001,-4.8001,-4.8001,-2.3682,-2.464,-2.5793,-2.5744,-2.6202,-2.6506,-2.5786,-2.4907,-2.4131,-2.3451,-2.2706,-2.1526,-1.9403,-1.8331,-1.7513,-1.6749,-1.732,0.0,0.0,0.0,-1.7326,-1.7326,-1.7326,-1.7692,0.0,-1.9502,-2.0123,-2.0286,-2.112,-2.1431,-2.0761,-2.1349,-2.208,-2.3021,-2.3745,-2.4492,-2.5312,-2.6677,-2.7205,-2.6917,-2.7469,-2.8015,-2.8643,-2.8605,-2.9464,0.0,0.0,0.0,-3.2887,-3.333,-3.3717,-3.3978,-3.3978,-3.4167,-3.4414,-3.4414,-3.4414,-3.4467,-3.4787,-3.5088,-3.535,-3.5415,-3.577,-3.6275,-3.6492,-3.6845,-3.7235,-3.7706,-3.8051,-3.8463,-3.9148,-3.9272,-3.9272,-3.9272,-3.9272,-3.9272,-3.9272,-3.9272,-3.9272,-3.9272,-3.9272,-3.9272,-3.9272,-3.9272,-3.9272,-3.9272,-3.9272,-3.9272,-3.9272,-3.957,-4.0067,-4.0779,-4.1755,-4.2807,-4.3826,-4.3631,-4.3588,-4.3989,-4.4006,-4.4006,-4.4006,-4.4259,-4.4259,-4.4006,-4.5723,-4.6464,-4.624,-4.7945,-4.8855,-4.8855,-4.8855,-4.8855,-2.3643,-2.5641,-2.7065,-2.372,-2.4937,-2.6482,-2.471,0.0,0.0,0.0,0.0,0.0,0.0,-2.0309,0.0,0.0,0.0,0.0,-1.8099,-1.7553,-1.7512,-1.7326,-1.7282,0.0,-1.9694,-1.9584,-1.9989,-2.1467,-2.1458,-2.1204,-2.0673,-2.1339,-2.222,-2.3526,-2.4036,-2.4636,-2.5453,-2.6176,-2.6533,-2.6533,-2.6929,-2.7602,-2.8278,-2.8682,-2.9778,-3.1321,0.0,0.0,-3.2513,-3.2513,-3.2832,-3.334,-3.3427,-3.379,-3.4283,-3.4385,-3.4414,-3.4481,-3.5154,-3.5834,-3.6384,-3.6446,-3.6692,-3.7011,-3.7071,-3.7706,-3.8463,-3.8463,-3.8463,-3.859,-3.9148,-3.9272,-3.9272,-3.9272,-3.9408,-3.9454,-3.9454,-3.952,-3.957,-3.9471,-3.9454,-3.9454,-3.9454,-3.9545,-3.9631,-3.9731,-3.9854,-3.989,-3.989,-4.0441,-4.1055,-4.1755,-4.2445,-4.3396,-4.464,-4.4763,-4.4763,-4.4763,-4.4652,-4.4597,-4.4597,-4.5054,-4.5108,-4.4652,-4.6601,-4.7374,-4.6843,-4.885,-4.9804,-4.9804,-4.9804,-4.9804,-2.347,-2.4934,-2.6201,-2.5729,-2.6879,-2.7434,-2.4889,-2.3372,0.0,0.0,0.0,0.0,0.0,-2.227,-2.1902,0.0,0.0,-1.9634,0.0,0.0,-1.8241,-1.7419,0.0,-1.7371,-1.8449,-1.8637,-1.9051,-2.0008,-2.069,-2.0976,-2.0829,-2.1928,-2.2872,-2.3745,-2.4636,-2.5523,-2.6314,-2.6465,-2.6533,-2.6533,-2.6609,-2.722,-2.832,-2.7928,-2.908,-3.1293,0.0,-3.1326,-3.2513,-3.2513,-3.2571,-3.2716,-3.3253,-3.3529,-3.3674,-3.4211,-3.4414,-3.4481,-3.5154,-3.5834,-3.6446,-3.66,-3.7131,-3.7706,-3.7854,-3.8511,-3.9148,-3.9148,-3.9148,-3.9148,-3.9272,-3.9272,-3.9272,-3.9272,-3.9752,-4.0216,-4.0216,-4.0663,-4.0912,-4.0315,-4.0216,-4.0216,-4.0216,-4.0635,-4.1118,-4.1777,-4.2245,-4.2532,-4.2532,-4.2635,-4.2979,-4.37,-4.4316,-4.5015,-4.5868,-4.592,-4.592,-4.592,-4.5477,-4.5161,-4.5161,-4.5267,-4.525,-4.5161,-4.6766,-4.7541,-4.7485,-4.9022,-4.9804,-4.9804,-4.9804,-4.9804,-2.2266,-2.2737,-2.3396,-2.402,-2.4937,-2.521,-2.354,-2.2648,0.0,0.0,0.0,0.0,0.0,0.0,-2.1854,-2.0909,0.0,-2.0219,-1.9847,-1.9093,-1.8146,0.0,0.0,-1.7736,-1.86,-1.8972,-1.957,-2.0485,-2.0663,-2.0954,-2.1471,-2.2134,-2.3095,-2.442,-2.5004,-2.5664,-2.6465,-2.6533,-2.6533,-2.6533,-2.6837,-2.7494,-2.8372,-2.8576,-2.9462,-3.0911,0.0,-3.0917,-3.1467,-3.1467,-3.1671,-3.2048,-3.2701,-3.3166,-3.3609,-3.4604,-3.5154,-3.5593,-3.6275,-3.6906,-3.7519,-3.7637,-3.7985,-3.8367,-3.8567,-3.8914,-3.9272,-3.9272,-3.9272,-3.9272,-3.9272,-3.9272,-3.9272,-3.9272,-3.9835,-4.0382,-4.0382,-4.0928,-4.1326,-4.0994,-4.0945,-4.1039,-4.1352,-4.1639,-4.1987,-4.2638,-4.2926,-4.3108,-4.3108,-4.3471,-4.3819,-4.4164,-4.48,-4.5469,-4.6151,-4.6186,-4.6186,-4.6186,-4.597,-4.5903,-4.62,-4.62,-4.6102,-4.5802,-4.7576,-4.8364,-4.8101,-4.9942,-5.0804,-5.0804,-5.0804,-5.0804,-2.1225,-2.0916,-2.0894,-2.1517,0.0,-2.2912,-2.2188,-2.2022,0.0,0.0,0.0,0.0,0.0,-1.9341,0.0,-2.1899,-2.1579,-2.1013,-2.0445,-1.9335,-1.8144,-1.7184,-1.7412,-1.7973,-1.8905,-1.9413,-2.0093,-2.0994,-2.0987,-2.1242,-2.1973,-2.2649,-2.3537,-2.4933,-2.537,-2.5886,-2.6452,-2.6658,-2.6714,-2.6714,-2.7229,-2.7934,-2.8762,-2.9345,-2.9993,-3.0568,-3.0568,-3.0568,-3.0568,-3.0568,-3.0858,-3.1366,-3.2019,-3.2888,-3.3877,-3.4981,-3.5887,-3.6707,-3.7222,-3.7844,-3.8391,-3.8576,-3.8711,-3.8805,-3.8969,-3.9148,-3.9272,-3.9272,-3.9272,-3.9272,-3.9272,-3.9272,-3.9272,-3.9272,-3.9835,-4.0415,-4.058,-4.1272,-4.1883,-4.1883,-4.1977,-4.2181,-4.2649,-4.2859,-4.3168,-4.3744,-4.3959,-4.4007,-4.4007,-4.453,-4.4846,-4.4846,-4.5368,-4.5903,-4.6332,-4.6398,-4.6398,-4.6398,-4.6398,-4.659,-4.698,-4.6998,-4.6795,-4.6398,-4.8146,-4.8928,-4.869,-5.051,-5.1512,-5.169,-5.169,-5.169,-2.1087,-2.0498,-2.002,-1.9422,-2.093,0.0,-2.1624,-2.1445,0.0,-2.1336,0.0,0.0,0.0,-1.9449,-1.9971,-2.1077,-2.1185,-2.1126,-2.1058,0.0,-1.8724,-1.7787,-1.7391,-1.76,-1.8438,-1.9003,-1.9664,-2.0615,-2.1328,-2.1842,-2.2101,-2.3621,-2.4707,-2.5016,-2.5955,-2.6452,-2.6533,-2.7095,-2.7417,-2.7417,-2.7484,-2.8195,-2.9484,-2.956,-2.9993,-3.0568,-3.0568,-3.0568,-3.0568,-3.0568,-3.0611,-3.0698,-3.1337,-3.2687,-3.4382,-3.5049,-3.6149,-3.7342,-3.7417,-3.7844,-3.8391,-3.8576,-3.8711,-3.8805,-3.8969,-3.9148,-3.9272,-3.9272,-3.9272,-3.9272,-3.9272,-3.9272,-3.9272,-3.9272,-3.9835,-4.0564,-4.1193,-4.2339,-4.3247,-4.3247,-4.368,-4.4027,-4.4078,-4.4515,-4.512,-4.5856,-4.6413,-4.671,-4.671,-4.6763,-4.6799,-4.6799,-4.6852,-4.6888,-4.6934,-4.6934,-4.6934,-4.6934,-4.6934,-4.6934,-4.6998,-4.6998,-4.698,-4.6934,-4.7818,-4.8603,-4.9221,-5.0125,-5.0976,-5.169,-5.169,-5.169,-2.0491,-1.9444,-1.8503,-1.7626,-1.8056,0.0,0.0,-2.077,-2.0442,-2.0049,-1.9949,0.0,0.0,0.0,-2.024,-2.0329,-2.1081,-2.1344,-2.0723,-2.0039,-1.927,-1.8271,-1.836,-1.8626,-1.8959,-1.939,-1.9774,-2.0156,-2.0297,-2.0865,-2.198,-2.2748,-2.3743,-2.4811,-2.5224,-2.5598,-2.5912,-2.6633,-2.738,-2.8117,-2.8583,-2.9093,-2.9623,-3.0007,-3.0387,-3.0568,-3.0568,-3.0568,-3.0568,-3.0568,-3.0807,-3.1264,-3.2242,-3.3577,-3.5049,-3.5711,-3.6535,-3.7476,-3.7902,-3.8262,-3.856,-3.8655,-3.8821,-3.8969,-3.9148,-3.9218,-3.9379,-3.9627,-3.9731,-3.9696,-3.9379,-3.9504,-3.9731,-3.9731,-4.0561,-4.1511,-4.226,-4.3166,-4.4007,-4.4487,-4.4732,-4.4975,-4.5366,-4.5632,-4.5998,-4.6602,-4.6888,-4.6998,-4.6998,-4.6998,-4.6998,-4.6998,-4.6998,-4.6998,-4.6998,-4.6998,-4.6998,-4.6998,-4.6998,-4.6998,-4.6998,-4.6998,-4.6998,-4.6998,-4.7765,-4.8318,-4.8621,-4.9888,-5.0673,-5.0976,-5.1458,-5.169,-1.9682,-1.8479,-1.749,-1.6255,0.0,0.0,-1.9493,-1.9553,-1.9225,-1.9556,-1.9541,-1.9428,-1.8902,0.0,0.0,0.0,-2.0895,-2.1424,-2.0735,-2.0125,-1.9453,-1.8801,-1.8949,-1.9109,-1.9109,-1.9431,-1.9717,-1.9801,-2.0038,-2.0765,-2.1978,-2.2593,-2.3501,-2.4678,-2.4755,-2.5048,-2.5663,-2.6347,-2.7323,-2.8538,-2.9251,-2.9685,-2.9931,-3.0387,-3.0568,-3.0568,-3.0568,-3.0568,-3.0628,-3.0807,-3.1263,-3.1868,-3.29,-3.4131,-3.5416,-3.6068,-3.6915,-3.7786,-3.8221,-3.852,-3.8616,-3.8766,-3.8914,-3.9077,-3.9398,-3.9504,-3.9644,-4.0103,-4.0252,-4.017,-3.985,-4.002,-4.0252,-4.0252,-4.1128,-4.2147,-4.2871,-4.3731,-4.4661,-4.5424,-4.5734,-4.5953,-4.6381,-4.6429,-4.659,-4.6934,-4.6998,-4.6998,-4.6998,-4.6998,-4.6998,-4.6998,-4.6998,-4.6998,-4.6998,-4.6998,-4.6998,-4.6998,-4.6998,-4.6998,-4.6998,-4.6998,-4.6998,-4.6998,-4.7533,-4.7925,-4.8175,-4.9246,-5.0013,-5.0513,-5.1066,-5.1458,-1.8666,-1.7748,-1.7172,-1.5428,0.0,0.0,-1.8132,-1.7735,-1.777,-2.013,-1.9195,-1.8238,-1.9134,-1.8958,0.0,-1.9798,-2.0638,-2.123,-2.123,-2.0118,-1.9292,-1.9292,-1.8857,-1.861,-1.861,-1.9003,-1.936,-1.9608,-2.0755,-2.1622,-2.1956,-2.3435,-2.4341,-2.4459,-2.4666,-2.5103,-2.5709,-2.6363,-2.733,-2.8573,-2.9244,-2.9958,-3.0568,-3.0568,-3.0568,-3.0568,-3.0568,-3.0568,-3.0628,-3.1263,-3.1879,-3.2437,-3.2986,-3.4121,-3.5443,-3.6055,-3.7193,-3.8391,-3.8375,-3.8504,-3.8616,-3.875,-3.8898,-3.9115,-3.98,-4.0003,-4.0103,-4.0659,-4.0802,-4.0802,-4.0802,-4.0802,-4.0802,-4.0802,-4.1436,-4.2178,-4.2854,-4.4094,-4.5351,-4.6077,-4.6637,-4.6998,-4.6998,-4.6998,-4.6998,-4.6998,-4.6998,-4.6998,-4.6998,-4.6998,-4.6998,-4.698,-4.698,-4.6998,-4.6998,-4.6998,-4.6998,-4.6998,-4.6998,-4.6998,-4.6998,-4.6998,-4.6998,-4.6998,-4.6998,-4.7372,-4.8175,-4.8175,-4.8978,-5.0477,-5.0495,-5.0923,-1.8596,-1.7472,-1.6968,-1.567,0.0,0.0,0.0,-1.8036,0.0,0.0,-1.9292,-1.8975,-1.9222,-1.9711,0.0,-1.9556,-2.0201,-2.0762,-2.0762,-2.0149,-1.9717,-1.9717,-1.9353,-1.9094,-1.9094,-1.9082,-1.9243,-1.9784,-2.0101,-2.0776,-2.187,-2.2468,-2.2983,-2.3504,-2.4042,-2.4598,-2.511,-2.6222,-2.7167,-2.79,-2.8642,-2.9523,-3.0568,-3.0568,-3.0568,-3.0568,-3.0568,-3.0866,-3.1306,-3.2281,-3.2826,-3.3002,-3.3594,-3.4446,-3.5283,-3.5457,-3.6416,-3.7566,-3.7096,-3.7714,-3.8723,-3.8645,-3.9072,-3.98,-4.04,-4.0546,-4.0642,-4.1157,-4.1293,-4.1401,-4.177,-4.1874,-4.177,-4.1401,-4.1754,-4.2564,-4.3845,-4.4458,-4.5133,-4.6482,-4.6888,-4.6998,-4.6998,-4.6998,-4.6998,-4.6998,-4.6998,-4.6998,-4.6998,-4.6998,-4.707,-4.7338,-4.7338,-4.7468,-4.7705,-4.7705,-4.7705,-4.7705,-4.7705,-4.7493,-4.7025,-4.6998,-4.6998,-4.6998,-4.6998,-4.7105,-4.7354,-4.7907,-4.8425,-4.8889,-4.9995,-5.0637,-1.9336,-1.8307,0.0,-1.6891,-1.693,-1.7297,-1.785,0.0,0.0,0.0,-1.8351,-1.8506,-1.921,-1.943,0.0,-1.9363,-1.9745,-2.0059,-2.0059,-1.9834,-1.9668,-1.9668,-1.9287,-1.9023,-1.9023,-1.8773,-1.898,-1.9708,-1.9986,-2.0666,-2.1928,-2.2249,-2.275,-2.3484,-2.3897,-2.4464,-2.5275,-2.6077,-2.6849,-2.7627,-2.8121,-2.8826,-2.9827,-3.0074,-3.0513,-3.097,-3.1204,-3.1637,-3.2226,-3.2917,-3.3355,-3.3578,-3.3984,-3.4538,-3.5185,-3.5185,-3.5967,-3.6875,-3.647,-3.7412,-3.8745,-3.8639,-3.9394,-4.04,-4.0926,-4.1065,-4.1157,-4.1683,-4.1813,-4.1899,-4.2246,-4.2287,-4.2228,-4.1899,-4.2292,-4.3108,-4.4357,-4.4856,-4.5463,-4.6748,-4.6998,-4.6998,-4.6998,-4.6998,-4.6998,-4.6998,-4.6998,-4.6998,-4.6998,-4.6998,-4.7116,-4.7468,-4.7511,-4.7639,-4.7992,-4.7992,-4.7992,-4.7992,-4.7992,-4.7829,-4.7407,-4.7294,-4.7205,-4.7205,-4.7088,-4.6998,-4.6998,-4.7479,-4.7872,-4.8193,-4.9139,-4.9745,-2.0563,-1.9682,-1.9227,-1.8617,-1.8522,0.0,-1.7567,-1.8032,-1.8257,-1.7095,0.0,-1.7561,-1.9058,-1.8673,-1.8369,-1.9131,-1.9287,-1.9287,-1.9287,-1.9248,-1.9228,-1.9228,-1.8848,-1.8574,-1.8644,-1.8497,-1.8787,-1.9694,-2.0398,-2.1164,-2.2163,-2.2702,-2.3305,-2.4073,-2.4189,-2.4808,-2.5893,-2.5948,-2.6517,-2.765,-2.765,-2.7984,-2.8623,-2.9305,-3.0308,-3.1537,-3.2216,-3.2749,-3.3182,-3.3251,-3.3594,-3.4101,-3.4101,-3.4505,-3.5072,-3.514,-3.563,-3.6336,-3.6323,-3.735,-3.8638,-3.8736,-3.9634,-4.0839,-4.141,-4.1561,-4.1666,-4.2145,-4.2287,-4.2287,-4.2287,-4.2287,-4.2287,-4.2287,-4.2858,-4.3607,-4.4357,-4.5142,-4.5927,-4.673,-4.6944,-4.6998,-4.6998,-4.7043,-4.7088,-4.707,-4.707,-4.707,-4.707,-4.707,-4.7205,-4.7536,-4.7578,-4.7705,-4.8072,-4.8072,-4.8072,-4.8072,-4.8072,-4.8072,-4.8072,-4.7747,-4.7554,-4.7554,-4.7249,-4.707,-4.707,-4.707,-4.7446,-4.8115,-4.8186,-4.8597,-2.0598,-1.912,0.0,-1.8772,-1.8556,-1.8,-1.6881,-1.6772,-1.6915,-1.6908,-1.7933,-1.8912,-1.9214,-1.9131,-1.9058,-1.9287,-1.9287,-1.9287,-1.9287,-1.8994,-1.8779,-1.8779,-1.8408,-1.834,-1.8853,-1.9162,-1.9814,-2.1112,-2.1542,-2.2113,-2.2884,-2.3471,-2.3897,-2.4073,-2.5034,-2.566,-2.5893,-2.6394,-2.6746,0.0,-2.6982,-2.7316,-2.7969,-2.9102,-3.0308,-3.1537,-3.2555,-3.3093,-3.3251,-3.3697,-3.3984,-3.4101,-3.4101,-3.4198,-3.4327,-3.4428,-3.5218,-3.6092,-3.564,-3.6703,-3.8384,-3.8839,-3.9687,-4.0701,-4.1764,-4.2145,-4.2145,-4.2287,-4.2287,-4.2287,-4.2287,-4.2287,-4.2287,-4.2287,-4.243,-4.2769,-4.3572,-4.4339,-4.5106,-4.5909,-4.6569,-4.6998,-4.6998,-4.7205,-4.7468,-4.7747,-4.7788,-4.7788,-4.7788,-4.7788,-4.7893,-4.8192,-4.8192,-4.8345,-4.8678,-4.8714,-4.8714,-4.8714,-4.8714,-4.8714,-4.8714,-4.8172,-4.7911,-4.7911,-4.7829,-4.7788,-4.7788,-4.7788,-4.7753,-4.7651,-4.8281,-4.8541,-2.1471,0.0,0.0,-1.8813,0.0,-1.7432,-1.7054,-1.675,-1.667,-1.6874,-1.7576,-1.8228,-1.8601,-1.8682,-1.8682,-1.8682,-1.8682,-1.8682,-1.8682,-1.8745,-1.8861,-1.893,-1.9055,-1.9299,-1.9748,-1.9998,-2.0579,-2.1678,-2.199,-2.2543,-2.3543,-2.3897,-2.435,-2.4921,-2.555,-2.6056,-2.634,-2.6621,-2.6922,-2.7152,-2.7152,-2.7595,-2.8525,-2.951,-3.0633,-3.1874,-3.2792,-3.3342,-3.3646,-3.3984,-3.4101,-3.4101,-3.4151,-3.425,-3.4399,-3.4658,-3.5255,-3.5896,-3.569,-3.673,-3.8287,-3.8944,-3.9905,-4.0931,-4.1996,-4.2287,-4.2287,-4.2287,-4.2287,-4.2287,-4.2287,-4.2287,-4.2287,-4.2287,-4.2287,-4.2542,-4.3494,-4.3978,-4.4671,-4.5966,-4.6567,-4.6981,-4.7421,-4.7621,-4.7788,-4.7992,-4.7992,-4.7992,-4.7992,-4.7992,-4.8093,-4.8383,-4.8383,-4.855,-4.8855,-4.8909,-4.8909,-4.8909,-4.8909,-4.8909,-4.8909,-4.8605,-4.8364,-4.821,-4.8072,-4.7992,-4.7992,-4.7992,-4.7911,-4.7765,-4.8182,-4.8297,-2.239,0.0,-2.0026,-1.8853,-1.7829,0.0,-1.7374,-1.7119,-1.6932,-1.6932,-1.7001,-1.7295,-1.7872,-1.8008,-1.8008,-1.8008,-1.8144,-1.8202,-1.8202,-1.8844,-1.9365,-1.9497,-2.0009,-2.0462,-2.0719,-2.0899,-2.1279,-2.2002,-2.2298,-2.2907,-2.406,-2.4292,-2.4865,-2.5893,-2.6002,-2.6286,-2.6779,-2.6884,-2.71,-2.7515,-2.76,-2.8202,-2.9296,-2.9821,-3.0772,-3.2029,-3.2626,-3.3291,-3.3922,-3.3922,-3.4003,-3.4101,-3.4333,-3.4578,-3.4818,-3.5191,-3.5565,-3.5916,-3.6165,-3.7015,-3.8161,-3.9095,-4.0081,-4.1074,-4.2002,-4.2287,-4.2287,-4.2287,-4.2287,-4.2328,-4.2369,-4.2351,-4.2391,-4.2432,-4.245,-4.2691,-4.352,-4.3851,-4.444,-4.5981,-4.6494,-4.6989,-4.7907,-4.8072,-4.8111,-4.8151,-4.8151,-4.8151,-4.8151,-4.8151,-4.8249,-4.8458,-4.8514,-4.8587,-4.8874,-4.8909,-4.8909,-4.8909,-4.8909,-4.8909,-4.8909,-4.8909,-4.8785,-4.8495,-4.8249,-4.8151,-4.8151,-4.8151,-4.8151,-4.8072,-4.8072,-4.8032,-2.2112,0.0,-2.0519,0.0,-1.8048,-1.7658,0.0,0.0,-1.6932,0.0,-1.7432,-1.7862,-1.8008,-1.8008,-1.8008,-1.8008,-1.8654,-1.911,-1.911,-1.9814,-2.0398,-2.0398,-2.0526,-2.0782,-2.1428,-2.1616,-2.2002,-2.2714,-2.3412,-2.3884,-2.4073,-2.509,-2.5729,-2.5893,-2.6394,-2.6727,-2.6779,-2.7188,-2.7414,-2.7515,-2.7947,-2.8542,-2.9123,-2.9218,-2.9974,-3.1286,-3.1871,-3.2562,-3.3226,-3.3226,-3.3566,-3.4134,-3.4673,-3.4941,-3.5035,-3.5732,-3.6232,-3.6586,-3.6724,-3.7182,-3.7895,-3.9355,-3.9946,-4.0342,-4.1841,-4.2287,-4.2287,-4.2287,-4.2287,-4.2351,-4.2613,-4.2634,-4.2711,-4.3013,-4.3087,-4.3031,-4.2876,-4.359,-4.4325,-4.4563,-4.5729,-4.7067,-4.8161,-4.8345,-4.8439,-4.875,-4.8785,-4.8785,-4.8785,-4.8785,-4.8785,-4.882,-4.882,-4.8855,-4.8909,-4.8909,-4.8909,-4.8909,-4.8909,-4.8909,-4.8909,-4.8909,-4.8874,-4.882,-4.8785,-4.8785,-4.8785,-4.8785,-4.8623,-4.8345,-4.8345,-4.8192,-2.1947,-2.1293,-2.0523,0.0,-1.9327,-1.9058,-1.8412,-1.8355,-1.8412,-1.8412,-1.87,-1.8721,-1.8269,-1.8596,-1.8921,-1.8921,-1.9562,-2.0009,-2.0009,-2.0655,-2.1342,-2.1806,-2.2188,-2.2688,-2.3408,-2.3255,-2.3399,-2.4047,-2.4118,-2.4408,-2.509,-2.5605,-2.6056,-2.6394,-2.6893,-2.7188,-2.7188,-2.7378,-2.765,-2.7947,-2.8795,-2.9319,-2.9576,-2.9576,-3.0076,-3.099,-3.1257,-3.1971,-3.2902,-3.3343,-3.3846,-3.4363,-3.5251,-3.5627,-3.5671,-3.6333,-3.6759,-3.7052,-3.7243,-3.7411,-3.7773,-3.8933,-3.9289,-3.9593,-4.1145,-4.1627,-4.1739,-4.2329,-4.2534,-4.2613,-4.2882,-4.2995,-4.3032,-4.316,-4.3304,-4.3391,-4.3232,-4.3559,-4.4232,-4.5309,-4.6468,-4.7555,-4.853,-4.866,-4.875,-4.8874,-4.8909,-4.8909,-4.8909,-4.8909,-4.8909,-4.8909,-4.8909,-4.8909,-4.8909,-4.8909,-4.8909,-4.8909,-4.8909,-4.8909,-4.8909,-4.8909,-4.8909,-4.8909,-4.8909,-4.8909,-4.8909,-4.8909,-4.882,-4.866,-4.866,-4.8623,0.0,0.0,-2.0964,-2.074,-2.0654,-2.0475,0.0,0.0,-1.9879,0.0,-2.0117,-1.9987,-1.952,-1.9672,-1.9814,-1.9814,-2.0462,-2.0974,-2.1141,-2.1779,-2.2518,-2.3263,-2.382,-2.431,-2.4951,-2.4567,-2.4509,-2.4951,-2.4751,-2.4921,-2.5839,-2.6056,-2.6379,-2.6974,-2.7327,-2.7565,-2.7715,-2.7864,-2.8207,-2.8732,-2.9515,-2.9918,-2.9918,-2.9902,-3.0238,-3.0815,-3.0697,-3.1324,-3.2497,-3.309,-3.3778,-3.4592,-3.5582,-3.6094,-3.6333,-3.686,-3.7206,-3.741,-3.7558,-3.7577,-3.7719,-3.854,-3.8808,-3.9093,-4.0628,-4.1092,-4.1332,-4.2418,-4.2711,-4.2788,-4.3178,-4.3304,-4.3339,-4.341,-4.3416,-4.3383,-4.3383,-4.3383,-4.3948,-4.583,-4.668,-4.7478,-4.8686,-4.8909,-4.8909,-4.8909,-4.8909,-4.8909,-4.8909,-4.8909,-4.8909,-4.8909,-4.8909,-4.8909,-4.8909,-4.8909,-4.8909,-4.8909,-4.8909,-4.8909,-4.8909,-4.8909,-4.8909,-4.8909,-4.8909,-4.8909,-4.8909,-4.8909,-4.8909,-4.8909,-4.8909,-4.8909,0.0,-2.2414,0.0,-2.1774,-2.1547,0.0,0.0,0.0,-2.0696,-2.1249,-2.1584,-2.1832,-2.2384,-2.1397,-2.0526,-2.0526,-2.1302,-2.2039,-2.2591,-2.342,-2.4221,-2.4838,-2.4894,-2.4951,-2.5007,-2.4951,-2.4951,-2.5007,-2.5481,-2.5839,-2.5893,-2.6447,-2.6959,-2.7464,-2.7464,-2.775,-2.824,-2.8779,-2.9273,-2.9814,-2.9858,-2.9918,-2.9918,-2.9989,-3.0231,-3.0609,-3.0152,-3.0647,-3.1748,-3.1798,-3.2959,-3.4738,-3.5364,-3.6055,-3.6746,-3.7356,-3.7577,-3.7594,-3.7594,-3.7577,-3.7719,-3.854,-3.8808,-3.9093,-4.0628,-4.1092,-4.1332,-4.2418,-4.2711,-4.2846,-4.3442,-4.3597,-4.3664,-4.391,-4.338,-4.2823,-4.2823,-4.2823,-4.3355,-4.5026,-4.5398,-4.616,-4.85,-4.8909,-4.8909,-4.8909,-4.8909,-4.8909,-4.8909,-4.8909,-4.8909,-4.8909,-4.8909,-4.8909,-4.8909,-4.8909,-4.8909,-4.8909,-4.8909,-4.8909,-4.8909,-4.8909,-4.8909,-4.8909,-4.8909,-4.8909,-4.8909,-4.8909,-4.8909,-4.8909,-4.8909,-4.8909,0.0,0.0,0.0,-2.2916,-2.2907,-2.2902,-2.2385,-2.2533,-2.2795,-2.3022,-2.3081,-2.3344,-2.4071,-2.3403,-2.2735,-2.2735,-2.3382,-2.3949,-2.4168,-2.4483,-2.4908,-2.5481,-2.5605,-2.5701,-2.6096,-2.5825,-2.5715,-2.615,-2.6002,-2.6056,-2.6447,-2.6945,-2.7327,-2.7515,-2.8158,-2.8638,-2.8826,-2.938,-2.9677,-2.9816,-3.0166,-3.0518,-3.0868,-3.0908,-3.0971,-3.1089,-3.0948,-3.1263,-3.1998,-3.2517,-3.3575,-3.4888,-3.577,-3.6516,-3.7147,-3.7466,-3.7577,-3.7577,-3.7577,-3.7577,-3.763,-3.7933,-3.8023,-3.8345,-4.0107,-4.065,-4.1032,-4.2777,-4.3284,-4.3373,-4.3763,-4.3471,-4.2971,-4.2544,-4.263,-4.2649,-4.2129,-4.2445,-4.3132,-4.4246,-4.5324,-4.6513,-4.7887,-4.8556,-4.8909,-4.8909,-4.8909,-4.8909,-4.8909,-4.8909,-4.8909,-4.8909,-4.8909,-4.8909,-4.8909,-4.8909,-4.8909,-4.8909,-4.8909,-4.8909,-4.8909,-4.8909,-4.8909,-4.8909,-4.8909,-4.8909,-4.8909,-4.8909,-4.8909,-4.8909,-4.8909,-4.8978,-2.438,0.0,0.0,0.0,0.0,-2.3685,-2.3498,0.0,-2.4209,-2.4236,-2.4538,-2.4968,-2.5508,-2.548,-2.5135,-2.4416,-2.4697,-2.5119,-2.5481,-2.5536,-2.5809,-2.6587,-2.6707,-2.6864,-2.7255,-2.6916,-2.6864,-2.7255,-2.6916,0.0,-2.7306,-2.758,-2.7849,-2.8046,-2.8889,-2.9364,-2.9364,-2.9826,-3.0054,-3.0084,-3.0551,-3.0971,-3.1397,-3.1418,-3.1493,-3.1642,-3.1696,-3.1861,-3.2144,-3.2686,-3.3565,-3.4729,-3.5616,-3.6417,-3.7037,-3.7451,-3.7577,-3.7613,-3.7721,-3.7721,-3.7757,-3.7845,-3.806,-3.8563,-4.0076,-4.0727,-4.1324,-4.3109,-4.3579,-4.3646,-4.3923,-4.3596,-4.3002,-4.2184,-4.2407,-4.2575,-4.1757,-4.2222,-4.3039,-4.3838,-4.5138,-4.6438,-4.7516,-4.837,-4.8909,-4.8909,-4.8909,-4.8909,-4.8909,-4.8909,-4.8909,-4.8909,-4.8909,-4.8909,-4.8909,-4.8909,-4.8943,-4.9012,-4.9012,-4.9012,-4.9061,-4.9061,-4.9061,-4.9061,-4.9061,-4.9061,-4.9061,-4.8959,-4.8909,-4.8909,-4.8909,-4.9012,0.0,0.0,0.0,0.0,0.0,0.0,-2.4742,0.0,-2.4759,-2.4882,-2.5821,-2.6634,-2.6788,-2.763,-2.762,-2.5425,-2.5119,-2.5481,-2.6515,-2.6672,-2.7049,-2.8192,-2.8288,-2.8288,-2.8288,-2.8288,-2.8288,-2.8288,-2.8288,-2.8288,-2.8288,-2.8304,-2.8591,-2.912,-2.9665,-2.9902,-2.9946,-3.0199,-3.0418,-3.0666,-3.0988,-3.1223,-3.1435,-3.1514,-3.1754,-3.2144,-3.2266,-3.2248,-3.2127,-3.2127,-3.2895,-3.4169,-3.4918,-3.5685,-3.6488,-3.7291,-3.7631,-3.7649,-3.7915,-3.8018,-3.8052,-3.8336,-3.8962,-3.9765,-4.0586,-4.1389,-4.2225,-4.3324,-4.3612,-4.3646,-4.3868,-4.3931,-4.3726,-4.2927,-4.276,-4.2593,-4.1794,-4.2259,-4.3058,-4.3819,-4.4692,-4.5788,-4.7386,-4.8333,-4.8872,-4.8909,-4.8909,-4.8909,-4.8909,-4.8909,-4.8909,-4.8909,-4.8909,-4.8909,-4.8909,-4.8909,-4.8978,-4.9197,-4.9197,-4.9276,-4.9396,-4.9415,-4.9415,-4.9415,-4.9415,-4.9415,-4.9415,-4.9061,-4.889,-4.889,-4.8943,-4.9046,-2.5346,0.0,0.0,0.0,0.0,0.0,0.0,0.0,-2.5604,-2.4968,-2.5977,-2.6962,-2.6728,-2.7546,-2.8079,-2.7505,-2.7405,-2.7505,-2.7769,-2.7834,-2.7932,-2.824,-2.8288,-2.8288,-2.8288,-2.8288,-2.8288,0.0,-2.8288,-2.8288,-2.8288,-2.8685,-2.9271,-3.0149,-3.0351,-3.0584,-3.0971,-3.105,-3.1304,-3.1699,-3.1771,-3.2056,-3.247,-3.2504,-3.257,-3.2687,-3.2862,-3.283,-3.2687,-3.2687,-3.325,-3.4169,-3.4918,-3.5685,-3.6488,-3.7291,-3.7721,-3.788,-3.7984,-3.8119,-3.8409,-3.9057,-3.9418,-3.9889,-4.1479,-4.2114,-4.2496,-4.3606,-4.3892,-4.3632,-4.2544,-4.2259,-4.2054,-4.1256,-4.1943,-4.2742,-4.2519,-4.3095,-4.3559,-4.3206,-4.4302,-4.5621,-4.6643,-4.7497,-4.824,-4.8816,-4.8909,-4.8909,-4.8909,-4.8909,-4.8909,-4.8909,-4.8909,-4.8909,-4.8909,-4.8909,-4.8978,-4.9197,-4.9197,-4.9276,-4.9396,-4.9415,-4.9415,-4.9415,-4.9415,-4.9415,-4.9415,-4.9321,-4.9257,-4.9257,-4.9415,-4.9495,-2.5616,-2.5262,0.0,0.0,0.0,0.0,-2.4878,-2.5479,0.0,0.0,-2.6108,-2.6948,-2.6517,-2.7566,-2.8355,-2.7828,-2.8304,-2.8724,-2.8639,-2.8764,-2.8934,-2.9239,-2.9358,-2.9448,-2.9358,-2.9329,-2.9329,-2.9329,-2.9329,-2.9403,-2.9592,-2.9886,-3.0327,-3.0931,-3.0931,-3.1089,-3.1397,-3.1528,-3.177,-3.2092,-3.2231,-3.2537,-3.2916,-3.2916,-3.2916,-3.2916,-3.3099,-3.3129,-3.3024,-3.3147,-3.3557,-3.4169,-3.4918,-3.5754,-3.6645,-3.7452,-3.7949,-3.8186,-3.8285,-3.8446,-3.8719,-3.9651,-4.016,-4.0707,-4.2123,-4.2815,-4.3143,-4.3417,-4.3262,-4.2779,-4.1832,-4.159,-4.1571,-4.1423,-4.211,-4.289,-4.3225,-4.367,-4.3856,-4.3392,-4.4376,-4.5565,-4.6364,-4.7163,-4.798,-4.8779,-4.8909,-4.8943,-4.9012,-4.9012,-4.9046,-4.9094,-4.9127,-4.9127,-4.9127,-4.9127,-4.9193,-4.9421,-4.9402,-4.9525,-4.9722,-4.9636,-4.9636,-4.975,-4.9636,-4.9625,-4.9625,-4.9476,-4.9415,-4.9415,-4.9615,-4.9692,-2.567,-2.5339,0.0,-2.5749,-2.5417,0.0,-2.518,-2.5561,-2.5727,0.0,-2.6076,-2.6776,-2.6342,-2.7635,-2.8433,-2.7306,-2.8355,-2.9288,-2.9154,-2.9456,-2.9907,-3.0608,-3.0948,-3.1067,-3.0868,-3.0868,-3.0868,-3.0868,-3.0868,-3.1027,-3.1359,-3.1397,-3.1435,-3.1473,-3.1473,-3.1511,-3.1585,-3.186,-3.2109,-3.2248,-3.2553,-3.2802,-3.2979,-3.2979,-3.2979,-3.3011,-3.319,-3.328,-3.325,-3.353,-3.3846,-3.4267,-3.4986,-3.5924,-3.6949,-3.7763,-3.8219,-3.8478,-3.8732,-3.8803,-3.9029,-4.0158,-4.1014,-4.1757,-4.2649,-4.3373,-4.3708,-4.289,-4.2092,-4.146,-4.146,-4.146,-4.1646,-4.2352,-4.2667,-4.3002,-4.3708,-4.3949,-4.4023,-4.4135,-4.4766,-4.5565,-4.6364,-4.7163,-4.798,-4.8813,-4.8943,-4.9012,-4.9179,-4.9211,-4.9276,-4.9384,-4.9415,-4.9415,-4.9415,-4.9415,-4.9476,-4.9692,-4.9692,-4.9843,-5.0188,-5.0012,-5.0012,-5.0207,-4.9986,-4.9898,-4.9898,-4.9596,-4.9476,-4.9476,-4.9644,-4.9721,-2.6008,-2.577,-2.5712,-2.5713,-2.574,0.0,-2.5211,-2.5532,-2.5647,0.0,-2.5887,-2.686,-2.6717,-2.7728,-2.8593,-2.8602,-2.8851,-2.9168,-2.9376,-2.9794,-3.0357,-3.1159,-3.1283,-3.1321,-3.1283,-3.1283,-3.1283,-3.1283,-3.1283,-3.1321,-3.1397,-3.1397,-3.1568,-3.1951,-3.1951,-3.2162,-3.2621,-3.283,-3.2957,-3.297,-3.328,-3.3415,-3.3444,-3.3444,-3.3444,-3.3473,-3.368,-3.368,-3.353,-3.3734,-3.4174,-3.4745,-3.5545,-3.6375,-3.7207,-3.8027,-3.8478,-3.8713,-3.8792,-3.8921,-3.9305,-4.0866,-4.146,-4.1869,-4.3336,-4.3429,-4.2872,-4.2054,-4.1237,-4.0624,-4.0624,-4.0624,-4.0661,-4.0828,-4.185,-4.2835,-4.3002,-4.354,-4.4209,-4.4915,-4.5175,-4.5565,-4.6364,-4.7163,-4.8048,-4.9001,-4.9146,-4.9211,-4.9352,-4.9352,-4.9384,-4.9415,-4.9415,-4.9415,-4.9415,-4.9415,-4.9476,-4.9692,-4.9692,-4.9843,-5.0188,-5.0163,-5.0163,-5.0188,-4.9986,-4.9898,-4.9898,-4.9824,-4.9797,-4.9797,-4.9824,-4.9871,-2.6192,-2.5897,-2.5979,-2.6286,0.0,0.0,0.0,-2.5956,-2.577,-2.5362,-2.6015,-2.6631,-2.6617,-2.7506,-2.818,-2.7998,-2.8425,-2.8921,-2.9214,-2.9609,-3.0022,-3.0524,-3.0733,-3.0803,-3.0698,-3.101,-3.1426,-3.1825,-3.2021,-3.2144,-3.2144,-3.2248,-3.2417,-3.2616,-3.2777,-3.297,-3.3238,-3.3357,-3.3415,-3.3415,-3.353,-3.3605,-3.3605,-3.3605,-3.3605,-3.3605,-3.3815,-3.3842,-3.3817,-3.4434,-3.5106,-3.5772,-3.5919,-3.6815,-3.8053,-3.8444,-3.8743,-3.895,-3.895,-3.9017,-3.938,-4.1051,-4.159,-4.1887,-4.3503,-4.315,-4.2017,-4.1219,-4.0401,-3.9751,-3.9751,-3.9751,-3.9863,-4.029,-4.1311,-4.2314,-4.2705,-4.3763,-4.4829,-4.5375,-4.581,-4.619,-4.6452,-4.7229,-4.8017,-4.8525,-4.8982,-4.9371,-4.9525,-4.9555,-4.9585,-4.9655,-4.9655,-4.9655,-4.9655,-4.9655,-4.9741,-4.9952,-4.9952,-5.0114,-5.044,-5.0336,-5.0291,-5.0291,-5.0139,-5.0038,-5.0038,-4.9933,-4.9898,-4.9898,-4.9898,-4.9898,0.0,0.0,-2.666,0.0,0.0,-2.6463,0.0,0.0,0.0,-2.597,-2.6225,0.0,0.0,0.0,0.0,0.0,0.0,0.0,0.0,-2.9119,0.0,-2.9994,-3.0207,-3.0305,-3.0176,-3.072,-3.1391,-3.2139,-3.2599,-3.2875,-3.2961,-3.3178,-3.328,-3.328,-3.3473,-3.3605,-3.3605,-3.3643,-3.3661,-3.3661,-3.3698,-3.3726,-3.3726,-3.3726,-3.3726,-3.3726,-3.3895,-3.3947,-3.4046,-3.5076,-3.5962,-3.6679,-3.6452,-3.7397,-3.8862,-3.8862,-3.896,-3.9101,-3.9101,-3.9101,-3.938,-4.1051,-4.1813,-4.224,-4.3243,-4.263,-4.1386,-4.042,-3.964,-3.9101,-3.9101,-3.9101,-3.9268,-3.9974,-4.0773,-4.1657,-4.2675,-4.4072,-4.5368,-4.6149,-4.6656,-4.6939,-4.6707,-4.7348,-4.7871,-4.7932,-4.8698,-4.939,-4.957,-4.973,-4.9879,-4.9967,-5.0012,-5.0012,-5.0012,-5.0012,-5.007,-5.0236,-5.0259,-5.0377,-5.0682,-5.0547,-5.0446,-5.0446,-5.0287,-5.0188,-5.0188,-4.9986,-4.9898,-4.9898,-4.9898,-4.9898,0.0,0.0,0.0,0.0,-2.7635,0.0,0.0,0.0,-2.6184,-2.6184,0.0,0.0,0.0,0.0,0.0,0.0,0.0,0.0,-2.854,-2.8586,-2.9215,-3.0767,-3.0668,-3.054,-3.0707,-3.0948,-3.1273,-3.1729,-3.231,-3.2784,-3.3154,-3.3415,-3.3559,-3.3559,-3.3577,-3.3605,-3.3605,-3.378,-3.3868,-3.3868,-3.4049,-3.4124,-3.4124,-3.4124,-3.4124,-3.4124,-3.4148,-3.4173,-3.4247,-3.5126,-3.5962,-3.676,-3.7431,-3.8248,-3.9073,-3.9073,-3.9073,-3.9101,-3.9101,-3.9101,-3.938,-4.1051,-4.2556,-4.3503,-4.224,-4.1739,-4.1256,-3.9695,-3.9175,-3.9101,-3.9101,-3.9101,-3.912,-3.9212,-3.99,-4.1036,-4.2859,-4.3947,-4.5353,-4.7859,-4.7813,-4.7327,-4.7283,-4.7384,-4.7517,-4.7619,-4.8391,-4.9033,-4.9223,-4.9877,-5.0339,-5.0339,-5.0339,-5.0339,-5.0339,-5.0339,-5.0361,-5.0383,-5.0383,-5.0486,-5.0682,-5.0682,-5.0682,-5.0682,-5.0355,-5.0188,-5.0188,-4.9986,-4.9898,-4.9898,-4.9898,-4.9898,0.0,0.0,0.0,0.0,0.0,0.0,-2.7011,0.0,-2.6239,0.0,0.0,0.0,0.0,0.0,0.0,0.0,-2.8318,0.0,0.0,0.0,-2.893,0.0,0.0,0.0,-3.0295,-3.0389,-3.0854,-3.1978,-3.2381,-3.2834,-3.339,-3.3643,-3.378,-3.378,-3.3895,-3.3947,-3.3947,-3.4197,-3.4221,-3.4074,-3.4435,-3.4542,-3.4431,-3.4431,-3.4431,-3.4409,-3.4269,-3.4197,-3.429,-3.5627,-3.6389,-3.6816,-3.8098,-3.8804,-3.9101,-3.9101,-3.9101,-3.9101,-3.9101,-3.9101,-3.938,-4.1051,-4.237,-4.3095,-4.1943,-4.1256,-4.0643,-3.9435,-3.9101,-3.9101,-3.9101,-3.9101,-3.9156,-3.9298,-4.0349,-4.1586,-4.2564,-4.4573,-4.6434,-4.7322,-4.7575,-4.758,-4.728,-4.7403,-4.7385,-4.6975,-4.7709,-4.8539,-4.9118,-4.9503,-4.9886,-5.0347,-5.0404,-5.0404,-5.0404,-5.0404,-5.0446,-5.0586,-5.0644,-5.0717,-5.0825,-5.0825,-5.0825,-5.0825,-5.0606,-5.0442,-5.0313,-5.0144,-5.0012,-4.9898,-4.9898,-4.9898,-2.9665,0.0,0.0,0.0,0.0,0.0,0.0,0.0,0.0,0.0,0.0,0.0,0.0,0.0,0.0,0.0,0.0,-2.8492,0.0,0.0,0.0,0.0,0.0,0.0,0.0,-2.9769,-3.0325,-3.1599,0.0,-3.2532,-3.3314,-3.3537,-3.3802,-3.408,-3.4221,-3.434,-3.439,-3.4586,-3.4586,-3.439,-3.4752,-3.4812,-3.4668,-3.4645,-3.4602,-3.4602,-3.4316,-3.4197,-3.4327,-3.5999,-3.6686,-3.6853,-3.8469,-3.9101,-3.9101,-3.9101,-3.9101,-3.9101,-3.9101,-3.9398,-3.9993,-4.12,-4.2129,-4.2612,-4.1571,-4.0847,-4.0215,-3.9342,-3.9101,-3.9129,-3.9173,-3.9219,-3.9354,-3.9844,-4.0906,-4.2115,-4.3316,-4.5309,-4.6961,-4.7376,-4.7567,-4.7563,-4.7156,-4.7104,-4.6915,-4.632,-4.7069,-4.7991,-4.8875,-4.9183,-4.9644,-5.0432,-5.0336,-5.0297,-5.0509,-5.0317,-5.0356,-5.0736,-5.0841,-5.0906,-5.0906,-5.0906,-5.0906,-5.0906,-5.0773,-5.0606,-5.0404,-5.0264,-5.0089,-4.9898,-4.9898,-4.9898,0.0,0.0,0.0,-2.9085,0.0,0.0,0.0,0.0,-2.7178,0.0,0.0,0.0,0.0,0.0,-2.8182,-2.8182,0.0,0.0,0.0,0.0,0.0,0.0,0.0,0.0,0.0,-2.9297,-2.9732,0.0,-3.0745,-3.1617,-3.2668,-3.2908,-3.3496,-3.4542,-3.4583,-3.4689,-3.4889,-3.4889,-3.4889,-3.4889,-3.4889,-3.4908,-3.487,-3.4689,-3.4602,-3.4602,-3.4316,-3.4197,-3.4327,-3.5999,-3.6686,-3.6853,-3.8469,-3.9101,-3.9101,-3.9101,-3.9101,-3.9101,-3.9101,-4.016,-4.1534,-4.1571,-4.2129,-4.25,-4.0921,-4.042,-4.0215,-3.9342,-3.9101,-3.9165,-3.9427,-3.9489,-3.9768,-4.0891,-4.1178,-4.2214,-4.5784,-4.5974,-4.6277,-4.9061,-4.8261,-4.7134,-4.7096,-4.6419,-4.5844,-4.5824,-4.6559,-4.7429,-4.8299,-4.915,-4.9981,-5.0793,-5.0194,-5.0039,-5.0813,-5.0175,-5.0059,-5.0832,-5.089,-5.0906,-5.0906,-5.0906,-5.0906,-5.0906,-5.0773,-5.0606,-5.0404,-5.0264,-5.0089,-4.9898,-4.9898,-4.9898,0.0,0.0,-3.2571,-3.0344,0.0,0.0,0.0,0.0,0.0,0.0,0.0,0.0,0.0,0.0,-2.8182,-2.8182,-2.83,0.0,0.0,0.0,0.0,0.0,0.0,0.0,0.0,0.0,0.0,0.0,-3.1252,0.0,0.0,-3.3649,-3.4236,-3.4583,-3.473,-3.4831,-3.4908,-3.5037,-3.5037,-3.4889,-3.5157,-3.5226,-3.5089,-3.5037,-3.4908,-3.4791,-3.4542,-3.4699,-3.5144,-3.624,-3.7002,-3.7623,-3.8868,-3.9245,-3.9101,-3.9101,-3.9101,-3.9175,-3.9751,-4.068,-4.159,-4.159,-4.1776,-4.1794,-4.0717,-3.9993,-3.9528,-3.9413,-3.9352,-3.9427,-3.9716,-3.9762,-4.0032,-4.1189,-4.1914,-4.2868,-4.4823,-4.5928,-4.6634,-4.7042,-4.7115,-4.6922,-4.6341,-4.5993,-4.58,-4.58,-4.6051,-4.6554,-4.7424,-4.8295,-4.9165,-5.0016,-5.0345,-5.0596,-5.0887,-5.0654,-5.0616,-5.0887,-5.0906,-5.0906,-5.0906,-5.0906,-5.0906,-5.0906,-5.0858,-5.0681,-5.0404,-5.0339,-5.0174,-4.9898,-4.9898,-4.9898,-3.2829,-3.3014,0.0,-3.0814,-3.0285,0.0,-2.8075,0.0,-2.8271,0.0,0.0,0.0,0.0,0.0,0.0,-2.8182,-2.8318,-2.8492,0.0,-2.9156,0.0,0.0,0.0,0.0,0.0,0.0,-2.9831,-3.0541,-3.1313,0.0,0.0,0.0,-3.4438,-3.5105,-3.504,-3.5169,-3.5543,-3.5372,-3.5239,-3.5107,-3.5388,-3.5432,-3.5289,-3.5226,-3.5089,-3.4889,-3.499,-3.5217,-3.5597,-3.6777,-3.7567,-3.8152,-3.9133,-3.9433,-3.9364,-3.9364,-3.9364,-3.9514,-4.0675,-4.1416,-4.1846,-4.1846,-4.1846,-4.164,-4.0517,-3.9813,-3.9439,-3.9595,-3.9645,-3.9716,-4.0005,-4.0291,-4.0806,-4.1918,-4.2848,-4.3821,-4.5143,-4.6056,-4.6554,-4.6303,-4.6457,-4.6457,-4.5896,-4.58,-4.58,-4.58,-4.58,-4.6109,-4.698,-4.7579,-4.8392,-4.9571,-4.99,-5.0152,-5.0461,-5.0751,-5.0906,-5.0906,-5.0906,-5.0906,-5.0906,-5.0906,-5.0906,-5.0906,-5.0906,-5.0735,-5.0404,-5.0404,-5.0225,-4.9898,-4.9898,-4.9898]}]]